<?xml version="1.0" encoding="UTF-8" standalone="no" ?><gpx xmlns="http://www.topografix.com/GPX/1/1" xmlns:gpxx="http://www.garmin.com/xmlschemas/GpxExtensions/v3" xmlns:wptx1="http://www.garmin.com/xmlschemas/WaypointExtension/v1" xmlns:gpxtpx="http://www.garmin.com/xmlschemas/TrackPointExtension/v1" creator="Astro 320" version="1.1" xmlns:xsi="http://www.w3.org/2001/XMLSchema-instance" xsi:schemaLocation="http://www.topografix.com/GPX/1/1 http://www.topografix.com/GPX/1/1/gpx.xsd http://www.garmin.com/xmlschemas/GpxExtensions/v3 http://www8.garmin.com/xmlschemas/GpxExtensionsv3.xsd http://www.garmin.com/xmlschemas/WaypointExtension/v1 http://www8.garmin.com/xmlschemas/WaypointExtensionv1.xsd http://www.garmin.com/xmlschemas/TrackPointExtension/v1 http://www.garmin.com/xmlschemas/TrackPointExtensionv1.xsd"><metadata><link href="http://www.garmin.com"><text>Garmin International</text></link><time>2026-08-20T15:16:17Z</time></metadata><trk><name>2026-08-20 19:16:15</name><extensions><gpxx:TrackExtension><gpxx:DisplayColor>Magenta</gpxx:DisplayColor></gpxx:TrackExtension></extensions><trkseg><trkpt lat="60.1119105052" lon="30.5024567619"><ele>60.22</ele><time>2026-08-20T07:41:01Z</time></trkpt><trkpt lat="60.1119645685" lon="30.5024469551"><ele>59.74</ele><time>2026-08-20T07:41:31Z</time></trkpt><trkpt lat="60.1119364891" lon="30.5024544150"><ele>60.22</ele><time>2026-08-20T07:41:59Z</time></trkpt><trkpt lat="60.1119359862" lon="30.5024472065"><ele>60.22</ele><time>2026-08-20T07:42:02Z</time></trkpt><trkpt lat="60.1117234211" lon="30.5024229828"><ele>61.66</ele><time>2026-08-20T07:43:02Z</time></trkpt><trkpt lat="60.1117313001" lon="30.5024444405"><ele>61.66</ele><time>2026-08-20T07:43:04Z</time></trkpt><trkpt lat="60.1118468028" lon="30.5025191233"><ele>59.74</ele><time>2026-08-20T07:43:23Z</time></trkpt><trkpt lat="60.1118451264" lon="30.5024537444"><ele>59.74</ele><time>2026-08-20T07:43:47Z</time></trkpt><trkpt lat="60.1118599623" lon="30.5024785548"><ele>59.26</ele><time>2026-08-20T07:44:10Z</time></trkpt><trkpt lat="60.1118689310" lon="30.5024857633"><ele>59.26</ele><time>2026-08-20T07:44:30Z</time></trkpt><trkpt lat="60.1117779873" lon="30.5024514813"><ele>61.66</ele><time>2026-08-20T07:46:19Z</time></trkpt><trkpt lat="60.1117401011" lon="30.5024462845"><ele>61.66</ele><time>2026-08-20T07:46:21Z</time></trkpt><trkpt lat="60.1117801666" lon="30.5024954025"><ele>60.22</ele><time>2026-08-20T07:46:33Z</time></trkpt><trkpt lat="60.1117864531" lon="30.5025036167"><ele>59.74</ele><time>2026-08-20T07:46:46Z</time></trkpt><trkpt lat="60.1117607206" lon="30.5025217216"><ele>59.26</ele><time>2026-08-20T07:47:01Z</time></trkpt><trkpt lat="60.1117899735" lon="30.5025248230"><ele>58.78</ele><time>2026-08-20T07:47:25Z</time></trkpt><trkpt lat="60.1118144486" lon="30.5025316123"><ele>58.78</ele><time>2026-08-20T07:47:36Z</time></trkpt><trkpt lat="60.1118056476" lon="30.5025005154"><ele>58.30</ele><time>2026-08-20T07:47:54Z</time></trkpt><trkpt lat="60.1118151192" lon="30.5024997611"><ele>58.30</ele><time>2026-08-20T07:48:07Z</time></trkpt><trkpt lat="60.1118120179" lon="30.5024988391"><ele>58.30</ele><time>2026-08-20T07:48:27Z</time></trkpt><trkpt lat="60.1118072402" lon="30.5024915468"><ele>58.30</ele><time>2026-08-20T07:48:50Z</time></trkpt><trkpt lat="60.1118042227" lon="30.5025138427"><ele>58.30</ele><time>2026-08-20T07:49:07Z</time></trkpt><trkpt lat="60.1118028816" lon="30.5025256611"><ele>58.30</ele><time>2026-08-20T07:49:17Z</time></trkpt><trkpt lat="60.1118006185" lon="30.5025988352"><ele>58.30</ele><time>2026-08-20T07:49:20Z</time></trkpt><trkpt lat="60.1118107606" lon="30.5026741046"><ele>58.30</ele><time>2026-08-20T07:49:23Z</time></trkpt><trkpt lat="60.1118117664" lon="30.5027306825"><ele>58.30</ele><time>2026-08-20T07:49:25Z</time></trkpt><trkpt lat="60.1118622255" lon="30.5029171798"><ele>57.82</ele><time>2026-08-20T07:49:37Z</time></trkpt><trkpt lat="60.1118555199" lon="30.5031764321"><ele>57.82</ele><time>2026-08-20T07:49:50Z</time></trkpt><trkpt lat="60.1119043026" lon="30.5035386141"><ele>57.82</ele><time>2026-08-20T07:50:03Z</time></trkpt><trkpt lat="60.1119905524" lon="30.5038149655"><ele>58.78</ele><time>2026-08-20T07:50:16Z</time></trkpt><trkpt lat="60.1119506545" lon="30.5038432963"><ele>58.78</ele><time>2026-08-20T07:50:21Z</time></trkpt><trkpt lat="60.1119282749" lon="30.5038363393"><ele>58.78</ele><time>2026-08-20T07:50:31Z</time></trkpt><trkpt lat="60.1119431946" lon="30.5038632452"><ele>58.78</ele><time>2026-08-20T07:50:36Z</time></trkpt><trkpt lat="60.1119644009" lon="30.5039706174"><ele>58.78</ele><time>2026-08-20T07:50:42Z</time></trkpt><trkpt lat="60.1120287739" lon="30.5043457076"><ele>58.30</ele><time>2026-08-20T07:50:57Z</time></trkpt><trkpt lat="60.1120505668" lon="30.5045889504"><ele>58.30</ele><time>2026-08-20T07:51:08Z</time></trkpt><trkpt lat="60.1120582782" lon="30.5046214722"><ele>58.30</ele><time>2026-08-20T07:51:13Z</time></trkpt><trkpt lat="60.1120761316" lon="30.5047261622"><ele>58.30</ele><time>2026-08-20T07:51:18Z</time></trkpt><trkpt lat="60.1121330447" lon="30.5048630387"><ele>58.30</ele><time>2026-08-20T07:51:24Z</time></trkpt><trkpt lat="60.1121938135" lon="30.5051466823"><ele>58.30</ele><time>2026-08-20T07:51:34Z</time></trkpt><trkpt lat="60.1122384053" lon="30.5052116420"><ele>58.30</ele><time>2026-08-20T07:51:38Z</time></trkpt><trkpt lat="60.1122881100" lon="30.5054278113"><ele>58.30</ele><time>2026-08-20T07:51:48Z</time></trkpt><trkpt lat="60.1123088971" lon="30.5055410508"><ele>58.30</ele><time>2026-08-20T07:51:53Z</time></trkpt><trkpt lat="60.1123329531" lon="30.5056734011"><ele>58.30</ele><time>2026-08-20T07:51:59Z</time></trkpt><trkpt lat="60.1123763714" lon="30.5060039833"><ele>57.82</ele><time>2026-08-20T07:52:12Z</time></trkpt><trkpt lat="60.1123848371" lon="30.5061238445"><ele>57.82</ele><time>2026-08-20T07:52:16Z</time></trkpt><trkpt lat="60.1124107372" lon="30.5062696896"><ele>57.82</ele><time>2026-08-20T07:52:23Z</time></trkpt><trkpt lat="60.1123900339" lon="30.5063465517"><ele>57.82</ele><time>2026-08-20T07:52:27Z</time></trkpt><trkpt lat="60.1124220528" lon="30.5064991862"><ele>57.82</ele><time>2026-08-20T07:52:40Z</time></trkpt><trkpt lat="60.1124641299" lon="30.5066739488"><ele>57.82</ele><time>2026-08-20T07:52:53Z</time></trkpt><trkpt lat="60.1125480328" lon="30.5068197940"><ele>57.82</ele><time>2026-08-20T07:53:05Z</time></trkpt><trkpt lat="60.1125678979" lon="30.5069272500"><ele>57.82</ele><time>2026-08-20T07:53:11Z</time></trkpt><trkpt lat="60.1125913672" lon="30.5069819838"><ele>57.82</ele><time>2026-08-20T07:53:15Z</time></trkpt><trkpt lat="60.1126062870" lon="30.5069622025"><ele>57.82</ele><time>2026-08-20T07:53:17Z</time></trkpt><trkpt lat="60.1126353722" lon="30.5069114082"><ele>57.82</ele><time>2026-08-20T07:53:21Z</time></trkpt><trkpt lat="60.1126694866" lon="30.5068988353"><ele>57.82</ele><time>2026-08-20T07:53:24Z</time></trkpt><trkpt lat="60.1127400622" lon="30.5069432594"><ele>57.34</ele><time>2026-08-20T07:53:29Z</time></trkpt><trkpt lat="60.1127904374" lon="30.5069596879"><ele>57.34</ele><time>2026-08-20T07:53:33Z</time></trkpt><trkpt lat="60.1128273178" lon="30.5069714226"><ele>57.34</ele><time>2026-08-20T07:53:43Z</time></trkpt><trkpt lat="60.1128264796" lon="30.5069715902"><ele>57.34</ele><time>2026-08-20T07:54:03Z</time></trkpt><trkpt lat="60.1128284074" lon="30.5069756974"><ele>57.34</ele><time>2026-08-20T07:54:11Z</time></trkpt><trkpt lat="60.1129171718" lon="30.5070896912"><ele>57.34</ele><time>2026-08-20T07:54:24Z</time></trkpt><trkpt lat="60.1129686367" lon="30.5071308464"><ele>56.86</ele><time>2026-08-20T07:54:38Z</time></trkpt><trkpt lat="60.1129986439" lon="30.5071662180"><ele>56.86</ele><time>2026-08-20T07:54:41Z</time></trkpt><trkpt lat="60.1130974665" lon="30.5070878472"><ele>56.86</ele><time>2026-08-20T07:54:54Z</time></trkpt><trkpt lat="60.1131307427" lon="30.5070326105"><ele>56.86</ele><time>2026-08-20T07:55:07Z</time></trkpt><trkpt lat="60.1131401304" lon="30.5070335325"><ele>56.86</ele><time>2026-08-20T07:55:08Z</time></trkpt><trkpt lat="60.1132065989" lon="30.5070462730"><ele>55.41</ele><time>2026-08-20T07:55:19Z</time></trkpt><trkpt lat="60.1132065989" lon="30.5070457701"><ele>55.41</ele><time>2026-08-20T07:55:20Z</time></trkpt><trkpt lat="60.1132146455" lon="30.5070169363"><ele>54.93</ele><time>2026-08-20T07:55:47Z</time></trkpt><trkpt lat="60.1132586505" lon="30.5070692394"><ele>54.93</ele><time>2026-08-20T07:56:05Z</time></trkpt><trkpt lat="60.1132455748" lon="30.5070642103"><ele>53.97</ele><time>2026-08-20T07:56:19Z</time></trkpt><trkpt lat="60.1133200061" lon="30.5070261564"><ele>53.97</ele><time>2026-08-20T07:56:39Z</time></trkpt><trkpt lat="60.1132945251" lon="30.5070468597"><ele>53.97</ele><time>2026-08-20T07:56:57Z</time></trkpt><trkpt lat="60.1131613366" lon="30.5069677345"><ele>53.97</ele><time>2026-08-20T07:57:09Z</time></trkpt><trkpt lat="60.1131239533" lon="30.5069221370"><ele>53.97</ele><time>2026-08-20T07:57:13Z</time></trkpt><trkpt lat="60.1130817924" lon="30.5069472827"><ele>53.97</ele><time>2026-08-20T07:57:18Z</time></trkpt><trkpt lat="60.1130548026" lon="30.5070984922"><ele>53.49</ele><time>2026-08-20T07:57:29Z</time></trkpt><trkpt lat="60.1130484324" lon="30.5070814770"><ele>53.49</ele><time>2026-08-20T07:57:42Z</time></trkpt><trkpt lat="60.1130503602" lon="30.5071602669"><ele>53.49</ele><time>2026-08-20T07:57:46Z</time></trkpt><trkpt lat="60.1131018251" lon="30.5073209479"><ele>53.49</ele><time>2026-08-20T07:57:53Z</time></trkpt><trkpt lat="60.1131340116" lon="30.5073931161"><ele>54.45</ele><time>2026-08-20T07:57:56Z</time></trkpt><trkpt lat="60.1132698823" lon="30.5075746682"><ele>54.45</ele><time>2026-08-20T07:58:09Z</time></trkpt><trkpt lat="60.1132822037" lon="30.5075893365"><ele>54.45</ele><time>2026-08-20T07:58:10Z</time></trkpt><trkpt lat="60.1134299766" lon="30.5077647697"><ele>54.45</ele><time>2026-08-20T07:58:25Z</time></trkpt><trkpt lat="60.1135459822" lon="30.5079232715"><ele>54.45</ele><time>2026-08-20T07:58:36Z</time></trkpt><trkpt lat="60.1136542764" lon="30.5080355052"><ele>54.45</ele><time>2026-08-20T07:58:48Z</time></trkpt><trkpt lat="60.1136936713" lon="30.5080377683"><ele>54.45</ele><time>2026-08-20T07:59:12Z</time></trkpt><trkpt lat="60.1137147937" lon="30.5080393609"><ele>54.45</ele><time>2026-08-20T07:59:43Z</time></trkpt><trkpt lat="60.1136301365" lon="30.5080510955"><ele>54.45</ele><time>2026-08-20T08:00:04Z</time></trkpt><trkpt lat="60.1136023924" lon="30.5079899915"><ele>54.45</ele><time>2026-08-20T08:00:17Z</time></trkpt><trkpt lat="60.1137171406" lon="30.5081358366"><ele>53.97</ele><time>2026-08-20T08:00:33Z</time></trkpt><trkpt lat="60.1137230918" lon="30.5081976112"><ele>54.45</ele><time>2026-08-20T08:00:55Z</time></trkpt><trkpt lat="60.1137575414" lon="30.5083148740"><ele>54.45</ele><time>2026-08-20T08:01:08Z</time></trkpt><trkpt lat="60.1139300410" lon="30.5085110944"><ele>54.93</ele><time>2026-08-20T08:01:21Z</time></trkpt><trkpt lat="60.1139576174" lon="30.5087287724"><ele>54.93</ele><time>2026-08-20T08:01:34Z</time></trkpt><trkpt lat="60.1139092539" lon="30.5089357216"><ele>54.45</ele><time>2026-08-20T08:01:48Z</time></trkpt><trkpt lat="60.1138688531" lon="30.5090261623"><ele>54.45</ele><time>2026-08-20T08:01:58Z</time></trkpt><trkpt lat="60.1138187293" lon="30.5092737637"><ele>54.45</ele><time>2026-08-20T08:02:11Z</time></trkpt><trkpt lat="60.1137699466" lon="30.5095211975"><ele>54.45</ele><time>2026-08-20T08:02:24Z</time></trkpt><trkpt lat="60.1137526799" lon="30.5095736682"><ele>54.45</ele><time>2026-08-20T08:02:30Z</time></trkpt><trkpt lat="60.1137064956" lon="30.5096123926"><ele>53.01</ele><time>2026-08-20T08:02:34Z</time></trkpt><trkpt lat="60.1136131212" lon="30.5095064454"><ele>53.01</ele><time>2026-08-20T08:02:46Z</time></trkpt><trkpt lat="60.1134902425" lon="30.5093404837"><ele>52.53</ele><time>2026-08-20T08:02:57Z</time></trkpt><trkpt lat="60.1133358479" lon="30.5091685709"><ele>52.53</ele><time>2026-08-20T08:03:11Z</time></trkpt><trkpt lat="60.1132471673" lon="30.5089848395"><ele>52.53</ele><time>2026-08-20T08:03:22Z</time></trkpt><trkpt lat="60.1131344307" lon="30.5090163555"><ele>52.53</ele><time>2026-08-20T08:03:35Z</time></trkpt><trkpt lat="60.1130541321" lon="30.5090934690"><ele>51.09</ele><time>2026-08-20T08:03:45Z</time></trkpt><trkpt lat="60.1130195986" lon="30.5091720913"><ele>50.61</ele><time>2026-08-20T08:03:49Z</time></trkpt><trkpt lat="60.1129874960" lon="30.5092671420"><ele>50.13</ele><time>2026-08-20T08:03:53Z</time></trkpt><trkpt lat="60.1128921099" lon="30.5094616022"><ele>49.65</ele><time>2026-08-20T08:04:04Z</time></trkpt><trkpt lat="60.1128625218" lon="30.5098045059"><ele>49.16</ele><time>2026-08-20T08:04:18Z</time></trkpt><trkpt lat="60.1128992345" lon="30.5100037437"><ele>49.16</ele><time>2026-08-20T08:04:32Z</time></trkpt><trkpt lat="60.1128973905" lon="30.5100583937"><ele>49.16</ele><time>2026-08-20T08:04:40Z</time></trkpt><trkpt lat="60.1128982287" lon="30.5102317315"><ele>48.68</ele><time>2026-08-20T08:04:50Z</time></trkpt><trkpt lat="60.1129014138" lon="30.5103090126"><ele>48.68</ele><time>2026-08-20T08:04:56Z</time></trkpt><trkpt lat="60.1129173394" lon="30.5104628205"><ele>48.68</ele><time>2026-08-20T08:05:03Z</time></trkpt><trkpt lat="60.1129196025" lon="30.5105161294"><ele>48.68</ele><time>2026-08-20T08:05:05Z</time></trkpt><trkpt lat="60.1129320078" lon="30.5106185563"><ele>48.68</ele><time>2026-08-20T08:05:09Z</time></trkpt><trkpt lat="60.1129574887" lon="30.5106638186"><ele>48.68</ele><time>2026-08-20T08:05:12Z</time></trkpt><trkpt lat="60.1129539683" lon="30.5107823387"><ele>48.20</ele><time>2026-08-20T08:05:24Z</time></trkpt><trkpt lat="60.1129051857" lon="30.5107597914"><ele>48.20</ele><time>2026-08-20T08:05:33Z</time></trkpt><trkpt lat="60.1128321793" lon="30.5107678380"><ele>48.20</ele><time>2026-08-20T08:05:43Z</time></trkpt><trkpt lat="60.1127115637" lon="30.5107066501"><ele>49.65</ele><time>2026-08-20T08:05:57Z</time></trkpt><trkpt lat="60.1127175149" lon="30.5106948316"><ele>50.13</ele><time>2026-08-20T08:06:23Z</time></trkpt><trkpt lat="60.1127043553" lon="30.5107449554"><ele>49.65</ele><time>2026-08-20T08:06:47Z</time></trkpt><trkpt lat="60.1127300877" lon="30.5107437819"><ele>49.65</ele><time>2026-08-20T08:06:50Z</time></trkpt><trkpt lat="60.1128316764" lon="30.5107646529"><ele>49.65</ele><time>2026-08-20T08:07:03Z</time></trkpt><trkpt lat="60.1128784474" lon="30.5107589532"><ele>48.20</ele><time>2026-08-20T08:07:21Z</time></trkpt><trkpt lat="60.1128976420" lon="30.5107542593"><ele>48.20</ele><time>2026-08-20T08:07:30Z</time></trkpt><trkpt lat="60.1128156669" lon="30.5107779801"><ele>47.72</ele><time>2026-08-20T08:07:43Z</time></trkpt><trkpt lat="60.1127886772" lon="30.5107714422"><ele>47.72</ele><time>2026-08-20T08:07:56Z</time></trkpt><trkpt lat="60.1127422415" lon="30.5107315443"><ele>48.68</ele><time>2026-08-20T08:08:13Z</time></trkpt><trkpt lat="60.1127238851" lon="30.5107765552"><ele>49.16</ele><time>2026-08-20T08:08:26Z</time></trkpt><trkpt lat="60.1127191912" lon="30.5107840989"><ele>49.65</ele><time>2026-08-20T08:08:47Z</time></trkpt><trkpt lat="60.1127104741" lon="30.5107669160"><ele>50.13</ele><time>2026-08-20T08:09:11Z</time></trkpt><trkpt lat="60.1127139106" lon="30.5107600428"><ele>49.65</ele><time>2026-08-20T08:09:42Z</time></trkpt><trkpt lat="60.1127142459" lon="30.5107486434"><ele>49.65</ele><time>2026-08-20T08:09:59Z</time></trkpt><trkpt lat="60.1127124019" lon="30.5107389204"><ele>49.65</ele><time>2026-08-20T08:10:02Z</time></trkpt><trkpt lat="60.1127787028" lon="30.5107713584"><ele>49.65</ele><time>2026-08-20T08:10:16Z</time></trkpt><trkpt lat="60.1127885934" lon="30.5107887927"><ele>47.24</ele><time>2026-08-20T08:10:39Z</time></trkpt><trkpt lat="60.1128890924" lon="30.5107308738"><ele>47.24</ele><time>2026-08-20T08:10:50Z</time></trkpt><trkpt lat="60.1129294932" lon="30.5107379984"><ele>47.24</ele><time>2026-08-20T08:10:53Z</time></trkpt><trkpt lat="60.1129371207" lon="30.5107659101"><ele>46.76</ele><time>2026-08-20T08:10:54Z</time></trkpt><trkpt lat="60.1129479334" lon="30.5107918940"><ele>46.76</ele><time>2026-08-20T08:10:55Z</time></trkpt><trkpt lat="60.1129880827" lon="30.5108637270"><ele>46.76</ele><time>2026-08-20T08:10:58Z</time></trkpt><trkpt lat="60.1129987277" lon="30.5108933151"><ele>46.76</ele><time>2026-08-20T08:10:59Z</time></trkpt><trkpt lat="60.1130082831" lon="30.5109213945"><ele>46.76</ele><time>2026-08-20T08:11:00Z</time></trkpt><trkpt lat="60.1130217779" lon="30.5109459534"><ele>46.76</ele><time>2026-08-20T08:11:01Z</time></trkpt><trkpt lat="60.1130310819" lon="30.5109914672"><ele>46.76</ele><time>2026-08-20T08:11:03Z</time></trkpt><trkpt lat="60.1130319200" lon="30.5110180378"><ele>46.76</ele><time>2026-08-20T08:11:04Z</time></trkpt><trkpt lat="60.1130495220" lon="30.5112504680"><ele>46.76</ele><time>2026-08-20T08:11:15Z</time></trkpt><trkpt lat="60.1130646933" lon="30.5113886017"><ele>46.76</ele><time>2026-08-20T08:11:22Z</time></trkpt><trkpt lat="60.1130984724" lon="30.5114512984"><ele>46.76</ele><time>2026-08-20T08:11:36Z</time></trkpt><trkpt lat="60.1130976342" lon="30.5114283320"><ele>47.72</ele><time>2026-08-20T08:12:00Z</time></trkpt><trkpt lat="60.1131793577" lon="30.5114575848"><ele>47.72</ele><time>2026-08-20T08:12:23Z</time></trkpt><trkpt lat="60.1131939422" lon="30.5114706606"><ele>47.72</ele><time>2026-08-20T08:12:24Z</time></trkpt><trkpt lat="60.1132620871" lon="30.5115997419"><ele>46.28</ele><time>2026-08-20T08:12:35Z</time></trkpt><trkpt lat="60.1133630052" lon="30.5117501132"><ele>45.80</ele><time>2026-08-20T08:12:48Z</time></trkpt><trkpt lat="60.1134015620" lon="30.5117434077"><ele>44.84</ele><time>2026-08-20T08:13:01Z</time></trkpt><trkpt lat="60.1134259533" lon="30.5117455032"><ele>44.36</ele><time>2026-08-20T08:13:16Z</time></trkpt><trkpt lat="60.1134354249" lon="30.5117330980"><ele>44.36</ele><time>2026-08-20T08:13:49Z</time></trkpt><trkpt lat="60.1134390291" lon="30.5117337685"><ele>43.88</ele><time>2026-08-20T08:14:15Z</time></trkpt><trkpt lat="60.1134433039" lon="30.5117279850"><ele>43.40</ele><time>2026-08-20T08:14:35Z</time></trkpt><trkpt lat="60.1134512667" lon="30.5117350258"><ele>43.40</ele><time>2026-08-20T08:14:59Z</time></trkpt><trkpt lat="60.1134599838" lon="30.5117480177"><ele>42.92</ele><time>2026-08-20T08:15:26Z</time></trkpt><trkpt lat="60.1134628337" lon="30.5117519572"><ele>42.92</ele><time>2026-08-20T08:15:57Z</time></trkpt><trkpt lat="60.1134045795" lon="30.5117592495"><ele>42.92</ele><time>2026-08-20T08:16:11Z</time></trkpt><trkpt lat="60.1134063397" lon="30.5118293222"><ele>42.92</ele><time>2026-08-20T08:16:22Z</time></trkpt><trkpt lat="60.1134479977" lon="30.5119528715"><ele>43.88</ele><time>2026-08-20T08:16:33Z</time></trkpt><trkpt lat="60.1134639233" lon="30.5119429808"><ele>43.88</ele><time>2026-08-20T08:16:59Z</time></trkpt><trkpt lat="60.1134714670" lon="30.5119638517"><ele>44.36</ele><time>2026-08-20T08:17:26Z</time></trkpt><trkpt lat="60.1134687010" lon="30.5119890813"><ele>43.88</ele><time>2026-08-20T08:18:07Z</time></trkpt><trkpt lat="60.1134854648" lon="30.5120390374"><ele>43.88</ele><time>2026-08-20T08:18:40Z</time></trkpt><trkpt lat="60.1135243569" lon="30.5121928453"><ele>44.36</ele><time>2026-08-20T08:18:53Z</time></trkpt><trkpt lat="60.1135612372" lon="30.5123106949"><ele>44.84</ele><time>2026-08-20T08:19:10Z</time></trkpt><trkpt lat="60.1135870535" lon="30.5124275386"><ele>44.84</ele><time>2026-08-20T08:19:22Z</time></trkpt><trkpt lat="60.1136204135" lon="30.5125898961"><ele>45.32</ele><time>2026-08-20T08:19:34Z</time></trkpt><trkpt lat="60.1136302203" lon="30.5126026366"><ele>45.80</ele><time>2026-08-20T08:19:49Z</time></trkpt><trkpt lat="60.1136302203" lon="30.5126115214"><ele>46.28</ele><time>2026-08-20T08:20:06Z</time></trkpt><trkpt lat="60.1136323158" lon="30.5126065761"><ele>46.28</ele><time>2026-08-20T08:20:29Z</time></trkpt><trkpt lat="60.1136264484" lon="30.5127058178"><ele>45.80</ele><time>2026-08-20T08:20:39Z</time></trkpt><trkpt lat="60.1136344112" lon="30.5128228292"><ele>45.80</ele><time>2026-08-20T08:20:45Z</time></trkpt><trkpt lat="60.1136527676" lon="30.5129455402"><ele>45.80</ele><time>2026-08-20T08:20:51Z</time></trkpt><trkpt lat="60.1136655919" lon="30.5130826682"><ele>46.28</ele><time>2026-08-20T08:21:05Z</time></trkpt><trkpt lat="60.1136919949" lon="30.5132326204"><ele>46.28</ele><time>2026-08-20T08:21:25Z</time></trkpt><trkpt lat="60.1137315575" lon="30.5134388991"><ele>46.76</ele><time>2026-08-20T08:21:38Z</time></trkpt><trkpt lat="60.1137226727" lon="30.5134991650"><ele>46.76</ele><time>2026-08-20T08:21:40Z</time></trkpt><trkpt lat="60.1137461420" lon="30.5136328563"><ele>46.76</ele><time>2026-08-20T08:21:53Z</time></trkpt><trkpt lat="60.1138086710" lon="30.5136806332"><ele>46.76</ele><time>2026-08-20T08:22:02Z</time></trkpt><trkpt lat="60.1138585433" lon="30.5137472693"><ele>46.76</ele><time>2026-08-20T08:22:19Z</time></trkpt><trkpt lat="60.1138888020" lon="30.5138020031"><ele>46.76</ele><time>2026-08-20T08:22:24Z</time></trkpt><trkpt lat="60.1139404345" lon="30.5138320103"><ele>46.76</ele><time>2026-08-20T08:22:38Z</time></trkpt><trkpt lat="60.1139509119" lon="30.5138206948"><ele>46.28</ele><time>2026-08-20T08:23:06Z</time></trkpt><trkpt lat="60.1139559411" lon="30.5138199404"><ele>46.28</ele><time>2026-08-20T08:23:34Z</time></trkpt><trkpt lat="60.1138930768" lon="30.5136996601"><ele>46.28</ele><time>2026-08-20T08:23:48Z</time></trkpt><trkpt lat="60.1138271112" lon="30.5136766098"><ele>46.28</ele><time>2026-08-20T08:23:53Z</time></trkpt><trkpt lat="60.1137953438" lon="30.5139128119"><ele>46.76</ele><time>2026-08-20T08:24:06Z</time></trkpt><trkpt lat="60.1137809269" lon="30.5140368640"><ele>46.76</ele><time>2026-08-20T08:24:14Z</time></trkpt><trkpt lat="60.1137896441" lon="30.5142324977"><ele>46.76</ele><time>2026-08-20T08:24:25Z</time></trkpt><trkpt lat="60.1137852855" lon="30.5142894946"><ele>46.28</ele><time>2026-08-20T08:24:27Z</time></trkpt><trkpt lat="60.1137641631" lon="30.5143065937"><ele>46.28</ele><time>2026-08-20T08:24:29Z</time></trkpt><trkpt lat="60.1137694437" lon="30.5145405326"><ele>47.24</ele><time>2026-08-20T08:24:41Z</time></trkpt><trkpt lat="60.1137696113" lon="30.5145745631"><ele>47.24</ele><time>2026-08-20T08:24:42Z</time></trkpt><trkpt lat="60.1138128620" lon="30.5148429517"><ele>46.76</ele><time>2026-08-20T08:24:54Z</time></trkpt><trkpt lat="60.1138660870" lon="30.5150715262"><ele>46.76</ele><time>2026-08-20T08:25:05Z</time></trkpt><trkpt lat="60.1138675958" lon="30.5150956661"><ele>46.76</ele><time>2026-08-20T08:25:06Z</time></trkpt><trkpt lat="60.1138712000" lon="30.5152252503"><ele>46.76</ele><time>2026-08-20T08:25:11Z</time></trkpt><trkpt lat="60.1138718706" lon="30.5154408328"><ele>46.76</ele><time>2026-08-20T08:25:22Z</time></trkpt><trkpt lat="60.1138775703" lon="30.5155621190"><ele>46.76</ele><time>2026-08-20T08:25:27Z</time></trkpt><trkpt lat="60.1139088348" lon="30.5158424936"><ele>46.76</ele><time>2026-08-20T08:25:39Z</time></trkpt><trkpt lat="60.1139323041" lon="30.5161191802"><ele>46.76</ele><time>2026-08-20T08:25:51Z</time></trkpt><trkpt lat="60.1139225811" lon="30.5161289033"><ele>46.76</ele><time>2026-08-20T08:25:52Z</time></trkpt><trkpt lat="60.1138889696" lon="30.5161175039"><ele>46.76</ele><time>2026-08-20T08:26:07Z</time></trkpt><trkpt lat="60.1138965134" lon="30.5161263049"><ele>46.76</ele><time>2026-08-20T08:26:27Z</time></trkpt><trkpt lat="60.1139090024" lon="30.5161385424"><ele>46.76</ele><time>2026-08-20T08:26:41Z</time></trkpt><trkpt lat="60.1139095891" lon="30.5161503609"><ele>46.76</ele><time>2026-08-20T08:27:00Z</time></trkpt><trkpt lat="60.1139172167" lon="30.5161529593"><ele>46.76</ele><time>2026-08-20T08:27:23Z</time></trkpt><trkpt lat="60.1139188092" lon="30.5161750875"><ele>46.28</ele><time>2026-08-20T08:27:38Z</time></trkpt><trkpt lat="60.1139209047" lon="30.5162511114"><ele>46.28</ele><time>2026-08-20T08:27:41Z</time></trkpt><trkpt lat="60.1139499899" lon="30.5163403787"><ele>46.28</ele><time>2026-08-20T08:27:45Z</time></trkpt><trkpt lat="60.1139713638" lon="30.5164197553"><ele>46.28</ele><time>2026-08-20T08:27:49Z</time></trkpt><trkpt lat="60.1139660832" lon="30.5167299695"><ele>46.28</ele><time>2026-08-20T08:28:00Z</time></trkpt><trkpt lat="60.1139708608" lon="30.5168495793"><ele>46.28</ele><time>2026-08-20T08:28:05Z</time></trkpt><trkpt lat="60.1139654964" lon="30.5169570353"><ele>45.32</ele><time>2026-08-20T08:28:20Z</time></trkpt><trkpt lat="60.1139973477" lon="30.5170691852"><ele>45.32</ele><time>2026-08-20T08:28:34Z</time></trkpt><trkpt lat="60.1139967609" lon="30.5171768926"><ele>45.32</ele><time>2026-08-20T08:28:38Z</time></trkpt><trkpt lat="60.1140174642" lon="30.5173266772"><ele>45.32</ele><time>2026-08-20T08:28:43Z</time></trkpt><trkpt lat="60.1140149496" lon="30.5174042936"><ele>44.84</ele><time>2026-08-20T08:28:46Z</time></trkpt><trkpt lat="60.1140232477" lon="30.5174620450"><ele>44.84</ele><time>2026-08-20T08:28:48Z</time></trkpt><trkpt lat="60.1140419394" lon="30.5175280105"><ele>44.84</ele><time>2026-08-20T08:28:51Z</time></trkpt><trkpt lat="60.1140333898" lon="30.5175735243"><ele>44.84</ele><time>2026-08-20T08:28:53Z</time></trkpt><trkpt lat="60.1140308753" lon="30.5177127477"><ele>45.32</ele><time>2026-08-20T08:29:00Z</time></trkpt><trkpt lat="60.1140954997" lon="30.5180019233"><ele>46.28</ele><time>2026-08-20T08:29:12Z</time></trkpt><trkpt lat="60.1141129341" lon="30.5180627760"><ele>46.28</ele><time>2026-08-20T08:29:15Z</time></trkpt><trkpt lat="60.1141233277" lon="30.5181276519"><ele>46.28</ele><time>2026-08-20T08:29:19Z</time></trkpt><trkpt lat="60.1141182985" lon="30.5182447471"><ele>46.76</ele><time>2026-08-20T08:29:25Z</time></trkpt><trkpt lat="60.1141210645" lon="30.5183474254"><ele>46.76</ele><time>2026-08-20T08:29:35Z</time></trkpt><trkpt lat="60.1141009480" lon="30.5183953699"><ele>46.76</ele><time>2026-08-20T08:29:38Z</time></trkpt><trkpt lat="60.1140815020" lon="30.5183532927"><ele>46.76</ele><time>2026-08-20T08:29:51Z</time></trkpt><trkpt lat="60.1140901353" lon="30.5183680449"><ele>46.76</ele><time>2026-08-20T08:29:52Z</time></trkpt><trkpt lat="60.1141120121" lon="30.5184205994"><ele>46.76</ele><time>2026-08-20T08:29:55Z</time></trkpt><trkpt lat="60.1141205616" lon="30.5186307337"><ele>46.76</ele><time>2026-08-20T08:30:04Z</time></trkpt><trkpt lat="60.1140976790" lon="30.5187422968"><ele>47.24</ele><time>2026-08-20T08:30:16Z</time></trkpt><trkpt lat="60.1140899677" lon="30.5187367648"><ele>47.72</ele><time>2026-08-20T08:30:44Z</time></trkpt><trkpt lat="60.1140975114" lon="30.5187425483"><ele>47.72</ele><time>2026-08-20T08:31:06Z</time></trkpt><trkpt lat="60.1141022053" lon="30.5187574681"><ele>47.72</ele><time>2026-08-20T08:31:21Z</time></trkpt><trkpt lat="60.1141501497" lon="30.5186454859"><ele>47.72</ele><time>2026-08-20T08:31:33Z</time></trkpt><trkpt lat="60.1141531672" lon="30.5186288059"><ele>47.72</ele><time>2026-08-20T08:31:49Z</time></trkpt><trkpt lat="60.1141603757" lon="30.5186702963"><ele>47.72</ele><time>2026-08-20T08:32:07Z</time></trkpt><trkpt lat="60.1141880360" lon="30.5187909957"><ele>47.72</ele><time>2026-08-20T08:32:16Z</time></trkpt><trkpt lat="60.1141830906" lon="30.5188610684"><ele>46.76</ele><time>2026-08-20T08:32:19Z</time></trkpt><trkpt lat="60.1141789835" lon="30.5189882219"><ele>46.28</ele><time>2026-08-20T08:32:32Z</time></trkpt><trkpt lat="60.1142282691" lon="30.5190509185"><ele>46.28</ele><time>2026-08-20T08:32:44Z</time></trkpt><trkpt lat="60.1142115891" lon="30.5192040559"><ele>45.32</ele><time>2026-08-20T08:32:53Z</time></trkpt><trkpt lat="60.1142048836" lon="30.5192779843"><ele>45.32</ele><time>2026-08-20T08:32:58Z</time></trkpt><trkpt lat="60.1142110862" lon="30.5193633959"><ele>45.32</ele><time>2026-08-20T08:33:02Z</time></trkpt><trkpt lat="60.1142353937" lon="30.5194439460"><ele>45.32</ele><time>2026-08-20T08:33:07Z</time></trkpt><trkpt lat="60.1142354775" lon="30.5194939859"><ele>45.32</ele><time>2026-08-20T08:33:09Z</time></trkpt><trkpt lat="60.1142093260" lon="30.5195978377"><ele>45.32</ele><time>2026-08-20T08:33:23Z</time></trkpt><trkpt lat="60.1142104995" lon="30.5196205527"><ele>45.32</ele><time>2026-08-20T08:33:40Z</time></trkpt><trkpt lat="60.1142256707" lon="30.5197147653"><ele>45.32</ele><time>2026-08-20T08:33:53Z</time></trkpt><trkpt lat="60.1142283529" lon="30.5197086465"><ele>46.28</ele><time>2026-08-20T08:34:09Z</time></trkpt><trkpt lat="60.1142335497" lon="30.5196993425"><ele>46.28</ele><time>2026-08-20T08:34:35Z</time></trkpt><trkpt lat="60.1142346393" lon="30.5196938943"><ele>46.76</ele><time>2026-08-20T08:35:10Z</time></trkpt><trkpt lat="60.1142494753" lon="30.5198599398"><ele>46.76</ele><time>2026-08-20T08:35:18Z</time></trkpt><trkpt lat="60.1142466255" lon="30.5199868418"><ele>46.76</ele><time>2026-08-20T08:35:30Z</time></trkpt><trkpt lat="60.1142681669" lon="30.5201381352"><ele>46.76</ele><time>2026-08-20T08:35:47Z</time></trkpt><trkpt lat="60.1142836735" lon="30.5202698149"><ele>45.32</ele><time>2026-08-20T08:36:00Z</time></trkpt><trkpt lat="60.1142939832" lon="30.5204876605"><ele>44.84</ele><time>2026-08-20T08:36:12Z</time></trkpt><trkpt lat="60.1142939832" lon="30.5205657799"><ele>44.84</ele><time>2026-08-20T08:36:16Z</time></trkpt><trkpt lat="60.1142980903" lon="30.5206352659"><ele>44.36</ele><time>2026-08-20T08:36:19Z</time></trkpt><trkpt lat="60.1142931450" lon="30.5207651015"><ele>44.36</ele><time>2026-08-20T08:36:31Z</time></trkpt><trkpt lat="60.1142930612" lon="30.5207770877"><ele>44.36</ele><time>2026-08-20T08:36:34Z</time></trkpt><trkpt lat="60.1142976712" lon="30.5208930094"><ele>43.88</ele><time>2026-08-20T08:36:41Z</time></trkpt><trkpt lat="60.1143036224" lon="30.5210725497"><ele>43.88</ele><time>2026-08-20T08:36:55Z</time></trkpt><trkpt lat="60.1143037900" lon="30.5211204104"><ele>43.88</ele><time>2026-08-20T08:37:12Z</time></trkpt><trkpt lat="60.1143108308" lon="30.5211140402"><ele>43.40</ele><time>2026-08-20T08:37:34Z</time></trkpt><trkpt lat="60.1143607870" lon="30.5210722145"><ele>43.40</ele><time>2026-08-20T08:37:50Z</time></trkpt><trkpt lat="60.1143710129" lon="30.5210602283"><ele>43.40</ele><time>2026-08-20T08:38:10Z</time></trkpt><trkpt lat="60.1144003496" lon="30.5210113619"><ele>42.92</ele><time>2026-08-20T08:38:28Z</time></trkpt><trkpt lat="60.1144924667" lon="30.5209226813"><ele>42.44</ele><time>2026-08-20T08:38:41Z</time></trkpt><trkpt lat="60.1145456918" lon="30.5208502617"><ele>41.95</ele><time>2026-08-20T08:38:53Z</time></trkpt><trkpt lat="60.1146758627" lon="30.5208420474"><ele>41.95</ele><time>2026-08-20T08:39:07Z</time></trkpt><trkpt lat="60.1147157606" lon="30.5208272953"><ele>41.95</ele><time>2026-08-20T08:39:22Z</time></trkpt><trkpt lat="60.1148058660" lon="30.5207363516"><ele>41.95</ele><time>2026-08-20T08:39:35Z</time></trkpt><trkpt lat="60.1148569118" lon="30.5206795223"><ele>41.47</ele><time>2026-08-20T08:39:51Z</time></trkpt><trkpt lat="60.1149476878" lon="30.5205392931"><ele>41.47</ele><time>2026-08-20T08:40:03Z</time></trkpt><trkpt lat="60.1150118094" lon="30.5204013269"><ele>42.92</ele><time>2026-08-20T08:40:17Z</time></trkpt><trkpt lat="60.1150144916" lon="30.5204038415"><ele>43.40</ele><time>2026-08-20T08:40:18Z</time></trkpt><trkpt lat="60.1150183473" lon="30.5202818848"><ele>44.36</ele><time>2026-08-20T08:40:32Z</time></trkpt><trkpt lat="60.1150444150" lon="30.5202661268"><ele>44.36</ele><time>2026-08-20T08:40:56Z</time></trkpt><trkpt lat="60.1150450017" lon="30.5202612653"><ele>43.40</ele><time>2026-08-20T08:41:14Z</time></trkpt><trkpt lat="60.1150503661" lon="30.5202559009"><ele>42.92</ele><time>2026-08-20T08:41:40Z</time></trkpt><trkpt lat="60.1150573231" lon="30.5200772826"><ele>42.92</ele><time>2026-08-20T08:41:53Z</time></trkpt><trkpt lat="60.1150524616" lon="30.5199922901"><ele>44.36</ele><time>2026-08-20T08:42:01Z</time></trkpt><trkpt lat="60.1150889229" lon="30.5198616162"><ele>45.32</ele><time>2026-08-20T08:42:17Z</time></trkpt><trkpt lat="60.1151576545" lon="30.5196596961"><ele>45.32</ele><time>2026-08-20T08:42:33Z</time></trkpt><trkpt lat="60.1152073592" lon="30.5195715185"><ele>46.28</ele><time>2026-08-20T08:42:48Z</time></trkpt><trkpt lat="60.1152536273" lon="30.5194516573"><ele>45.80</ele><time>2026-08-20T08:43:03Z</time></trkpt><trkpt lat="60.1152956206" lon="30.5192714464"><ele>46.28</ele><time>2026-08-20T08:43:18Z</time></trkpt><trkpt lat="60.1153338421" lon="30.5191698577"><ele>46.76</ele><time>2026-08-20T08:43:32Z</time></trkpt><trkpt lat="60.1153896656" lon="30.5189624894"><ele>46.76</ele><time>2026-08-20T08:43:45Z</time></trkpt><trkpt lat="60.1154011488" lon="30.5189437978"><ele>46.76</ele><time>2026-08-20T08:43:51Z</time></trkpt><trkpt lat="60.1153994724" lon="30.5187204201"><ele>46.76</ele><time>2026-08-20T08:44:07Z</time></trkpt><trkpt lat="60.1154012326" lon="30.5186366010"><ele>46.76</ele><time>2026-08-20T08:44:25Z</time></trkpt><trkpt lat="60.1153868157" lon="30.5184182525"><ele>46.76</ele><time>2026-08-20T08:44:42Z</time></trkpt><trkpt lat="60.1153654419" lon="30.5182531290"><ele>46.76</ele><time>2026-08-20T08:44:58Z</time></trkpt><trkpt lat="60.1153537072" lon="30.5181278195"><ele>46.76</ele><time>2026-08-20T08:45:14Z</time></trkpt><trkpt lat="60.1153027453" lon="30.5178989936"><ele>46.76</ele><time>2026-08-20T08:45:27Z</time></trkpt><trkpt lat="60.1152817067" lon="30.5177529808"><ele>46.76</ele><time>2026-08-20T08:45:40Z</time></trkpt><trkpt lat="60.1152350195" lon="30.5174591113"><ele>46.76</ele><time>2026-08-20T08:45:56Z</time></trkpt><trkpt lat="60.1152250450" lon="30.5173970852"><ele>46.76</ele><time>2026-08-20T08:46:15Z</time></trkpt><trkpt lat="60.1152156573" lon="30.5173732806"><ele>46.28</ele><time>2026-08-20T08:46:42Z</time></trkpt><trkpt lat="60.1152264699" lon="30.5173161160"><ele>46.28</ele><time>2026-08-20T08:47:07Z</time></trkpt><trkpt lat="60.1152656972" lon="30.5173035432"><ele>46.28</ele><time>2026-08-20T08:47:33Z</time></trkpt><trkpt lat="60.1152387913" lon="30.5171864480"><ele>46.28</ele><time>2026-08-20T08:47:58Z</time></trkpt><trkpt lat="60.1152585726" lon="30.5171652418"><ele>46.76</ele><time>2026-08-20T08:48:17Z</time></trkpt><trkpt lat="60.1152911782" lon="30.5171653256"><ele>46.76</ele><time>2026-08-20T08:48:22Z</time></trkpt><trkpt lat="60.1153551321" lon="30.5171560217"><ele>44.36</ele><time>2026-08-20T08:48:34Z</time></trkpt><trkpt lat="60.1153952815" lon="30.5171442032"><ele>43.40</ele><time>2026-08-20T08:48:46Z</time></trkpt><trkpt lat="60.1154104527" lon="30.5171457957"><ele>41.95</ele><time>2026-08-20T08:49:12Z</time></trkpt><trkpt lat="60.1154121291" lon="30.5171496514"><ele>41.47</ele><time>2026-08-20T08:49:36Z</time></trkpt><trkpt lat="60.1154221036" lon="30.5171478074"><ele>42.44</ele><time>2026-08-20T08:50:06Z</time></trkpt><trkpt lat="60.1153521147" lon="30.5171353184"><ele>42.92</ele><time>2026-08-20T08:50:20Z</time></trkpt><trkpt lat="60.1153475046" lon="30.5171451252"><ele>42.92</ele><time>2026-08-20T08:50:21Z</time></trkpt><trkpt lat="60.1152822096" lon="30.5171549320"><ele>46.28</ele><time>2026-08-20T08:50:30Z</time></trkpt><trkpt lat="60.1152323373" lon="30.5170722026"><ele>47.24</ele><time>2026-08-20T08:50:44Z</time></trkpt><trkpt lat="60.1151900087" lon="30.5168899801"><ele>47.24</ele><time>2026-08-20T08:50:58Z</time></trkpt><trkpt lat="60.1151715685" lon="30.5168343242"><ele>47.24</ele><time>2026-08-20T08:51:13Z</time></trkpt><trkpt lat="60.1151669584" lon="30.5168305524"><ele>47.24</ele><time>2026-08-20T08:51:34Z</time></trkpt><trkpt lat="60.1151538827" lon="30.5167909060"><ele>47.24</ele><time>2026-08-20T08:51:55Z</time></trkpt><trkpt lat="60.1151380409" lon="30.5165317375"><ele>47.24</ele><time>2026-08-20T08:52:06Z</time></trkpt><trkpt lat="60.1150677167" lon="30.5162735749"><ele>46.28</ele><time>2026-08-20T08:52:20Z</time></trkpt><trkpt lat="60.1150552277" lon="30.5161948688"><ele>46.28</ele><time>2026-08-20T08:52:33Z</time></trkpt><trkpt lat="60.1150538865" lon="30.5161620956"><ele>46.28</ele><time>2026-08-20T08:52:56Z</time></trkpt><trkpt lat="60.1150491089" lon="30.5161612574"><ele>46.76</ele><time>2026-08-20T08:53:19Z</time></trkpt><trkpt lat="60.1150655374" lon="30.5161600839"><ele>46.76</ele><time>2026-08-20T08:53:41Z</time></trkpt><trkpt lat="60.1150623523" lon="30.5161566474"><ele>45.32</ele><time>2026-08-20T08:53:50Z</time></trkpt><trkpt lat="60.1150726620" lon="30.5161750875"><ele>45.32</ele><time>2026-08-20T08:54:08Z</time></trkpt><trkpt lat="60.1150786970" lon="30.5161682144"><ele>45.32</ele><time>2026-08-20T08:54:38Z</time></trkpt><trkpt lat="60.1150789484" lon="30.5161631014"><ele>45.32</ele><time>2026-08-20T08:54:47Z</time></trkpt><trkpt lat="60.1150322612" lon="30.5159522966"><ele>45.32</ele><time>2026-08-20T08:55:00Z</time></trkpt><trkpt lat="60.1149696484" lon="30.5157361273"><ele>45.32</ele><time>2026-08-20T08:55:13Z</time></trkpt><trkpt lat="60.1149235480" lon="30.5155598558"><ele>44.36</ele><time>2026-08-20T08:55:28Z</time></trkpt><trkpt lat="60.1148977317" lon="30.5154194590"><ele>43.88</ele><time>2026-08-20T08:55:42Z</time></trkpt><trkpt lat="60.1148125716" lon="30.5152301118"><ele>43.88</ele><time>2026-08-20T08:55:57Z</time></trkpt><trkpt lat="60.1147768646" lon="30.5151276011"><ele>43.88</ele><time>2026-08-20T08:56:13Z</time></trkpt><trkpt lat="60.1147113182" lon="30.5149156228"><ele>43.40</ele><time>2026-08-20T08:56:29Z</time></trkpt><trkpt lat="60.1146653015" lon="30.5147467274"><ele>42.92</ele><time>2026-08-20T08:56:43Z</time></trkpt><trkpt lat="60.1146276668" lon="30.5145792570"><ele>42.44</ele><time>2026-08-20T08:56:56Z</time></trkpt><trkpt lat="60.1146052871" lon="30.5145366769"><ele>40.99</ele><time>2026-08-20T08:57:19Z</time></trkpt><trkpt lat="60.1146072149" lon="30.5144842062"><ele>40.99</ele><time>2026-08-20T08:57:49Z</time></trkpt><trkpt lat="60.1145997550" lon="30.5144598149"><ele>40.99</ele><time>2026-08-20T08:58:17Z</time></trkpt><trkpt lat="60.1145784650" lon="30.5143913347"><ele>40.99</ele><time>2026-08-20T08:58:34Z</time></trkpt><trkpt lat="60.1144750323" lon="30.5141881574"><ele>40.99</ele><time>2026-08-20T08:58:53Z</time></trkpt><trkpt lat="60.1144456957" lon="30.5141372792"><ele>40.99</ele><time>2026-08-20T08:59:10Z</time></trkpt><trkpt lat="60.1144396607" lon="30.5141178332"><ele>40.51</ele><time>2026-08-20T08:59:29Z</time></trkpt><trkpt lat="60.1143561769" lon="30.5139222834"><ele>40.51</ele><time>2026-08-20T08:59:43Z</time></trkpt><trkpt lat="60.1142299455" lon="30.5137201119"><ele>40.51</ele><time>2026-08-20T08:59:59Z</time></trkpt><trkpt lat="60.1141649857" lon="30.5136299226"><ele>40.51</ele><time>2026-08-20T09:00:19Z</time></trkpt><trkpt lat="60.1141656563" lon="30.5137171783"><ele>41.47</ele><time>2026-08-20T09:00:34Z</time></trkpt><trkpt lat="60.1141484734" lon="30.5137916096"><ele>42.44</ele><time>2026-08-20T09:00:47Z</time></trkpt><trkpt lat="60.1141447015" lon="30.5138082057"><ele>42.92</ele><time>2026-08-20T09:01:08Z</time></trkpt><trkpt lat="60.1141367387" lon="30.5138329323"><ele>43.40</ele><time>2026-08-20T09:01:30Z</time></trkpt><trkpt lat="60.1141351461" lon="30.5138543900"><ele>43.40</ele><time>2026-08-20T09:01:37Z</time></trkpt><trkpt lat="60.1140710246" lon="30.5140278116"><ele>43.40</ele><time>2026-08-20T09:01:50Z</time></trkpt><trkpt lat="60.1140054781" lon="30.5141277239"><ele>43.88</ele><time>2026-08-20T09:02:02Z</time></trkpt><trkpt lat="60.1139336452" lon="30.5142254569"><ele>43.88</ele><time>2026-08-20T09:02:09Z</time></trkpt><trkpt lat="60.1138338167" lon="30.5142844655"><ele>43.88</ele><time>2026-08-20T09:02:21Z</time></trkpt><trkpt lat="60.1138111018" lon="30.5142882373"><ele>43.88</ele><time>2026-08-20T09:02:23Z</time></trkpt><trkpt lat="60.1137946732" lon="30.5141523667"><ele>43.88</ele><time>2026-08-20T09:02:34Z</time></trkpt><trkpt lat="60.1137859561" lon="30.5139284022"><ele>43.88</ele><time>2026-08-20T09:02:47Z</time></trkpt><trkpt lat="60.1137555297" lon="30.5137074552"><ele>43.88</ele><time>2026-08-20T09:02:59Z</time></trkpt><trkpt lat="60.1137422863" lon="30.5136559904"><ele>43.88</ele><time>2026-08-20T09:03:02Z</time></trkpt><trkpt lat="60.1136915758" lon="30.5133576784"><ele>43.88</ele><time>2026-08-20T09:03:16Z</time></trkpt><trkpt lat="60.1136870496" lon="30.5133409146"><ele>43.88</ele><time>2026-08-20T09:03:17Z</time></trkpt><trkpt lat="60.1136620715" lon="30.5132169463"><ele>43.88</ele><time>2026-08-20T09:03:24Z</time></trkpt><trkpt lat="60.1136532705" lon="30.5130125117"><ele>43.88</ele><time>2026-08-20T09:03:35Z</time></trkpt><trkpt lat="60.1136301365" lon="30.5129575264"><ele>42.44</ele><time>2026-08-20T09:04:00Z</time></trkpt><trkpt lat="60.1136131212" lon="30.5127675924"><ele>42.44</ele><time>2026-08-20T09:04:12Z</time></trkpt><trkpt lat="60.1136096846" lon="30.5126564484"><ele>41.95</ele><time>2026-08-20T09:04:25Z</time></trkpt><trkpt lat="60.1135868020" lon="30.5125097651"><ele>41.95</ele><time>2026-08-20T09:04:37Z</time></trkpt><trkpt lat="60.1135760732" lon="30.5124795903"><ele>41.95</ele><time>2026-08-20T09:04:39Z</time></trkpt><trkpt lat="60.1135511789" lon="30.5124108586"><ele>41.47</ele><time>2026-08-20T09:04:43Z</time></trkpt><trkpt lat="60.1134825312" lon="30.5121759139"><ele>40.51</ele><time>2026-08-20T09:04:58Z</time></trkpt><trkpt lat="60.1134428848" lon="30.5120326672"><ele>39.07</ele><time>2026-08-20T09:05:12Z</time></trkpt><trkpt lat="60.1134053338" lon="30.5119250435"><ele>38.59</ele><time>2026-08-20T09:05:23Z</time></trkpt><trkpt lat="60.1133307349" lon="30.5117641948"><ele>38.11</ele><time>2026-08-20T09:05:34Z</time></trkpt><trkpt lat="60.1132806111" lon="30.5116460938"><ele>38.11</ele><time>2026-08-20T09:05:44Z</time></trkpt><trkpt lat="60.1131946128" lon="30.5115366261"><ele>38.11</ele><time>2026-08-20T09:05:59Z</time></trkpt><trkpt lat="60.1131708082" lon="30.5115200300"><ele>39.07</ele><time>2026-08-20T09:06:03Z</time></trkpt><trkpt lat="60.1130802836" lon="30.5114353728"><ele>39.07</ele><time>2026-08-20T09:06:10Z</time></trkpt><trkpt lat="60.1130120549" lon="30.5112821516"><ele>39.07</ele><time>2026-08-20T09:06:23Z</time></trkpt><trkpt lat="60.1129953749" lon="30.5112420861"><ele>38.11</ele><time>2026-08-20T09:06:47Z</time></trkpt><trkpt lat="60.1129920222" lon="30.5112431757"><ele>38.11</ele><time>2026-08-20T09:07:08Z</time></trkpt><trkpt lat="60.1129899267" lon="30.5112480372"><ele>37.63</ele><time>2026-08-20T09:07:25Z</time></trkpt><trkpt lat="60.1130060200" lon="30.5113337003"><ele>37.63</ele><time>2026-08-20T09:07:29Z</time></trkpt><trkpt lat="60.1130162459" lon="30.5116253067"><ele>37.63</ele><time>2026-08-20T09:07:41Z</time></trkpt><trkpt lat="60.1130361948" lon="30.5119464174"><ele>39.07</ele><time>2026-08-20T09:07:53Z</time></trkpt><trkpt lat="60.1130423136" lon="30.5119722337"><ele>39.07</ele><time>2026-08-20T09:07:54Z</time></trkpt><trkpt lat="60.1130491868" lon="30.5122134648"><ele>39.55</ele><time>2026-08-20T09:08:03Z</time></trkpt><trkpt lat="60.1130641066" lon="30.5126187298"><ele>40.03</ele><time>2026-08-20T09:08:19Z</time></trkpt><trkpt lat="60.1130944490" lon="30.5129214004"><ele>40.51</ele><time>2026-08-20T09:08:32Z</time></trkpt><trkpt lat="60.1131189242" lon="30.5131774675"><ele>40.51</ele><time>2026-08-20T09:08:43Z</time></trkpt><trkpt lat="60.1131180022" lon="30.5132042896"><ele>40.51</ele><time>2026-08-20T09:08:44Z</time></trkpt><trkpt lat="60.1131166611" lon="30.5132531561"><ele>40.51</ele><time>2026-08-20T09:08:46Z</time></trkpt><trkpt lat="60.1131199300" lon="30.5132780503"><ele>40.51</ele><time>2026-08-20T09:08:47Z</time></trkpt><trkpt lat="60.1131243724" lon="30.5133023579"><ele>40.51</ele><time>2026-08-20T09:08:48Z</time></trkpt><trkpt lat="60.1131257135" lon="30.5133290123"><ele>40.51</ele><time>2026-08-20T09:08:49Z</time></trkpt><trkpt lat="60.1131260488" lon="30.5133608636"><ele>40.99</ele><time>2026-08-20T09:08:50Z</time></trkpt><trkpt lat="60.1131349336" lon="30.5135810561"><ele>40.99</ele><time>2026-08-20T09:09:01Z</time></trkpt><trkpt lat="60.1131641865" lon="30.5138119776"><ele>41.47</ele><time>2026-08-20T09:09:12Z</time></trkpt><trkpt lat="60.1131677907" lon="30.5138626881"><ele>41.47</ele><time>2026-08-20T09:09:14Z</time></trkpt><trkpt lat="60.1131671201" lon="30.5138887558"><ele>41.47</ele><time>2026-08-20T09:09:15Z</time></trkpt><trkpt lat="60.1131913438" lon="30.5141550489"><ele>41.47</ele><time>2026-08-20T09:09:27Z</time></trkpt><trkpt lat="60.1131918468" lon="30.5143661890"><ele>41.95</ele><time>2026-08-20T09:09:39Z</time></trkpt><trkpt lat="60.1131990552" lon="30.5144541990"><ele>41.95</ele><time>2026-08-20T09:09:44Z</time></trkpt><trkpt lat="60.1132073533" lon="30.5144832842"><ele>41.95</ele><time>2026-08-20T09:09:45Z</time></trkpt><trkpt lat="60.1132215187" lon="30.5146914069"><ele>41.47</ele><time>2026-08-20T09:09:55Z</time></trkpt><trkpt lat="60.1132227760" lon="30.5147664249"><ele>41.47</ele><time>2026-08-20T09:09:57Z</time></trkpt><trkpt lat="60.1132534537" lon="30.5150464643"><ele>41.47</ele><time>2026-08-20T09:10:09Z</time></trkpt><trkpt lat="60.1132626738" lon="30.5152423494"><ele>41.95</ele><time>2026-08-20T09:10:20Z</time></trkpt><trkpt lat="60.1132785995" lon="30.5154439341"><ele>41.95</ele><time>2026-08-20T09:10:29Z</time></trkpt><trkpt lat="60.1132883225" lon="30.5155763682"><ele>41.95</ele><time>2026-08-20T09:10:35Z</time></trkpt><trkpt lat="60.1132911723" lon="30.5156381428"><ele>41.95</ele><time>2026-08-20T09:10:38Z</time></trkpt><trkpt lat="60.1133005600" lon="30.5157388933"><ele>41.95</ele><time>2026-08-20T09:10:43Z</time></trkpt><trkpt lat="60.1133029908" lon="30.5157699902"><ele>41.95</ele><time>2026-08-20T09:10:44Z</time></trkpt><trkpt lat="60.1133054215" lon="30.5158067029"><ele>41.95</ele><time>2026-08-20T09:10:45Z</time></trkpt><trkpt lat="60.1133035775" lon="30.5158885103"><ele>41.95</ele><time>2026-08-20T09:10:48Z</time></trkpt><trkpt lat="60.1133040804" lon="30.5159243010"><ele>41.95</ele><time>2026-08-20T09:10:49Z</time></trkpt><trkpt lat="60.1133153122" lon="30.5160984769"><ele>41.47</ele><time>2026-08-20T09:10:58Z</time></trkpt><trkpt lat="60.1133517735" lon="30.5163381156"><ele>41.47</ele><time>2026-08-20T09:11:09Z</time></trkpt><trkpt lat="60.1133511867" lon="30.5163675360"><ele>41.47</ele><time>2026-08-20T09:11:10Z</time></trkpt><trkpt lat="60.1133514382" lon="30.5165272113"><ele>41.47</ele><time>2026-08-20T09:11:19Z</time></trkpt><trkpt lat="60.1133687049" lon="30.5167342443"><ele>41.47</ele><time>2026-08-20T09:11:35Z</time></trkpt><trkpt lat="60.1133856364" lon="30.5168516748"><ele>41.47</ele><time>2026-08-20T09:11:40Z</time></trkpt><trkpt lat="60.1134037413" lon="30.5170023814"><ele>41.47</ele><time>2026-08-20T09:11:49Z</time></trkpt><trkpt lat="60.1134723052" lon="30.5172891263"><ele>40.99</ele><time>2026-08-20T09:12:03Z</time></trkpt><trkpt lat="60.1134915836" lon="30.5174152739"><ele>40.99</ele><time>2026-08-20T09:12:08Z</time></trkpt><trkpt lat="60.1134932600" lon="30.5174493883"><ele>40.99</ele><time>2026-08-20T09:12:09Z</time></trkpt><trkpt lat="60.1135220099" lon="30.5176440161"><ele>40.99</ele><time>2026-08-20T09:12:18Z</time></trkpt><trkpt lat="60.1135391090" lon="30.5178644601"><ele>40.99</ele><time>2026-08-20T09:12:26Z</time></trkpt><trkpt lat="60.1135419589" lon="30.5178958923"><ele>40.99</ele><time>2026-08-20T09:12:27Z</time></trkpt><trkpt lat="60.1135354210" lon="30.5179258157"><ele>40.99</ele><time>2026-08-20T09:12:28Z</time></trkpt><trkpt lat="60.1135303080" lon="30.5179598462"><ele>40.99</ele><time>2026-08-20T09:12:29Z</time></trkpt><trkpt lat="60.1135314815" lon="30.5179946311"><ele>40.99</ele><time>2026-08-20T09:12:30Z</time></trkpt><trkpt lat="60.1135322358" lon="30.5180293322"><ele>40.99</ele><time>2026-08-20T09:12:31Z</time></trkpt><trkpt lat="60.1135361753" lon="30.5182872433"><ele>40.99</ele><time>2026-08-20T09:12:40Z</time></trkpt><trkpt lat="60.1135464851" lon="30.5184490979"><ele>40.99</ele><time>2026-08-20T09:12:46Z</time></trkpt><trkpt lat="60.1135647576" lon="30.5185756646"><ele>40.99</ele><time>2026-08-20T09:12:56Z</time></trkpt><trkpt lat="60.1135638356" lon="30.5186198372"><ele>40.99</ele><time>2026-08-20T09:13:00Z</time></trkpt><trkpt lat="60.1135739777" lon="30.5186264589"><ele>40.99</ele><time>2026-08-20T09:13:01Z</time></trkpt><trkpt lat="60.1135837007" lon="30.5186438095"><ele>40.99</ele><time>2026-08-20T09:13:02Z</time></trkpt><trkpt lat="60.1135935914" lon="30.5186568853"><ele>40.99</ele><time>2026-08-20T09:13:03Z</time></trkpt><trkpt lat="60.1136012189" lon="30.5186751578"><ele>40.99</ele><time>2026-08-20T09:13:04Z</time></trkpt><trkpt lat="60.1136054099" lon="30.5187046621"><ele>40.99</ele><time>2026-08-20T09:13:05Z</time></trkpt><trkpt lat="60.1136071701" lon="30.5187350884"><ele>40.99</ele><time>2026-08-20T09:13:06Z</time></trkpt><trkpt lat="60.1136127859" lon="30.5187574681"><ele>40.99</ele><time>2026-08-20T09:13:07Z</time></trkpt><trkpt lat="60.1136156358" lon="30.5187813565"><ele>40.99</ele><time>2026-08-20T09:13:08Z</time></trkpt><trkpt lat="60.1136328187" lon="30.5189657584"><ele>40.99</ele><time>2026-08-20T09:13:16Z</time></trkpt><trkpt lat="60.1136364229" lon="30.5189903174"><ele>40.99</ele><time>2026-08-20T09:13:17Z</time></trkpt><trkpt lat="60.1136485767" lon="30.5192856118"><ele>40.99</ele><time>2026-08-20T09:13:29Z</time></trkpt><trkpt lat="60.1136432122" lon="30.5195901264"><ele>41.47</ele><time>2026-08-20T09:13:41Z</time></trkpt><trkpt lat="60.1136358362" lon="30.5198995024"><ele>41.95</ele><time>2026-08-20T09:13:53Z</time></trkpt><trkpt lat="60.1135624945" lon="30.5200898554"><ele>41.95</ele><time>2026-08-20T09:14:04Z</time></trkpt><trkpt lat="60.1134226006" lon="30.5201574974"><ele>41.95</ele><time>2026-08-20T09:14:17Z</time></trkpt><trkpt lat="60.1132871490" lon="30.5202253070"><ele>41.95</ele><time>2026-08-20T09:14:28Z</time></trkpt><trkpt lat="60.1132384501" lon="30.5202605110"><ele>41.95</ele><time>2026-08-20T09:14:32Z</time></trkpt><trkpt lat="60.1131223608" lon="30.5203501135"><ele>41.47</ele><time>2026-08-20T09:14:44Z</time></trkpt><trkpt lat="60.1130252145" lon="30.5204273947"><ele>41.47</ele><time>2026-08-20T09:14:56Z</time></trkpt><trkpt lat="60.1129828859" lon="30.5204822961"><ele>41.47</ele><time>2026-08-20T09:14:59Z</time></trkpt><trkpt lat="60.1128487755" lon="30.5206197593"><ele>41.47</ele><time>2026-08-20T09:15:12Z</time></trkpt><trkpt lat="60.1128030103" lon="30.5206627585"><ele>41.47</ele><time>2026-08-20T09:15:19Z</time></trkpt><trkpt lat="60.1127518807" lon="30.5207141396"><ele>41.47</ele><time>2026-08-20T09:15:23Z</time></trkpt><trkpt lat="60.1127035171" lon="30.5207464099"><ele>41.47</ele><time>2026-08-20T09:15:27Z</time></trkpt><trkpt lat="60.1125692390" lon="30.5208971165"><ele>41.47</ele><time>2026-08-20T09:15:41Z</time></trkpt><trkpt lat="60.1125274133" lon="30.5209610704"><ele>40.99</ele><time>2026-08-20T09:15:54Z</time></trkpt><trkpt lat="60.1124808937" lon="30.5209821928"><ele>40.99</ele><time>2026-08-20T09:15:58Z</time></trkpt><trkpt lat="60.1124133356" lon="30.5210338254"><ele>40.99</ele><time>2026-08-20T09:16:04Z</time></trkpt><trkpt lat="60.1122591924" lon="30.5211230926"><ele>40.03</ele><time>2026-08-20T09:16:15Z</time></trkpt><trkpt lat="60.1121871080" lon="30.5210163072"><ele>40.03</ele><time>2026-08-20T09:16:26Z</time></trkpt><trkpt lat="60.1121436898" lon="30.5207904149"><ele>39.55</ele><time>2026-08-20T09:16:41Z</time></trkpt><trkpt lat="60.1121443603" lon="30.5207865592"><ele>39.55</ele><time>2026-08-20T09:17:07Z</time></trkpt><trkpt lat="60.1121460367" lon="30.5207898282"><ele>39.55</ele><time>2026-08-20T09:17:35Z</time></trkpt><trkpt lat="60.1121475454" lon="30.5208113696"><ele>39.55</ele><time>2026-08-20T09:17:59Z</time></trkpt><trkpt lat="60.1121589448" lon="30.5209047440"><ele>39.55</ele><time>2026-08-20T09:18:11Z</time></trkpt><trkpt lat="60.1121615432" lon="30.5209134612"><ele>39.07</ele><time>2026-08-20T09:18:29Z</time></trkpt><trkpt lat="60.1121627167" lon="30.5209166463"><ele>39.07</ele><time>2026-08-20T09:19:01Z</time></trkpt><trkpt lat="60.1121647283" lon="30.5209392775"><ele>39.07</ele><time>2026-08-20T09:19:20Z</time></trkpt><trkpt lat="60.1121747028" lon="30.5211049877"><ele>39.07</ele><time>2026-08-20T09:19:30Z</time></trkpt><trkpt lat="60.1120203920" lon="30.5212738831"><ele>39.07</ele><time>2026-08-20T09:19:45Z</time></trkpt><trkpt lat="60.1119791530" lon="30.5213164631"><ele>39.07</ele><time>2026-08-20T09:19:49Z</time></trkpt><trkpt lat="60.1119312085" lon="30.5213397648"><ele>39.07</ele><time>2026-08-20T09:19:53Z</time></trkpt><trkpt lat="60.1117430348" lon="30.5215164553"><ele>39.07</ele><time>2026-08-20T09:20:10Z</time></trkpt><trkpt lat="60.1116295438" lon="30.5216233246"><ele>39.07</ele><time>2026-08-20T09:20:22Z</time></trkpt><trkpt lat="60.1115790848" lon="30.5217213091"><ele>39.07</ele><time>2026-08-20T09:20:34Z</time></trkpt><trkpt lat="60.1115768217" lon="30.5217329599"><ele>39.07</ele><time>2026-08-20T09:21:01Z</time></trkpt><trkpt lat="60.1115154661" lon="30.5217200518"><ele>39.07</ele><time>2026-08-20T09:21:10Z</time></trkpt><trkpt lat="60.1113891508" lon="30.5217826646"><ele>39.07</ele><time>2026-08-20T09:21:22Z</time></trkpt><trkpt lat="60.1112394501" lon="30.5218962394"><ele>38.11</ele><time>2026-08-20T09:21:36Z</time></trkpt><trkpt lat="60.1111403760" lon="30.5220280029"><ele>38.11</ele><time>2026-08-20T09:21:46Z</time></trkpt><trkpt lat="60.1111155655" lon="30.5220505502"><ele>38.11</ele><time>2026-08-20T09:21:48Z</time></trkpt><trkpt lat="60.1109753363" lon="30.5221460201"><ele>37.63</ele><time>2026-08-20T09:22:01Z</time></trkpt><trkpt lat="60.1108945347" lon="30.5221996643"><ele>37.15</ele><time>2026-08-20T09:22:13Z</time></trkpt><trkpt lat="60.1108609233" lon="30.5222317670"><ele>37.15</ele><time>2026-08-20T09:22:15Z</time></trkpt><trkpt lat="60.1106813829" lon="30.5223716609"><ele>37.15</ele><time>2026-08-20T09:22:28Z</time></trkpt><trkpt lat="60.1105248090" lon="30.5224926956"><ele>36.67</ele><time>2026-08-20T09:22:40Z</time></trkpt><trkpt lat="60.1104687341" lon="30.5225329287"><ele>36.67</ele><time>2026-08-20T09:22:44Z</time></trkpt><trkpt lat="60.1103282534" lon="30.5226579867"><ele>36.19</ele><time>2026-08-20T09:22:57Z</time></trkpt><trkpt lat="60.1102694124" lon="30.5227382854"><ele>36.19</ele><time>2026-08-20T09:23:33Z</time></trkpt><trkpt lat="60.1101541612" lon="30.5227874871"><ele>36.19</ele><time>2026-08-20T09:23:46Z</time></trkpt><trkpt lat="60.1100186259" lon="30.5228964519"><ele>35.71</ele><time>2026-08-20T09:23:59Z</time></trkpt><trkpt lat="60.1099498104" lon="30.5230248626"><ele>34.74</ele><time>2026-08-20T09:24:12Z</time></trkpt><trkpt lat="60.1099455357" lon="30.5230317358"><ele>35.23</ele><time>2026-08-20T09:24:37Z</time></trkpt><trkpt lat="60.1099374052" lon="30.5230388604"><ele>35.23</ele><time>2026-08-20T09:24:48Z</time></trkpt><trkpt lat="60.1099167019" lon="30.5230785068"><ele>35.23</ele><time>2026-08-20T09:24:59Z</time></trkpt><trkpt lat="60.1098968368" lon="30.5231127050"><ele>35.23</ele><time>2026-08-20T09:25:30Z</time></trkpt><trkpt lat="60.1098942384" lon="30.5231070053"><ele>35.23</ele><time>2026-08-20T09:25:50Z</time></trkpt><trkpt lat="60.1098643150" lon="30.5231517646"><ele>35.23</ele><time>2026-08-20T09:26:17Z</time></trkpt><trkpt lat="60.1098467130" lon="30.5231888965"><ele>35.23</ele><time>2026-08-20T09:26:36Z</time></trkpt><trkpt lat="60.1097963378" lon="30.5232547782"><ele>35.23</ele><time>2026-08-20T09:26:44Z</time></trkpt><trkpt lat="60.1097171288" lon="30.5233670957"><ele>35.23</ele><time>2026-08-20T09:26:53Z</time></trkpt><trkpt lat="60.1096999459" lon="30.5234036408"><ele>34.26</ele><time>2026-08-20T09:26:55Z</time></trkpt><trkpt lat="60.1095961779" lon="30.5236509908"><ele>33.78</ele><time>2026-08-20T09:27:08Z</time></trkpt><trkpt lat="60.1094979420" lon="30.5238647293"><ele>33.78</ele><time>2026-08-20T09:27:21Z</time></trkpt><trkpt lat="60.1093452238" lon="30.5242088065"><ele>33.78</ele><time>2026-08-20T09:27:34Z</time></trkpt><trkpt lat="60.1093347464" lon="30.5242395680"><ele>33.78</ele><time>2026-08-20T09:27:35Z</time></trkpt><trkpt lat="60.1092519332" lon="30.5246048514"><ele>33.30</ele><time>2026-08-20T09:27:48Z</time></trkpt><trkpt lat="60.1092469040" lon="30.5246642791"><ele>33.30</ele><time>2026-08-20T09:27:50Z</time></trkpt><trkpt lat="60.1092048269" lon="30.5249276385"><ele>33.30</ele><time>2026-08-20T09:28:00Z</time></trkpt><trkpt lat="60.1091991272" lon="30.5250512715"><ele>33.30</ele><time>2026-08-20T09:28:04Z</time></trkpt><trkpt lat="60.1091566309" lon="30.5252453964"><ele>32.82</ele><time>2026-08-20T09:28:12Z</time></trkpt><trkpt lat="60.1091035735" lon="30.5254353303"><ele>32.82</ele><time>2026-08-20T09:28:20Z</time></trkpt><trkpt lat="60.1090994664" lon="30.5255240109"><ele>32.82</ele><time>2026-08-20T09:28:23Z</time></trkpt><trkpt lat="60.1090758294" lon="30.5256072432"><ele>32.82</ele><time>2026-08-20T09:28:26Z</time></trkpt><trkpt lat="60.1090625022" lon="30.5258921441"><ele>31.86</ele><time>2026-08-20T09:28:39Z</time></trkpt><trkpt lat="60.1090397872" lon="30.5260161124"><ele>31.86</ele><time>2026-08-20T09:28:44Z</time></trkpt><trkpt lat="60.1089884900" lon="30.5262654740"><ele>31.86</ele><time>2026-08-20T09:28:55Z</time></trkpt><trkpt lat="60.1089796051" lon="30.5265300907"><ele>31.38</ele><time>2026-08-20T09:29:05Z</time></trkpt><trkpt lat="60.1089611650" lon="30.5266610999"><ele>31.38</ele><time>2026-08-20T09:29:09Z</time></trkpt><trkpt lat="60.1089666970" lon="30.5268305819"><ele>30.90</ele><time>2026-08-20T09:29:16Z</time></trkpt><trkpt lat="60.1089697145" lon="30.5268857349"><ele>30.90</ele><time>2026-08-20T09:29:18Z</time></trkpt><trkpt lat="60.1089642663" lon="30.5270238686"><ele>30.90</ele><time>2026-08-20T09:29:24Z</time></trkpt><trkpt lat="60.1088897511" lon="30.5272935983"><ele>30.42</ele><time>2026-08-20T09:29:37Z</time></trkpt><trkpt lat="60.1088941935" lon="30.5274938419"><ele>30.42</ele><time>2026-08-20T09:29:48Z</time></trkpt><trkpt lat="60.1089085266" lon="30.5275400262"><ele>30.42</ele><time>2026-08-20T09:30:07Z</time></trkpt><trkpt lat="60.1089160703" lon="30.5275646690"><ele>29.94</ele><time>2026-08-20T09:30:25Z</time></trkpt><trkpt lat="60.1089069340" lon="30.5276714545"><ele>29.94</ele><time>2026-08-20T09:30:31Z</time></trkpt><trkpt lat="60.1088868175" lon="30.5279869493"><ele>30.90</ele><time>2026-08-20T09:30:43Z</time></trkpt><trkpt lat="60.1088661980" lon="30.5283410009"><ele>30.90</ele><time>2026-08-20T09:30:57Z</time></trkpt><trkpt lat="60.1088669524" lon="30.5283619557"><ele>30.90</ele><time>2026-08-20T09:30:58Z</time></trkpt><trkpt lat="60.1088325866" lon="30.5286661349"><ele>31.38</ele><time>2026-08-20T09:31:12Z</time></trkpt><trkpt lat="60.1088237017" lon="30.5287568271"><ele>31.38</ele><time>2026-08-20T09:31:15Z</time></trkpt><trkpt lat="60.1088107936" lon="30.5290729925"><ele>31.38</ele><time>2026-08-20T09:31:28Z</time></trkpt><trkpt lat="60.1087777689" lon="30.5293892417"><ele>31.38</ele><time>2026-08-20T09:31:38Z</time></trkpt><trkpt lat="60.1087798644" lon="30.5294791795"><ele>31.38</ele><time>2026-08-20T09:31:42Z</time></trkpt><trkpt lat="60.1087650284" lon="30.5296464823"><ele>31.38</ele><time>2026-08-20T09:31:48Z</time></trkpt><trkpt lat="60.1087669563" lon="30.5297857895"><ele>31.38</ele><time>2026-08-20T09:31:53Z</time></trkpt><trkpt lat="60.1087504439" lon="30.5298624001"><ele>31.38</ele><time>2026-08-20T09:31:57Z</time></trkpt><trkpt lat="60.1087351888" lon="30.5300507415"><ele>31.38</ele><time>2026-08-20T09:32:08Z</time></trkpt><trkpt lat="60.1087361109" lon="30.5303493049"><ele>31.38</ele><time>2026-08-20T09:32:23Z</time></trkpt><trkpt lat="60.1087314170" lon="30.5304332078"><ele>31.38</ele><time>2026-08-20T09:32:27Z</time></trkpt><trkpt lat="60.1086817123" lon="30.5306790490"><ele>31.38</ele><time>2026-08-20T09:32:40Z</time></trkpt><trkpt lat="60.1086630207" lon="30.5308050290"><ele>31.38</ele><time>2026-08-20T09:32:51Z</time></trkpt><trkpt lat="60.1086839754" lon="30.5309804622"><ele>31.38</ele><time>2026-08-20T09:33:00Z</time></trkpt><trkpt lat="60.1087833010" lon="30.5311457533"><ele>31.38</ele><time>2026-08-20T09:33:14Z</time></trkpt><trkpt lat="60.1088584028" lon="30.5311828014"><ele>31.86</ele><time>2026-08-20T09:33:29Z</time></trkpt><trkpt lat="60.1088638511" lon="30.5311560631"><ele>32.34</ele><time>2026-08-20T09:33:59Z</time></trkpt><trkpt lat="60.1088832971" lon="30.5311066937"><ele>32.34</ele><time>2026-08-20T09:34:27Z</time></trkpt><trkpt lat="60.1088816207" lon="30.5311007425"><ele>32.34</ele><time>2026-08-20T09:34:53Z</time></trkpt><trkpt lat="60.1088749152" lon="30.5311065260"><ele>32.34</ele><time>2026-08-20T09:35:12Z</time></trkpt><trkpt lat="60.1088690478" lon="30.5310914386"><ele>32.82</ele><time>2026-08-20T09:35:42Z</time></trkpt><trkpt lat="60.1088645216" lon="30.5310753454"><ele>32.82</ele><time>2026-08-20T09:36:10Z</time></trkpt><trkpt lat="60.1088667009" lon="30.5310750101"><ele>32.82</ele><time>2026-08-20T09:36:30Z</time></trkpt><trkpt lat="60.1089433953" lon="30.5310077872"><ele>33.30</ele><time>2026-08-20T09:36:43Z</time></trkpt><trkpt lat="60.1089851372" lon="30.5309813842"><ele>36.67</ele><time>2026-08-20T09:36:50Z</time></trkpt><trkpt lat="60.1090155635" lon="30.5309656262"><ele>39.55</ele><time>2026-08-20T09:36:56Z</time></trkpt><trkpt lat="60.1090604905" lon="30.5309402291"><ele>38.11</ele><time>2026-08-20T09:37:16Z</time></trkpt><trkpt lat="60.1090537850" lon="30.5309361219"><ele>37.63</ele><time>2026-08-20T09:37:39Z</time></trkpt><trkpt lat="60.1090742368" lon="30.5309299193"><ele>37.63</ele><time>2026-08-20T09:38:08Z</time></trkpt><trkpt lat="60.1090615802" lon="30.5309348647"><ele>37.63</ele><time>2026-08-20T09:38:20Z</time></trkpt><trkpt lat="60.1090505160" lon="30.5309357028"><ele>37.63</ele><time>2026-08-20T09:38:46Z</time></trkpt><trkpt lat="60.1090345066" lon="30.5309482757"><ele>37.63</ele><time>2026-08-20T09:38:52Z</time></trkpt><trkpt lat="60.1089728996" lon="30.5310115591"><ele>36.19</ele><time>2026-08-20T09:39:02Z</time></trkpt><trkpt lat="60.1089277212" lon="30.5310942885"><ele>34.26</ele><time>2026-08-20T09:39:11Z</time></trkpt><trkpt lat="60.1089619193" lon="30.5312383734"><ele>33.78</ele><time>2026-08-20T09:39:19Z</time></trkpt><trkpt lat="60.1089943573" lon="30.5314503517"><ele>33.78</ele><time>2026-08-20T09:39:32Z</time></trkpt><trkpt lat="60.1089962851" lon="30.5314669479"><ele>33.78</ele><time>2026-08-20T09:39:33Z</time></trkpt><trkpt lat="60.1090173237" lon="30.5315262079"><ele>33.78</ele><time>2026-08-20T09:39:39Z</time></trkpt><trkpt lat="60.1090337522" lon="30.5316060875"><ele>33.78</ele><time>2026-08-20T09:39:49Z</time></trkpt><trkpt lat="60.1090342551" lon="30.5316144694"><ele>33.78</ele><time>2026-08-20T09:39:51Z</time></trkpt><trkpt lat="60.1090577245" lon="30.5318002962"><ele>35.23</ele><time>2026-08-20T09:40:04Z</time></trkpt><trkpt lat="60.1090619154" lon="30.5317947641"><ele>35.23</ele><time>2026-08-20T09:40:16Z</time></trkpt><trkpt lat="60.1092431322" lon="30.5316421296"><ele>35.71</ele><time>2026-08-20T09:40:29Z</time></trkpt><trkpt lat="60.1094489079" lon="30.5313382857"><ele>35.71</ele><time>2026-08-20T09:40:44Z</time></trkpt><trkpt lat="60.1094943378" lon="30.5312682968"><ele>36.19</ele><time>2026-08-20T09:40:49Z</time></trkpt><trkpt lat="60.1095816772" lon="30.5311610084"><ele>36.19</ele><time>2026-08-20T09:41:00Z</time></trkpt><trkpt lat="60.1096121036" lon="30.5310992338"><ele>36.19</ele><time>2026-08-20T09:41:04Z</time></trkpt><trkpt lat="60.1096772309" lon="30.5309590884"><ele>36.19</ele><time>2026-08-20T09:41:13Z</time></trkpt><trkpt lat="60.1096834335" lon="30.5307532288"><ele>36.19</ele><time>2026-08-20T09:41:25Z</time></trkpt><trkpt lat="60.1096457988" lon="30.5305896141"><ele>36.19</ele><time>2026-08-20T09:41:38Z</time></trkpt><trkpt lat="60.1095973514" lon="30.5303754564"><ele>37.15</ele><time>2026-08-20T09:41:50Z</time></trkpt><trkpt lat="60.1095548552" lon="30.5302203074"><ele>37.15</ele><time>2026-08-20T09:42:03Z</time></trkpt><trkpt lat="60.1095535979" lon="30.5302202236"><ele>37.63</ele><time>2026-08-20T09:42:13Z</time></trkpt><trkpt lat="60.1095266081" lon="30.5300248414"><ele>37.63</ele><time>2026-08-20T09:42:22Z</time></trkpt><trkpt lat="60.1095758937" lon="30.5299399327"><ele>37.63</ele><time>2026-08-20T09:42:37Z</time></trkpt><trkpt lat="60.1095790789" lon="30.5299395137"><ele>37.63</ele><time>2026-08-20T09:42:53Z</time></trkpt><trkpt lat="60.1096079126" lon="30.5298885517"><ele>37.63</ele><time>2026-08-20T09:43:04Z</time></trkpt><trkpt lat="60.1096093375" lon="30.5298841093"><ele>36.67</ele><time>2026-08-20T09:43:20Z</time></trkpt><trkpt lat="60.1096095052" lon="30.5298739672"><ele>36.67</ele><time>2026-08-20T09:43:42Z</time></trkpt><trkpt lat="60.1096076611" lon="30.5298641603"><ele>36.67</ele><time>2026-08-20T09:44:10Z</time></trkpt><trkpt lat="60.1096228324" lon="30.5298864562"><ele>36.67</ele><time>2026-08-20T09:44:27Z</time></trkpt><trkpt lat="60.1096692681" lon="30.5299832672"><ele>36.67</ele><time>2026-08-20T09:44:37Z</time></trkpt><trkpt lat="60.1097379159" lon="30.5301322136"><ele>36.67</ele><time>2026-08-20T09:44:50Z</time></trkpt><trkpt lat="60.1097869501" lon="30.5302685034"><ele>36.67</ele><time>2026-08-20T09:45:03Z</time></trkpt><trkpt lat="60.1098709367" lon="30.5304704234"><ele>36.67</ele><time>2026-08-20T09:45:15Z</time></trkpt><trkpt lat="60.1099882834" lon="30.5305662286"><ele>36.67</ele><time>2026-08-20T09:45:27Z</time></trkpt><trkpt lat="60.1100551710" lon="30.5306063779"><ele>37.63</ele><time>2026-08-20T09:45:32Z</time></trkpt><trkpt lat="60.1101341285" lon="30.5305953976"><ele>38.11</ele><time>2026-08-20T09:45:37Z</time></trkpt><trkpt lat="60.1102201268" lon="30.5306810606"><ele>38.11</ele><time>2026-08-20T09:45:49Z</time></trkpt><trkpt lat="60.1102784649" lon="30.5307786260"><ele>38.59</ele><time>2026-08-20T09:45:55Z</time></trkpt><trkpt lat="60.1104083005" lon="30.5309533048"><ele>39.07</ele><time>2026-08-20T09:46:10Z</time></trkpt><trkpt lat="60.1105492003" lon="30.5309748463"><ele>39.07</ele><time>2026-08-20T09:46:22Z</time></trkpt><trkpt lat="60.1105909422" lon="30.5310101341"><ele>39.07</ele><time>2026-08-20T09:46:25Z</time></trkpt><trkpt lat="60.1106457599" lon="30.5310614314"><ele>39.07</ele><time>2026-08-20T09:46:29Z</time></trkpt><trkpt lat="60.1107919402" lon="30.5311304145"><ele>39.55</ele><time>2026-08-20T09:46:42Z</time></trkpt><trkpt lat="60.1108287368" lon="30.5310520437"><ele>39.55</ele><time>2026-08-20T09:46:53Z</time></trkpt><trkpt lat="60.1108842250" lon="30.5307939649"><ele>39.55</ele><time>2026-08-20T09:47:04Z</time></trkpt><trkpt lat="60.1109615061" lon="30.5306017678"><ele>38.59</ele><time>2026-08-20T09:47:18Z</time></trkpt><trkpt lat="60.1109724864" lon="30.5305603612"><ele>38.59</ele><time>2026-08-20T09:47:35Z</time></trkpt><trkpt lat="60.1109869871" lon="30.5305241514"><ele>38.59</ele><time>2026-08-20T09:48:00Z</time></trkpt><trkpt lat="60.1109956205" lon="30.5305159371"><ele>38.59</ele><time>2026-08-20T09:48:32Z</time></trkpt><trkpt lat="60.1109822094" lon="30.5305261631"><ele>38.59</ele><time>2026-08-20T09:49:04Z</time></trkpt><trkpt lat="60.1109717321" lon="30.5305268336"><ele>38.59</ele><time>2026-08-20T09:49:35Z</time></trkpt><trkpt lat="60.1109682117" lon="30.5305243190"><ele>38.59</ele><time>2026-08-20T09:49:49Z</time></trkpt><trkpt lat="60.1109616738" lon="30.5305239838"><ele>38.59</ele><time>2026-08-20T09:50:03Z</time></trkpt><trkpt lat="60.1109614223" lon="30.5305270012"><ele>38.59</ele><time>2026-08-20T09:50:06Z</time></trkpt><trkpt lat="60.1109408867" lon="30.5305782985"><ele>38.59</ele><time>2026-08-20T09:50:09Z</time></trkpt><trkpt lat="60.1109507773" lon="30.5307112355"><ele>38.59</ele><time>2026-08-20T09:50:16Z</time></trkpt><trkpt lat="60.1109630149" lon="30.5309873354"><ele>38.59</ele><time>2026-08-20T09:50:25Z</time></trkpt><trkpt lat="60.1109524537" lon="30.5310779437"><ele>38.59</ele><time>2026-08-20T09:50:28Z</time></trkpt><trkpt lat="60.1109838020" lon="30.5313073564"><ele>38.59</ele><time>2026-08-20T09:50:34Z</time></trkpt><trkpt lat="60.1110045891" lon="30.5313326698"><ele>38.59</ele><time>2026-08-20T09:50:36Z</time></trkpt><trkpt lat="60.1110831276" lon="30.5315899942"><ele>38.59</ele><time>2026-08-20T09:50:47Z</time></trkpt><trkpt lat="60.1111671980" lon="30.5317661818"><ele>38.59</ele><time>2026-08-20T09:50:57Z</time></trkpt><trkpt lat="60.1112056710" lon="30.5319288746"><ele>38.59</ele><time>2026-08-20T09:51:05Z</time></trkpt><trkpt lat="60.1113060862" lon="30.5322433636"><ele>40.03</ele><time>2026-08-20T09:51:21Z</time></trkpt><trkpt lat="60.1113833673" lon="30.5324483849"><ele>40.03</ele><time>2026-08-20T09:51:30Z</time></trkpt><trkpt lat="60.1114112791" lon="30.5327349622"><ele>40.03</ele><time>2026-08-20T09:51:43Z</time></trkpt><trkpt lat="60.1114115305" lon="30.5331189372"><ele>40.03</ele><time>2026-08-20T09:51:56Z</time></trkpt><trkpt lat="60.1113931742" lon="30.5334294029"><ele>40.03</ele><time>2026-08-20T09:52:09Z</time></trkpt><trkpt lat="60.1114101056" lon="30.5335520301"><ele>40.03</ele><time>2026-08-20T09:52:16Z</time></trkpt><trkpt lat="60.1113763265" lon="30.5337993801"><ele>40.03</ele><time>2026-08-20T09:52:29Z</time></trkpt><trkpt lat="60.1113503426" lon="30.5338200834"><ele>40.03</ele><time>2026-08-20T09:52:46Z</time></trkpt><trkpt lat="60.1113444753" lon="30.5338296387"><ele>40.03</ele><time>2026-08-20T09:53:10Z</time></trkpt><trkpt lat="60.1113433018" lon="30.5338265374"><ele>40.03</ele><time>2026-08-20T09:53:17Z</time></trkpt><trkpt lat="60.1114360895" lon="30.5340273678"><ele>40.03</ele><time>2026-08-20T09:53:30Z</time></trkpt><trkpt lat="60.1114533562" lon="30.5340786651"><ele>40.03</ele><time>2026-08-20T09:53:33Z</time></trkpt><trkpt lat="60.1115903165" lon="30.5340652540"><ele>40.99</ele><time>2026-08-20T09:53:45Z</time></trkpt><trkpt lat="60.1117357425" lon="30.5339485779"><ele>40.99</ele><time>2026-08-20T09:53:57Z</time></trkpt><trkpt lat="60.1117664203" lon="30.5339556187"><ele>41.47</ele><time>2026-08-20T09:54:00Z</time></trkpt><trkpt lat="60.1118563581" lon="30.5340463109"><ele>41.47</ele><time>2026-08-20T09:54:08Z</time></trkpt><trkpt lat="60.1119006146" lon="30.5341420323"><ele>41.95</ele><time>2026-08-20T09:54:14Z</time></trkpt><trkpt lat="60.1119355671" lon="30.5342074111"><ele>42.44</ele><time>2026-08-20T09:54:18Z</time></trkpt><trkpt lat="60.1119520795" lon="30.5342567805"><ele>42.44</ele><time>2026-08-20T09:54:21Z</time></trkpt><trkpt lat="60.1119814161" lon="30.5343989376"><ele>42.92</ele><time>2026-08-20T09:54:28Z</time></trkpt><trkpt lat="60.1120274328" lon="30.5345930625"><ele>42.92</ele><time>2026-08-20T09:54:37Z</time></trkpt><trkpt lat="60.1120354794" lon="30.5347343814"><ele>43.40</ele><time>2026-08-20T09:54:45Z</time></trkpt><trkpt lat="60.1120924763" lon="30.5350216292"><ele>43.88</ele><time>2026-08-20T09:54:58Z</time></trkpt><trkpt lat="60.1120924763" lon="30.5350387283"><ele>43.88</ele><time>2026-08-20T09:54:59Z</time></trkpt><trkpt lat="60.1121171191" lon="30.5353350285"><ele>44.36</ele><time>2026-08-20T09:55:12Z</time></trkpt><trkpt lat="60.1121238247" lon="30.5354804546"><ele>44.36</ele><time>2026-08-20T09:55:18Z</time></trkpt><trkpt lat="60.1121078990" lon="30.5355728231"><ele>44.84</ele><time>2026-08-20T09:55:22Z</time></trkpt><trkpt lat="60.1121055521" lon="30.5357530341"><ele>45.32</ele><time>2026-08-20T09:55:30Z</time></trkpt><trkpt lat="60.1121083181" lon="30.5357753299"><ele>45.32</ele><time>2026-08-20T09:55:31Z</time></trkpt><trkpt lat="60.1121180411" lon="30.5358862225"><ele>45.32</ele><time>2026-08-20T09:55:36Z</time></trkpt><trkpt lat="60.1121212263" lon="30.5359474942"><ele>45.80</ele><time>2026-08-20T09:55:39Z</time></trkpt><trkpt lat="60.1121542510" lon="30.5361567065"><ele>46.76</ele><time>2026-08-20T09:55:51Z</time></trkpt><trkpt lat="60.1121664885" lon="30.5362862069"><ele>47.72</ele><time>2026-08-20T09:55:57Z</time></trkpt><trkpt lat="60.1121825818" lon="30.5363674276"><ele>47.72</ele><time>2026-08-20T09:56:01Z</time></trkpt><trkpt lat="60.1122490503" lon="30.5365906376"><ele>48.20</ele><time>2026-08-20T09:56:13Z</time></trkpt><trkpt lat="60.1122815721" lon="30.5366861075"><ele>48.68</ele><time>2026-08-20T09:56:18Z</time></trkpt><trkpt lat="60.1122954022" lon="30.5367481336"><ele>48.68</ele><time>2026-08-20T09:56:21Z</time></trkpt><trkpt lat="60.1123533212" lon="30.5368849263"><ele>48.68</ele><time>2026-08-20T09:56:30Z</time></trkpt><trkpt lat="60.1123996731" lon="30.5369519815"><ele>48.68</ele><time>2026-08-20T09:56:35Z</time></trkpt><trkpt lat="60.1124710031" lon="30.5371249001"><ele>48.68</ele><time>2026-08-20T09:56:45Z</time></trkpt><trkpt lat="60.1125151757" lon="30.5373875890"><ele>49.16</ele><time>2026-08-20T09:56:57Z</time></trkpt><trkpt lat="60.1125067938" lon="30.5376025010"><ele>49.16</ele><time>2026-08-20T09:57:07Z</time></trkpt><trkpt lat="60.1125608571" lon="30.5378747452"><ele>49.65</ele><time>2026-08-20T09:57:19Z</time></trkpt><trkpt lat="60.1126248110" lon="30.5381030682"><ele>50.61</ele><time>2026-08-20T09:57:31Z</time></trkpt><trkpt lat="60.1126616076" lon="30.5382873863"><ele>51.09</ele><time>2026-08-20T09:57:40Z</time></trkpt><trkpt lat="60.1127087139" lon="30.5385061540"><ele>51.09</ele><time>2026-08-20T09:57:51Z</time></trkpt><trkpt lat="60.1127274055" lon="30.5386006180"><ele>51.09</ele><time>2026-08-20T09:57:56Z</time></trkpt><trkpt lat="60.1127859950" lon="30.5389019474"><ele>51.57</ele><time>2026-08-20T09:58:10Z</time></trkpt><trkpt lat="60.1128191035" lon="30.5390426796"><ele>51.57</ele><time>2026-08-20T09:58:17Z</time></trkpt><trkpt lat="60.1128828060" lon="30.5392525624"><ele>52.05</ele><time>2026-08-20T09:58:27Z</time></trkpt><trkpt lat="60.1129424013" lon="30.5394626968"><ele>53.49</ele><time>2026-08-20T09:58:38Z</time></trkpt><trkpt lat="60.1130340155" lon="30.5396484397"><ele>54.45</ele><time>2026-08-20T09:58:50Z</time></trkpt><trkpt lat="60.1130728237" lon="30.5396942887"><ele>54.45</ele><time>2026-08-20T09:58:54Z</time></trkpt><trkpt lat="60.1131174993" lon="30.5397504475"><ele>54.45</ele><time>2026-08-20T09:58:59Z</time></trkpt><trkpt lat="60.1131672878" lon="30.5399457458"><ele>54.45</ele><time>2026-08-20T09:59:10Z</time></trkpt><trkpt lat="60.1131224446" lon="30.5401168205"><ele>54.45</ele><time>2026-08-20T09:59:22Z</time></trkpt><trkpt lat="60.1131139789" lon="30.5401155632"><ele>54.45</ele><time>2026-08-20T09:59:44Z</time></trkpt><trkpt lat="60.1131153200" lon="30.5401116237"><ele>54.45</ele><time>2026-08-20T10:00:15Z</time></trkpt><trkpt lat="60.1131143142" lon="30.5401072651"><ele>54.93</ele><time>2026-08-20T10:00:33Z</time></trkpt><trkpt lat="60.1131117158" lon="30.5401169043"><ele>54.93</ele><time>2026-08-20T10:00:38Z</time></trkpt><trkpt lat="60.1130916830" lon="30.5401376076"><ele>54.93</ele><time>2026-08-20T10:00:52Z</time></trkpt><trkpt lat="60.1130501088" lon="30.5402027350"><ele>54.93</ele><time>2026-08-20T10:01:02Z</time></trkpt><trkpt lat="60.1130413078" lon="30.5402061716"><ele>54.93</ele><time>2026-08-20T10:01:14Z</time></trkpt><trkpt lat="60.1130428165" lon="30.5403723847"><ele>53.49</ele><time>2026-08-20T10:01:23Z</time></trkpt><trkpt lat="60.1130567305" lon="30.5405741371"><ele>53.01</ele><time>2026-08-20T10:01:31Z</time></trkpt><trkpt lat="60.1130273100" lon="30.5406570341"><ele>52.53</ele><time>2026-08-20T10:01:35Z</time></trkpt><trkpt lat="60.1130113844" lon="30.5407106783"><ele>52.53</ele><time>2026-08-20T10:01:37Z</time></trkpt><trkpt lat="60.1129711512" lon="30.5409402587"><ele>50.61</ele><time>2026-08-20T10:01:46Z</time></trkpt><trkpt lat="60.1129716542" lon="30.5409818329"><ele>50.61</ele><time>2026-08-20T10:01:48Z</time></trkpt><trkpt lat="60.1129576564" lon="30.5412097368"><ele>48.20</ele><time>2026-08-20T10:01:58Z</time></trkpt><trkpt lat="60.1129452512" lon="30.5414782092"><ele>47.24</ele><time>2026-08-20T10:02:11Z</time></trkpt><trkpt lat="60.1129593328" lon="30.5415138323"><ele>45.80</ele><time>2026-08-20T10:02:27Z</time></trkpt><trkpt lat="60.1129607577" lon="30.5415153410"><ele>45.80</ele><time>2026-08-20T10:02:28Z</time></trkpt><trkpt lat="60.1129460055" lon="30.5416443385"><ele>45.80</ele><time>2026-08-20T10:02:34Z</time></trkpt><trkpt lat="60.1129870769" lon="30.5419071950"><ele>45.80</ele><time>2026-08-20T10:02:43Z</time></trkpt><trkpt lat="60.1129968837" lon="30.5419574026"><ele>46.28</ele><time>2026-08-20T10:02:45Z</time></trkpt><trkpt lat="60.1130025834" lon="30.5419996474"><ele>45.80</ele><time>2026-08-20T10:02:47Z</time></trkpt><trkpt lat="60.1130082831" lon="30.5421387032"><ele>45.80</ele><time>2026-08-20T10:02:52Z</time></trkpt><trkpt lat="60.1130480971" lon="30.5423169024"><ele>45.80</ele><time>2026-08-20T10:02:59Z</time></trkpt><trkpt lat="60.1130650286" lon="30.5423571356"><ele>45.80</ele><time>2026-08-20T10:03:01Z</time></trkpt><trkpt lat="60.1131103747" lon="30.5425467342"><ele>46.28</ele><time>2026-08-20T10:03:11Z</time></trkpt><trkpt lat="60.1131136436" lon="30.5425598938"><ele>46.28</ele><time>2026-08-20T10:03:12Z</time></trkpt><trkpt lat="60.1131766755" lon="30.5428118538"><ele>46.28</ele><time>2026-08-20T10:03:23Z</time></trkpt><trkpt lat="60.1132392883" lon="30.5430847686"><ele>46.28</ele><time>2026-08-20T10:03:34Z</time></trkpt><trkpt lat="60.1133287232" lon="30.5433054641"><ele>46.28</ele><time>2026-08-20T10:03:44Z</time></trkpt><trkpt lat="60.1133790147" lon="30.5434190389"><ele>46.28</ele><time>2026-08-20T10:03:50Z</time></trkpt><trkpt lat="60.1134169009" lon="30.5434766226"><ele>46.28</ele><time>2026-08-20T10:04:00Z</time></trkpt><trkpt lat="60.1134079322" lon="30.5434776284"><ele>46.28</ele><time>2026-08-20T10:04:11Z</time></trkpt><trkpt lat="60.1134558767" lon="30.5437355395"><ele>45.80</ele><time>2026-08-20T10:04:23Z</time></trkpt><trkpt lat="60.1135404501" lon="30.5439924449"><ele>45.80</ele><time>2026-08-20T10:04:35Z</time></trkpt><trkpt lat="60.1135352533" lon="30.5440020002"><ele>45.80</ele><time>2026-08-20T10:04:43Z</time></trkpt><trkpt lat="60.1135863829" lon="30.5442063510"><ele>45.80</ele><time>2026-08-20T10:04:52Z</time></trkpt><trkpt lat="60.1136433799" lon="30.5444345903"><ele>45.80</ele><time>2026-08-20T10:05:03Z</time></trkpt><trkpt lat="60.1136868820" lon="30.5445708800"><ele>45.80</ele><time>2026-08-20T10:05:10Z</time></trkpt><trkpt lat="60.1137004606" lon="30.5446100235"><ele>45.80</ele><time>2026-08-20T10:05:12Z</time></trkpt><trkpt lat="60.1137116086" lon="30.5446808506"><ele>45.80</ele><time>2026-08-20T10:05:15Z</time></trkpt><trkpt lat="60.1137342397" lon="30.5447256099"><ele>45.80</ele><time>2026-08-20T10:05:17Z</time></trkpt><trkpt lat="60.1137571223" lon="30.5447879713"><ele>45.80</ele><time>2026-08-20T10:05:20Z</time></trkpt><trkpt lat="60.1137596369" lon="30.5448354129"><ele>45.80</ele><time>2026-08-20T10:05:30Z</time></trkpt><trkpt lat="60.1137786638" lon="30.5448921584"><ele>45.80</ele><time>2026-08-20T10:05:42Z</time></trkpt><trkpt lat="60.1137565356" lon="30.5448911525"><ele>45.80</ele><time>2026-08-20T10:05:47Z</time></trkpt><trkpt lat="60.1137154642" lon="30.5449385941"><ele>48.68</ele><time>2026-08-20T10:05:54Z</time></trkpt><trkpt lat="60.1138047315" lon="30.5452760495"><ele>50.61</ele><time>2026-08-20T10:06:10Z</time></trkpt><trkpt lat="60.1138038933" lon="30.5452877842"><ele>50.61</ele><time>2026-08-20T10:06:25Z</time></trkpt><trkpt lat="60.1138011273" lon="30.5452985968"><ele>50.61</ele><time>2026-08-20T10:06:44Z</time></trkpt><trkpt lat="60.1137719583" lon="30.5453338847"><ele>50.61</ele><time>2026-08-20T10:06:47Z</time></trkpt><trkpt lat="60.1137245167" lon="30.5453492235"><ele>52.05</ele><time>2026-08-20T10:06:55Z</time></trkpt><trkpt lat="60.1137162186" lon="30.5453480501"><ele>52.53</ele><time>2026-08-20T10:06:56Z</time></trkpt><trkpt lat="60.1136943419" lon="30.5453676637"><ele>56.37</ele><time>2026-08-20T10:07:01Z</time></trkpt><trkpt lat="60.1136505045" lon="30.5454560090"><ele>59.74</ele><time>2026-08-20T10:07:07Z</time></trkpt><trkpt lat="60.1136250235" lon="30.5456696637"><ele>59.26</ele><time>2026-08-20T10:07:19Z</time></trkpt><trkpt lat="60.1136280410" lon="30.5458365474"><ele>58.30</ele><time>2026-08-20T10:07:33Z</time></trkpt><trkpt lat="60.1136158872" lon="30.5459053628"><ele>57.34</ele><time>2026-08-20T10:07:44Z</time></trkpt><trkpt lat="60.1135853771" lon="30.5461625196"><ele>57.34</ele><time>2026-08-20T10:07:57Z</time></trkpt><trkpt lat="60.1135938428" lon="30.5463746656"><ele>57.34</ele><time>2026-08-20T10:08:07Z</time></trkpt><trkpt lat="60.1135594770" lon="30.5467402842"><ele>56.86</ele><time>2026-08-20T10:08:22Z</time></trkpt><trkpt lat="60.1135680266" lon="30.5468127038"><ele>56.86</ele><time>2026-08-20T10:08:26Z</time></trkpt><trkpt lat="60.1134889014" lon="30.5468735565"><ele>56.86</ele><time>2026-08-20T10:08:36Z</time></trkpt><trkpt lat="60.1134025678" lon="30.5469040666"><ele>60.70</ele><time>2026-08-20T10:08:45Z</time></trkpt><trkpt lat="60.1133972034" lon="30.5470292084"><ele>63.10</ele><time>2026-08-20T10:08:57Z</time></trkpt><trkpt lat="60.1133943535" lon="30.5470453855"><ele>62.14</ele><time>2026-08-20T10:09:20Z</time></trkpt><trkpt lat="60.1134008076" lon="30.5470582936"><ele>62.14</ele><time>2026-08-20T10:09:49Z</time></trkpt><trkpt lat="60.1133899111" lon="30.5472140294"><ele>62.14</ele><time>2026-08-20T10:09:59Z</time></trkpt><trkpt lat="60.1133790985" lon="30.5472792406"><ele>62.14</ele><time>2026-08-20T10:10:03Z</time></trkpt><trkpt lat="60.1133725606" lon="30.5474125128"><ele>65.51</ele><time>2026-08-20T10:10:10Z</time></trkpt><trkpt lat="60.1133699622" lon="30.5475376546"><ele>68.39</ele><time>2026-08-20T10:10:17Z</time></trkpt><trkpt lat="60.1133859716" lon="30.5476193782"><ele>68.87</ele><time>2026-08-20T10:10:27Z</time></trkpt><trkpt lat="60.1133715548" lon="30.5476931389"><ele>68.87</ele><time>2026-08-20T10:10:31Z</time></trkpt><trkpt lat="60.1133786794" lon="30.5477241520"><ele>68.87</ele><time>2026-08-20T10:10:46Z</time></trkpt><trkpt lat="60.1133809425" lon="30.5477261636"><ele>69.35</ele><time>2026-08-20T10:11:06Z</time></trkpt><trkpt lat="60.1133885700" lon="30.5477253255"><ele>69.35</ele><time>2026-08-20T10:11:38Z</time></trkpt><trkpt lat="60.1133944374" lon="30.5477399938"><ele>69.35</ele><time>2026-08-20T10:12:03Z</time></trkpt><trkpt lat="60.1133991312" lon="30.5477394909"><ele>69.35</ele><time>2026-08-20T10:12:26Z</time></trkpt><trkpt lat="60.1134009752" lon="30.5477342941"><ele>69.83</ele><time>2026-08-20T10:12:49Z</time></trkpt><trkpt lat="60.1133910846" lon="30.5477385689"><ele>69.83</ele><time>2026-08-20T10:12:54Z</time></trkpt><trkpt lat="60.1133532822" lon="30.5477370601"><ele>69.83</ele><time>2026-08-20T10:13:05Z</time></trkpt><trkpt lat="60.1133462414" lon="30.5477598589"><ele>69.83</ele><time>2026-08-20T10:13:07Z</time></trkpt><trkpt lat="60.1133407094" lon="30.5478337873"><ele>69.83</ele><time>2026-08-20T10:13:11Z</time></trkpt><trkpt lat="60.1132728159" lon="30.5480304267"><ele>69.83</ele><time>2026-08-20T10:13:22Z</time></trkpt><trkpt lat="60.1131977141" lon="30.5482242163"><ele>69.83</ele><time>2026-08-20T10:13:31Z</time></trkpt><trkpt lat="60.1131296530" lon="30.5484548025"><ele>68.39</ele><time>2026-08-20T10:13:41Z</time></trkpt><trkpt lat="60.1131049264" lon="30.5485609174"><ele>67.43</ele><time>2026-08-20T10:13:46Z</time></trkpt><trkpt lat="60.1130989753" lon="30.5485951994"><ele>66.95</ele><time>2026-08-20T10:13:48Z</time></trkpt><trkpt lat="60.1130655315" lon="30.5487767514"><ele>64.07</ele><time>2026-08-20T10:13:55Z</time></trkpt><trkpt lat="60.1130673755" lon="30.5489510950"><ele>60.70</ele><time>2026-08-20T10:14:01Z</time></trkpt><trkpt lat="60.1131001487" lon="30.5491822679"><ele>62.14</ele><time>2026-08-20T10:14:09Z</time></trkpt><trkpt lat="60.1131435670" lon="30.5493598804"><ele>62.14</ele><time>2026-08-20T10:14:17Z</time></trkpt><trkpt lat="60.1131718140" lon="30.5495002773"><ele>62.14</ele><time>2026-08-20T10:14:23Z</time></trkpt><trkpt lat="60.1131702214" lon="30.5496016145"><ele>62.14</ele><time>2026-08-20T10:14:27Z</time></trkpt><trkpt lat="60.1131442375" lon="30.5496545881"><ele>62.14</ele><time>2026-08-20T10:14:41Z</time></trkpt><trkpt lat="60.1131328382" lon="30.5496646464"><ele>62.14</ele><time>2026-08-20T10:15:00Z</time></trkpt><trkpt lat="60.1131273899" lon="30.5496786442"><ele>62.14</ele><time>2026-08-20T10:15:17Z</time></trkpt><trkpt lat="60.1131328382" lon="30.5497695878"><ele>60.22</ele><time>2026-08-20T10:15:28Z</time></trkpt><trkpt lat="60.1131403819" lon="30.5497608706"><ele>59.26</ele><time>2026-08-20T10:15:47Z</time></trkpt><trkpt lat="60.1131368615" lon="30.5497819930"><ele>59.74</ele><time>2026-08-20T10:16:04Z</time></trkpt><trkpt lat="60.1131566428" lon="30.5498000979"><ele>59.74</ele><time>2026-08-20T10:16:06Z</time></trkpt><trkpt lat="60.1132130530" lon="30.5498202145"><ele>59.74</ele><time>2026-08-20T10:16:11Z</time></trkpt><trkpt lat="60.1132841315" lon="30.5497501418"><ele>59.74</ele><time>2026-08-20T10:16:20Z</time></trkpt><trkpt lat="60.1133392006" lon="30.5498003494"><ele>61.18</ele><time>2026-08-20T10:16:25Z</time></trkpt><trkpt lat="60.1133625023" lon="30.5498682428"><ele>61.18</ele><time>2026-08-20T10:16:29Z</time></trkpt><trkpt lat="60.1134832855" lon="30.5500721745"><ele>61.18</ele><time>2026-08-20T10:16:41Z</time></trkpt><trkpt lat="60.1135881431" lon="30.5502284970"><ele>61.18</ele><time>2026-08-20T10:16:50Z</time></trkpt><trkpt lat="60.1136711240" lon="30.5503289122"><ele>59.74</ele><time>2026-08-20T10:16:59Z</time></trkpt><trkpt lat="60.1136903185" lon="30.5504138209"><ele>58.78</ele><time>2026-08-20T10:17:07Z</time></trkpt><trkpt lat="60.1137707010" lon="30.5505594984"><ele>57.34</ele><time>2026-08-20T10:17:16Z</time></trkpt><trkpt lat="60.1138484851" lon="30.5507174972"><ele>55.89</ele><time>2026-08-20T10:17:30Z</time></trkpt><trkpt lat="60.1138761453" lon="30.5507510249"><ele>55.89</ele><time>2026-08-20T10:17:33Z</time></trkpt><trkpt lat="60.1139181387" lon="30.5508702155"><ele>53.97</ele><time>2026-08-20T10:17:46Z</time></trkpt><trkpt lat="60.1139063202" lon="30.5511729699"><ele>53.01</ele><time>2026-08-20T10:18:00Z</time></trkpt><trkpt lat="60.1139730401" lon="30.5513873789"><ele>52.05</ele><time>2026-08-20T10:18:14Z</time></trkpt><trkpt lat="60.1141240820" lon="30.5514227506"><ele>52.05</ele><time>2026-08-20T10:18:30Z</time></trkpt><trkpt lat="60.1142457034" lon="30.5515814200"><ele>53.49</ele><time>2026-08-20T10:18:45Z</time></trkpt><trkpt lat="60.1143722702" lon="30.5517741200"><ele>53.97</ele><time>2026-08-20T10:19:00Z</time></trkpt><trkpt lat="60.1144083124" lon="30.5518141016"><ele>53.97</ele><time>2026-08-20T10:19:15Z</time></trkpt><trkpt lat="60.1144212205" lon="30.5518188793"><ele>53.97</ele><time>2026-08-20T10:19:47Z</time></trkpt><trkpt lat="60.1144152693" lon="30.5518268421"><ele>53.97</ele><time>2026-08-20T10:20:10Z</time></trkpt><trkpt lat="60.1144115813" lon="30.5518317875"><ele>53.97</ele><time>2026-08-20T10:20:38Z</time></trkpt><trkpt lat="60.1144232322" lon="30.5518431030"><ele>53.97</ele><time>2026-08-20T10:21:04Z</time></trkpt><trkpt lat="60.1144281775" lon="30.5518832523"><ele>54.45</ele><time>2026-08-20T10:21:25Z</time></trkpt><trkpt lat="60.1145557500" lon="30.5520536564"><ele>53.97</ele><time>2026-08-20T10:21:38Z</time></trkpt><trkpt lat="60.1145917084" lon="30.5521809775"><ele>53.97</ele><time>2026-08-20T10:21:44Z</time></trkpt><trkpt lat="60.1146820653" lon="30.5523278285"><ele>53.97</ele><time>2026-08-20T10:21:59Z</time></trkpt><trkpt lat="60.1147409901" lon="30.5523474421"><ele>53.97</ele><time>2026-08-20T10:22:09Z</time></trkpt><trkpt lat="60.1147502940" lon="30.5524129048"><ele>53.97</ele><time>2026-08-20T10:22:24Z</time></trkpt><trkpt lat="60.1147483662" lon="30.5525042675"><ele>53.97</ele><time>2026-08-20T10:22:37Z</time></trkpt><trkpt lat="60.1148400642" lon="30.5526289064"><ele>53.97</ele><time>2026-08-20T10:22:48Z</time></trkpt><trkpt lat="60.1149547286" lon="30.5528094526"><ele>53.97</ele><time>2026-08-20T10:22:59Z</time></trkpt><trkpt lat="60.1150089595" lon="30.5528716464"><ele>53.97</ele><time>2026-08-20T10:23:04Z</time></trkpt><trkpt lat="60.1150859054" lon="30.5529748276"><ele>53.97</ele><time>2026-08-20T10:23:12Z</time></trkpt><trkpt lat="60.1151983067" lon="30.5530225206"><ele>53.97</ele><time>2026-08-20T10:23:22Z</time></trkpt><trkpt lat="60.1152123883" lon="30.5530252866"><ele>53.97</ele><time>2026-08-20T10:23:23Z</time></trkpt><trkpt lat="60.1153578982" lon="30.5532091018"><ele>53.97</ele><time>2026-08-20T10:23:39Z</time></trkpt><trkpt lat="60.1154567208" lon="30.5534082558"><ele>53.97</ele><time>2026-08-20T10:23:52Z</time></trkpt><trkpt lat="60.1154614985" lon="30.5534261093"><ele>53.97</ele><time>2026-08-20T10:23:53Z</time></trkpt><trkpt lat="60.1154701319" lon="30.5534728803"><ele>53.97</ele><time>2026-08-20T10:23:55Z</time></trkpt><trkpt lat="60.1155338343" lon="30.5536162946"><ele>53.97</ele><time>2026-08-20T10:24:07Z</time></trkpt><trkpt lat="60.1156343333" lon="30.5536988564"><ele>53.97</ele><time>2026-08-20T10:24:18Z</time></trkpt><trkpt lat="60.1156483311" lon="30.5537064001"><ele>53.97</ele><time>2026-08-20T10:24:19Z</time></trkpt><trkpt lat="60.1157360896" lon="30.5537348147"><ele>53.97</ele><time>2026-08-20T10:24:31Z</time></trkpt><trkpt lat="60.1157774962" lon="30.5537635647"><ele>53.49</ele><time>2026-08-20T10:24:36Z</time></trkpt><trkpt lat="60.1158493292" lon="30.5538830906"><ele>54.45</ele><time>2026-08-20T10:24:50Z</time></trkpt><trkpt lat="60.1159046497" lon="30.5539148580"><ele>56.86</ele><time>2026-08-20T10:25:02Z</time></trkpt><trkpt lat="60.1159484871" lon="30.5539453682"><ele>60.22</ele><time>2026-08-20T10:25:07Z</time></trkpt><trkpt lat="60.1160713658" lon="30.5540237390"><ele>60.70</ele><time>2026-08-20T10:25:22Z</time></trkpt><trkpt lat="60.1161600463" lon="30.5539541692"><ele>62.62</ele><time>2026-08-20T10:25:36Z</time></trkpt><trkpt lat="60.1162533369" lon="30.5539068952"><ele>62.62</ele><time>2026-08-20T10:25:48Z</time></trkpt><trkpt lat="60.1163509861" lon="30.5538063124"><ele>63.10</ele><time>2026-08-20T10:26:01Z</time></trkpt><trkpt lat="60.1164369844" lon="30.5537939910"><ele>65.99</ele><time>2026-08-20T10:26:15Z</time></trkpt><trkpt lat="60.1164360624" lon="30.5537902191"><ele>67.43</ele><time>2026-08-20T10:26:17Z</time></trkpt><trkpt lat="60.1164632197" lon="30.5538701825"><ele>67.91</ele><time>2026-08-20T10:26:24Z</time></trkpt><trkpt lat="60.1165218931" lon="30.5539218150"><ele>67.91</ele><time>2026-08-20T10:26:34Z</time></trkpt><trkpt lat="60.1165250782" lon="30.5539218988"><ele>67.91</ele><time>2026-08-20T10:26:47Z</time></trkpt><trkpt lat="60.1165252458" lon="30.5539221503"><ele>67.91</ele><time>2026-08-20T10:26:48Z</time></trkpt><trkpt lat="60.1166334562" lon="30.5537944101"><ele>66.47</ele><time>2026-08-20T10:27:00Z</time></trkpt><trkpt lat="60.1167757809" lon="30.5537585355"><ele>65.03</ele><time>2026-08-20T10:27:13Z</time></trkpt><trkpt lat="60.1168938819" lon="30.5536882952"><ele>64.55</ele><time>2026-08-20T10:27:25Z</time></trkpt><trkpt lat="60.1170241367" lon="30.5534546077"><ele>64.55</ele><time>2026-08-20T10:27:38Z</time></trkpt><trkpt lat="60.1171320118" lon="30.5532868020"><ele>64.55</ele><time>2026-08-20T10:27:51Z</time></trkpt><trkpt lat="60.1172290742" lon="30.5531648453"><ele>64.55</ele><time>2026-08-20T10:28:04Z</time></trkpt><trkpt lat="60.1173076127" lon="30.5530019850"><ele>63.58</ele><time>2026-08-20T10:28:16Z</time></trkpt><trkpt lat="60.1173214428" lon="30.5529561359"><ele>63.58</ele><time>2026-08-20T10:28:19Z</time></trkpt><trkpt lat="60.1174297370" lon="30.5528243724"><ele>63.58</ele><time>2026-08-20T10:28:33Z</time></trkpt><trkpt lat="60.1175095327" lon="30.5527413078"><ele>63.58</ele><time>2026-08-20T10:28:41Z</time></trkpt><trkpt lat="60.1176324114" lon="30.5526329298"><ele>63.58</ele><time>2026-08-20T10:28:54Z</time></trkpt><trkpt lat="60.1176485047" lon="30.5526196025"><ele>63.58</ele><time>2026-08-20T10:28:56Z</time></trkpt><trkpt lat="60.1177213434" lon="30.5526496097"><ele>63.58</ele><time>2026-08-20T10:29:04Z</time></trkpt><trkpt lat="60.1178044081" lon="30.5525303353"><ele>63.10</ele><time>2026-08-20T10:29:17Z</time></trkpt><trkpt lat="60.1178334095" lon="30.5524890125"><ele>63.10</ele><time>2026-08-20T10:29:20Z</time></trkpt><trkpt lat="60.1178905740" lon="30.5524315126"><ele>66.47</ele><time>2026-08-20T10:29:26Z</time></trkpt><trkpt lat="60.1179012191" lon="30.5524072051"><ele>67.91</ele><time>2026-08-20T10:29:39Z</time></trkpt><trkpt lat="60.1179180667" lon="30.5523643736"><ele>66.95</ele><time>2026-08-20T10:29:54Z</time></trkpt><trkpt lat="60.1179170609" lon="30.5523584224"><ele>65.99</ele><time>2026-08-20T10:30:07Z</time></trkpt><trkpt lat="60.1179127023" lon="30.5523542315"><ele>65.99</ele><time>2026-08-20T10:30:19Z</time></trkpt><trkpt lat="60.1179082599" lon="30.5524103902"><ele>66.47</ele><time>2026-08-20T10:30:36Z</time></trkpt><trkpt lat="60.1179738063" lon="30.5523496214"><ele>66.47</ele><time>2026-08-20T10:30:48Z</time></trkpt><trkpt lat="60.1180895604" lon="30.5521929637"><ele>66.47</ele><time>2026-08-20T10:31:01Z</time></trkpt><trkpt lat="60.1181390136" lon="30.5521190353"><ele>66.47</ele><time>2026-08-20T10:31:14Z</time></trkpt><trkpt lat="60.1181450486" lon="30.5520910397"><ele>66.47</ele><time>2026-08-20T10:31:31Z</time></trkpt><trkpt lat="60.1181666739" lon="30.5521113239"><ele>65.51</ele><time>2026-08-20T10:31:42Z</time></trkpt><trkpt lat="60.1182229165" lon="30.5520502198"><ele>65.51</ele><time>2026-08-20T10:31:52Z</time></trkpt><trkpt lat="60.1182198990" lon="30.5519977491"><ele>66.47</ele><time>2026-08-20T10:31:55Z</time></trkpt><trkpt lat="60.1182641555" lon="30.5520380661"><ele>66.47</ele><time>2026-08-20T10:32:05Z</time></trkpt><trkpt lat="60.1183487289" lon="30.5521317758"><ele>67.91</ele><time>2026-08-20T10:32:21Z</time></trkpt><trkpt lat="60.1184150297" lon="30.5521395709"><ele>71.27</ele><time>2026-08-20T10:32:28Z</time></trkpt><trkpt lat="60.1184654888" lon="30.5521356314"><ele>71.27</ele><time>2026-08-20T10:32:36Z</time></trkpt><trkpt lat="60.1186273433" lon="30.5522287544"><ele>71.27</ele><time>2026-08-20T10:32:50Z</time></trkpt><trkpt lat="60.1187103242" lon="30.5522979889"><ele>71.27</ele><time>2026-08-20T10:33:03Z</time></trkpt><trkpt lat="60.1187271718" lon="30.5522943847"><ele>71.27</ele><time>2026-08-20T10:33:19Z</time></trkpt><trkpt lat="60.1187373139" lon="30.5522878468"><ele>71.27</ele><time>2026-08-20T10:33:42Z</time></trkpt><trkpt lat="60.1187520660" lon="30.5522627011"><ele>71.27</ele><time>2026-08-20T10:33:44Z</time></trkpt><trkpt lat="60.1188163552" lon="30.5521626212"><ele>71.27</ele><time>2026-08-20T10:33:57Z</time></trkpt><trkpt lat="60.1189082209" lon="30.5520752817"><ele>71.27</ele><time>2026-08-20T10:34:07Z</time></trkpt><trkpt lat="60.1189539023" lon="30.5520365573"><ele>71.27</ele><time>2026-08-20T10:34:14Z</time></trkpt><trkpt lat="60.1190315187" lon="30.5519894511"><ele>71.27</ele><time>2026-08-20T10:34:21Z</time></trkpt><trkpt lat="60.1190974843" lon="30.5519499723"><ele>74.16</ele><time>2026-08-20T10:34:34Z</time></trkpt><trkpt lat="60.1191054471" lon="30.5519542471"><ele>74.16</ele><time>2026-08-20T10:34:48Z</time></trkpt><trkpt lat="60.1190504618" lon="30.5519756209"><ele>72.72</ele><time>2026-08-20T10:34:58Z</time></trkpt><trkpt lat="60.1189763658" lon="30.5520595238"><ele>71.76</ele><time>2026-08-20T10:35:07Z</time></trkpt><trkpt lat="60.1188549120" lon="30.5521407444"><ele>70.79</ele><time>2026-08-20T10:35:14Z</time></trkpt><trkpt lat="60.1188175287" lon="30.5522004236"><ele>70.79</ele><time>2026-08-20T10:35:18Z</time></trkpt><trkpt lat="60.1188118290" lon="30.5522816442"><ele>70.79</ele><time>2026-08-20T10:35:24Z</time></trkpt><trkpt lat="60.1188909542" lon="30.5525001604"><ele>70.79</ele><time>2026-08-20T10:35:38Z</time></trkpt><trkpt lat="60.1188966539" lon="30.5525041837"><ele>70.79</ele><time>2026-08-20T10:35:39Z</time></trkpt><trkpt lat="60.1189851668" lon="30.5526605062"><ele>70.79</ele><time>2026-08-20T10:35:51Z</time></trkpt><trkpt lat="60.1190588437" lon="30.5528697185"><ele>72.24</ele><time>2026-08-20T10:36:03Z</time></trkpt><trkpt lat="60.1190754399" lon="30.5529698823"><ele>72.72</ele><time>2026-08-20T10:36:09Z</time></trkpt><trkpt lat="60.1190938801" lon="30.5530401226"><ele>73.68</ele><time>2026-08-20T10:36:12Z</time></trkpt><trkpt lat="60.1191120688" lon="30.5531423818"><ele>75.60</ele><time>2026-08-20T10:36:17Z</time></trkpt><trkpt lat="60.1191037707" lon="30.5534154642"><ele>75.12</ele><time>2026-08-20T10:36:30Z</time></trkpt><trkpt lat="60.1191063691" lon="30.5534337368"><ele>75.12</ele><time>2026-08-20T10:36:31Z</time></trkpt><trkpt lat="60.1191575825" lon="30.5537136085"><ele>75.12</ele><time>2026-08-20T10:36:43Z</time></trkpt><trkpt lat="60.1191679761" lon="30.5537916441"><ele>75.12</ele><time>2026-08-20T10:36:50Z</time></trkpt><trkpt lat="60.1191989053" lon="30.5540087353"><ele>76.08</ele><time>2026-08-20T10:36:59Z</time></trkpt><trkpt lat="60.1192160882" lon="30.5542456917"><ele>77.52</ele><time>2026-08-20T10:37:10Z</time></trkpt><trkpt lat="60.1192144956" lon="30.5545298383"><ele>78.00</ele><time>2026-08-20T10:37:23Z</time></trkpt><trkpt lat="60.1192712411" lon="30.5547282379"><ele>78.48</ele><time>2026-08-20T10:37:35Z</time></trkpt><trkpt lat="60.1194120571" lon="30.5549081974"><ele>79.45</ele><time>2026-08-20T10:37:50Z</time></trkpt><trkpt lat="60.1194879133" lon="30.5549834669"><ele>79.45</ele><time>2026-08-20T10:38:03Z</time></trkpt><trkpt lat="60.1194915175" lon="30.5549795274"><ele>79.45</ele><time>2026-08-20T10:38:32Z</time></trkpt><trkpt lat="60.1194861531" lon="30.5549778510"><ele>79.45</ele><time>2026-08-20T10:39:03Z</time></trkpt><trkpt lat="60.1194899250" lon="30.5549735762"><ele>79.45</ele><time>2026-08-20T10:39:27Z</time></trkpt><trkpt lat="60.1195071079" lon="30.5549761746"><ele>79.45</ele><time>2026-08-20T10:39:39Z</time></trkpt><trkpt lat="60.1195026655" lon="30.5549845565"><ele>79.45</ele><time>2026-08-20T10:39:51Z</time></trkpt><trkpt lat="60.1194973011" lon="30.5549680442"><ele>79.45</ele><time>2026-08-20T10:40:02Z</time></trkpt><trkpt lat="60.1194961276" lon="30.5549698882"><ele>79.93</ele><time>2026-08-20T10:40:29Z</time></trkpt><trkpt lat="60.1194943674" lon="30.5549708102"><ele>78.48</ele><time>2026-08-20T10:40:53Z</time></trkpt><trkpt lat="60.1194953732" lon="30.5549714807"><ele>78.97</ele><time>2026-08-20T10:41:21Z</time></trkpt><trkpt lat="60.1195016596" lon="30.5549764261"><ele>78.97</ele><time>2026-08-20T10:41:45Z</time></trkpt><trkpt lat="60.1195097901" lon="30.5549921840"><ele>78.97</ele><time>2026-08-20T10:42:09Z</time></trkpt><trkpt lat="60.1195175853" lon="30.5550347641"><ele>78.97</ele><time>2026-08-20T10:42:32Z</time></trkpt><trkpt lat="60.1195244584" lon="30.5550354347"><ele>78.97</ele><time>2026-08-20T10:42:53Z</time></trkpt><trkpt lat="60.1195086166" lon="30.5550703034"><ele>78.97</ele><time>2026-08-20T10:43:13Z</time></trkpt><trkpt lat="60.1195006538" lon="30.5549854785"><ele>78.97</ele><time>2026-08-20T10:43:34Z</time></trkpt><trkpt lat="60.1195009053" lon="30.5549619254"><ele>78.97</ele><time>2026-08-20T10:43:56Z</time></trkpt><trkpt lat="60.1195004024" lon="30.5549641885"><ele>78.97</ele><time>2026-08-20T10:44:30Z</time></trkpt><trkpt lat="60.1194952056" lon="30.5549578182"><ele>78.97</ele><time>2026-08-20T10:44:55Z</time></trkpt><trkpt lat="60.1195005700" lon="30.5549356062"><ele>78.97</ele><time>2026-08-20T10:45:08Z</time></trkpt><trkpt lat="60.1194871590" lon="30.5550070200"><ele>78.97</ele><time>2026-08-20T10:45:20Z</time></trkpt><trkpt lat="60.1194299106" lon="30.5552268773"><ele>78.97</ele><time>2026-08-20T10:45:31Z</time></trkpt><trkpt lat="60.1194170024" lon="30.5552557949"><ele>78.97</ele><time>2026-08-20T10:45:33Z</time></trkpt><trkpt lat="60.1192851551" lon="30.5555064138"><ele>78.97</ele><time>2026-08-20T10:45:49Z</time></trkpt><trkpt lat="60.1192205306" lon="30.5556033086"><ele>78.48</ele><time>2026-08-20T10:45:56Z</time></trkpt><trkpt lat="60.1191671379" lon="30.5556201562"><ele>78.00</ele><time>2026-08-20T10:46:12Z</time></trkpt><trkpt lat="60.1191668026" lon="30.5556155462"><ele>77.52</ele><time>2026-08-20T10:46:34Z</time></trkpt><trkpt lat="60.1191148348" lon="30.5556132831"><ele>77.52</ele><time>2026-08-20T10:47:01Z</time></trkpt><trkpt lat="60.1190198679" lon="30.5556854513"><ele>77.52</ele><time>2026-08-20T10:47:16Z</time></trkpt><trkpt lat="60.1189357135" lon="30.5557211582"><ele>77.04</ele><time>2026-08-20T10:47:31Z</time></trkpt><trkpt lat="60.1189891901" lon="30.5557353236"><ele>76.56</ele><time>2026-08-20T10:47:43Z</time></trkpt><trkpt lat="60.1190191973" lon="30.5557301268"><ele>76.56</ele><time>2026-08-20T10:48:09Z</time></trkpt><trkpt lat="60.1189979911" lon="30.5557377543"><ele>76.56</ele><time>2026-08-20T10:48:18Z</time></trkpt><trkpt lat="60.1189281698" lon="30.5557746347"><ele>76.56</ele><time>2026-08-20T10:48:30Z</time></trkpt><trkpt lat="60.1188738551" lon="30.5558383372"><ele>76.08</ele><time>2026-08-20T10:48:43Z</time></trkpt><trkpt lat="60.1188321132" lon="30.5559777282"><ele>75.60</ele><time>2026-08-20T10:48:55Z</time></trkpt><trkpt lat="60.1187938079" lon="30.5560167879"><ele>75.60</ele><time>2026-08-20T10:49:01Z</time></trkpt><trkpt lat="60.1186942309" lon="30.5560036283"><ele>75.12</ele><time>2026-08-20T10:49:16Z</time></trkpt><trkpt lat="60.1186308637" lon="30.5559452903"><ele>75.12</ele><time>2026-08-20T10:49:23Z</time></trkpt><trkpt lat="60.1184737869" lon="30.5558314640"><ele>74.64</ele><time>2026-08-20T10:49:36Z</time></trkpt><trkpt lat="60.1183550153" lon="30.5558834318"><ele>74.64</ele><time>2026-08-20T10:49:49Z</time></trkpt><trkpt lat="60.1182801649" lon="30.5559573602"><ele>74.64</ele><time>2026-08-20T10:50:01Z</time></trkpt><trkpt lat="60.1182463858" lon="30.5560148600"><ele>74.64</ele><time>2026-08-20T10:50:14Z</time></trkpt><trkpt lat="60.1182390098" lon="30.5560119264"><ele>74.64</ele><time>2026-08-20T10:50:41Z</time></trkpt><trkpt lat="60.1182370819" lon="30.5560191348"><ele>74.64</ele><time>2026-08-20T10:51:04Z</time></trkpt><trkpt lat="60.1182212401" lon="30.5559561029"><ele>74.64</ele><time>2026-08-20T10:51:28Z</time></trkpt><trkpt lat="60.1182211563" lon="30.5559281912"><ele>74.64</ele><time>2026-08-20T10:51:31Z</time></trkpt><trkpt lat="60.1182126068" lon="30.5558292009"><ele>74.64</ele><time>2026-08-20T10:51:36Z</time></trkpt><trkpt lat="60.1181907300" lon="30.5557631515"><ele>74.64</ele><time>2026-08-20T10:51:40Z</time></trkpt><trkpt lat="60.1181690209" lon="30.5557182245"><ele>74.16</ele><time>2026-08-20T10:51:57Z</time></trkpt><trkpt lat="60.1181634888" lon="30.5557477288"><ele>74.16</ele><time>2026-08-20T10:52:17Z</time></trkpt><trkpt lat="60.1181699429" lon="30.5558433663"><ele>74.16</ele><time>2026-08-20T10:52:21Z</time></trkpt><trkpt lat="60.1182157919" lon="30.5559985992"><ele>74.16</ele><time>2026-08-20T10:52:33Z</time></trkpt><trkpt lat="60.1181971841" lon="30.5560146086"><ele>74.16</ele><time>2026-08-20T10:52:36Z</time></trkpt><trkpt lat="60.1181078330" lon="30.5562584382"><ele>74.16</ele><time>2026-08-20T10:52:51Z</time></trkpt><trkpt lat="60.1180635765" lon="30.5565260723"><ele>72.72</ele><time>2026-08-20T10:53:05Z</time></trkpt><trkpt lat="60.1180797536" lon="30.5566772819"><ele>72.24</ele><time>2026-08-20T10:53:19Z</time></trkpt><trkpt lat="60.1180753112" lon="30.5568564031"><ele>73.68</ele><time>2026-08-20T10:53:34Z</time></trkpt><trkpt lat="60.1179779973" lon="30.5570437387"><ele>72.72</ele><time>2026-08-20T10:53:47Z</time></trkpt><trkpt lat="60.1179213356" lon="30.5571058486"><ele>72.24</ele><time>2026-08-20T10:53:52Z</time></trkpt><trkpt lat="60.1178482454" lon="30.5572138913"><ele>72.24</ele><time>2026-08-20T10:54:06Z</time></trkpt><trkpt lat="60.1178323198" lon="30.5573263764"><ele>72.24</ele><time>2026-08-20T10:54:19Z</time></trkpt><trkpt lat="60.1178075094" lon="30.5574080162"><ele>70.79</ele><time>2026-08-20T10:54:29Z</time></trkpt><trkpt lat="60.1177911647" lon="30.5573934317"><ele>68.39</ele><time>2026-08-20T10:54:42Z</time></trkpt><trkpt lat="60.1177938469" lon="30.5573778413"><ele>67.91</ele><time>2026-08-20T10:55:11Z</time></trkpt><trkpt lat="60.1177650969" lon="30.5573879834"><ele>66.47</ele><time>2026-08-20T10:55:28Z</time></trkpt><trkpt lat="60.1177297253" lon="30.5574362632"><ele>64.55</ele><time>2026-08-20T10:55:41Z</time></trkpt><trkpt lat="60.1177029032" lon="30.5574754067"><ele>62.62</ele><time>2026-08-20T10:55:56Z</time></trkpt><trkpt lat="60.1176850498" lon="30.5574842077"><ele>60.70</ele><time>2026-08-20T10:56:08Z</time></trkpt><trkpt lat="60.1176407095" lon="30.5574871413"><ele>58.30</ele><time>2026-08-20T10:56:21Z</time></trkpt><trkpt lat="60.1176102832" lon="30.5575705413"><ele>54.93</ele><time>2026-08-20T10:56:30Z</time></trkpt><trkpt lat="60.1176099479" lon="30.5575707089"><ele>53.97</ele><time>2026-08-20T10:56:31Z</time></trkpt><trkpt lat="60.1175721455" lon="30.5576931685"><ele>50.13</ele><time>2026-08-20T10:56:36Z</time></trkpt><trkpt lat="60.1174890809" lon="30.5577087589"><ele>48.20</ele><time>2026-08-20T10:56:53Z</time></trkpt><trkpt lat="60.1174268872" lon="30.5577817652"><ele>47.24</ele><time>2026-08-20T10:56:58Z</time></trkpt><trkpt lat="60.1173677109" lon="30.5578352418"><ele>43.88</ele><time>2026-08-20T10:57:05Z</time></trkpt><trkpt lat="60.1173399668" lon="30.5579514150"><ele>45.80</ele><time>2026-08-20T10:57:16Z</time></trkpt><trkpt lat="60.1173481811" lon="30.5580027960"><ele>46.28</ele><time>2026-08-20T10:57:19Z</time></trkpt><trkpt lat="60.1174238697" lon="30.5582086556"><ele>46.28</ele><time>2026-08-20T10:57:31Z</time></trkpt><trkpt lat="60.1174820401" lon="30.5583666544"><ele>46.28</ele><time>2026-08-20T10:57:43Z</time></trkpt><trkpt lat="60.1175494306" lon="30.5585329514"><ele>46.28</ele><time>2026-08-20T10:57:56Z</time></trkpt><trkpt lat="60.1175723132" lon="30.5586482864"><ele>46.28</ele><time>2026-08-20T10:58:06Z</time></trkpt><trkpt lat="60.1176163182" lon="30.5588598456"><ele>46.28</ele><time>2026-08-20T10:58:18Z</time></trkpt><trkpt lat="60.1176610775" lon="30.5591128115"><ele>46.28</ele><time>2026-08-20T10:58:34Z</time></trkpt><trkpt lat="60.1176627539" lon="30.5591325089"><ele>44.84</ele><time>2026-08-20T10:58:50Z</time></trkpt><trkpt lat="60.1176741533" lon="30.5591847282"><ele>44.84</ele><time>2026-08-20T10:59:09Z</time></trkpt><trkpt lat="60.1176762488" lon="30.5592351872"><ele>44.84</ele><time>2026-08-20T10:59:31Z</time></trkpt><trkpt lat="60.1177513506" lon="30.5594429746"><ele>44.84</ele><time>2026-08-20T10:59:56Z</time></trkpt><trkpt lat="60.1177778374" lon="30.5595166516"><ele>44.84</ele><time>2026-08-20T10:59:59Z</time></trkpt><trkpt lat="60.1178908255" lon="30.5597863812"><ele>44.84</ele><time>2026-08-20T11:00:12Z</time></trkpt><trkpt lat="60.1179944258" lon="30.5600539315"><ele>44.84</ele><time>2026-08-20T11:00:25Z</time></trkpt><trkpt lat="60.1180901472" lon="30.5602887087"><ele>44.84</ele><time>2026-08-20T11:00:37Z</time></trkpt><trkpt lat="60.1181259379" lon="30.5603497289"><ele>44.84</ele><time>2026-08-20T11:00:41Z</time></trkpt><trkpt lat="60.1182561927" lon="30.5606192071"><ele>44.36</ele><time>2026-08-20T11:00:57Z</time></trkpt><trkpt lat="60.1183105912" lon="30.5608067103"><ele>44.36</ele><time>2026-08-20T11:01:08Z</time></trkpt><trkpt lat="60.1183877047" lon="30.5610353686"><ele>43.88</ele><time>2026-08-20T11:01:19Z</time></trkpt><trkpt lat="60.1184573583" lon="30.5611919425"><ele>43.88</ele><time>2026-08-20T11:01:27Z</time></trkpt><trkpt lat="60.1185208932" lon="30.5613747519"><ele>43.88</ele><time>2026-08-20T11:01:36Z</time></trkpt><trkpt lat="60.1186223142" lon="30.5616416316"><ele>43.88</ele><time>2026-08-20T11:01:50Z</time></trkpt><trkpt lat="60.1186545007" lon="30.5616916716"><ele>43.88</ele><time>2026-08-20T11:02:06Z</time></trkpt><trkpt lat="60.1186478790" lon="30.5616911687"><ele>43.88</ele><time>2026-08-20T11:02:28Z</time></trkpt><trkpt lat="60.1186581887" lon="30.5617063399"><ele>43.88</ele><time>2026-08-20T11:02:44Z</time></trkpt><trkpt lat="60.1186670735" lon="30.5617262051"><ele>43.88</ele><time>2026-08-20T11:03:09Z</time></trkpt><trkpt lat="60.1186621282" lon="30.5617391970"><ele>43.88</ele><time>2026-08-20T11:03:33Z</time></trkpt><trkpt lat="60.1187400799" lon="30.5619744770"><ele>43.88</ele><time>2026-08-20T11:03:46Z</time></trkpt><trkpt lat="60.1187832467" lon="30.5621004570"><ele>43.88</ele><time>2026-08-20T11:03:51Z</time></trkpt><trkpt lat="60.1188599411" lon="30.5623884592"><ele>43.88</ele><time>2026-08-20T11:04:04Z</time></trkpt><trkpt lat="60.1188753638" lon="30.5624514073"><ele>43.88</ele><time>2026-08-20T11:04:17Z</time></trkpt><trkpt lat="60.1188843325" lon="30.5624568556"><ele>43.40</ele><time>2026-08-20T11:04:37Z</time></trkpt><trkpt lat="60.1188803092" lon="30.5624473002"><ele>43.40</ele><time>2026-08-20T11:05:06Z</time></trkpt><trkpt lat="60.1189487893" lon="30.5627317820"><ele>43.40</ele><time>2026-08-20T11:05:20Z</time></trkpt><trkpt lat="60.1190024335" lon="30.5628815666"><ele>43.40</ele><time>2026-08-20T11:05:31Z</time></trkpt><trkpt lat="60.1190460194" lon="30.5631067045"><ele>43.40</ele><time>2026-08-20T11:05:43Z</time></trkpt><trkpt lat="60.1190958917" lon="30.5633064453"><ele>43.40</ele><time>2026-08-20T11:05:57Z</time></trkpt><trkpt lat="60.1191792917" lon="30.5635172501"><ele>43.40</ele><time>2026-08-20T11:06:10Z</time></trkpt><trkpt lat="60.1192186866" lon="30.5637302343"><ele>43.40</ele><time>2026-08-20T11:06:23Z</time></trkpt><trkpt lat="60.1192259789" lon="30.5637530331"><ele>43.40</ele><time>2026-08-20T11:06:24Z</time></trkpt><trkpt lat="60.1192769408" lon="30.5639317352"><ele>42.92</ele><time>2026-08-20T11:06:31Z</time></trkpt><trkpt lat="60.1193543896" lon="30.5642489064"><ele>42.92</ele><time>2026-08-20T11:06:46Z</time></trkpt><trkpt lat="60.1193709858" lon="30.5642920732"><ele>42.92</ele><time>2026-08-20T11:06:48Z</time></trkpt><trkpt lat="60.1194435731" lon="30.5646089092"><ele>42.92</ele><time>2026-08-20T11:07:02Z</time></trkpt><trkpt lat="60.1195032522" lon="30.5649130885"><ele>42.92</ele><time>2026-08-20T11:07:15Z</time></trkpt><trkpt lat="60.1195693016" lon="30.5651597679"><ele>42.92</ele><time>2026-08-20T11:07:28Z</time></trkpt><trkpt lat="60.1196415536" lon="30.5653593410"><ele>42.92</ele><time>2026-08-20T11:07:40Z</time></trkpt><trkpt lat="60.1197236963" lon="30.5655874126"><ele>42.92</ele><time>2026-08-20T11:07:54Z</time></trkpt><trkpt lat="60.1197714731" lon="30.5657994747"><ele>42.92</ele><time>2026-08-20T11:08:06Z</time></trkpt><trkpt lat="60.1198169030" lon="30.5660034064"><ele>42.92</ele><time>2026-08-20T11:08:19Z</time></trkpt><trkpt lat="60.1198586449" lon="30.5663158000"><ele>42.44</ele><time>2026-08-20T11:08:33Z</time></trkpt><trkpt lat="60.1199106127" lon="30.5664276984"><ele>42.44</ele><time>2026-08-20T11:08:45Z</time></trkpt><trkpt lat="60.1199258678" lon="30.5665613897"><ele>42.44</ele><time>2026-08-20T11:08:58Z</time></trkpt><trkpt lat="60.1199692860" lon="30.5668584444"><ele>42.44</ele><time>2026-08-20T11:09:13Z</time></trkpt><trkpt lat="60.1200409513" lon="30.5671626236"><ele>42.44</ele><time>2026-08-20T11:09:28Z</time></trkpt><trkpt lat="60.1200833637" lon="30.5674192775"><ele>42.44</ele><time>2026-08-20T11:09:41Z</time></trkpt><trkpt lat="60.1201283745" lon="30.5676399730"><ele>42.44</ele><time>2026-08-20T11:09:57Z</time></trkpt><trkpt lat="60.1202049851" lon="30.5678806175"><ele>42.44</ele><time>2026-08-20T11:10:13Z</time></trkpt><trkpt lat="60.1202177256" lon="30.5680697132"><ele>42.44</ele><time>2026-08-20T11:10:25Z</time></trkpt><trkpt lat="60.1202577073" lon="30.5683714617"><ele>41.95</ele><time>2026-08-20T11:10:39Z</time></trkpt><trkpt lat="60.1202957612" lon="30.5686309654"><ele>41.95</ele><time>2026-08-20T11:10:52Z</time></trkpt><trkpt lat="60.1203356590" lon="30.5688606296"><ele>41.95</ele><time>2026-08-20T11:11:04Z</time></trkpt><trkpt lat="60.1204073243" lon="30.5691317003"><ele>41.95</ele><time>2026-08-20T11:11:18Z</time></trkpt><trkpt lat="60.1204420254" lon="30.5692290980"><ele>41.95</ele><time>2026-08-20T11:11:29Z</time></trkpt><trkpt lat="60.1204709429" lon="30.5693548266"><ele>41.95</ele><time>2026-08-20T11:11:39Z</time></trkpt><trkpt lat="60.1204943284" lon="30.5695850775"><ele>40.99</ele><time>2026-08-20T11:11:50Z</time></trkpt><trkpt lat="60.1205530856" lon="30.5698418990"><ele>40.99</ele><time>2026-08-20T11:12:02Z</time></trkpt><trkpt lat="60.1205934025" lon="30.5700718984"><ele>40.99</ele><time>2026-08-20T11:12:14Z</time></trkpt><trkpt lat="60.1206412632" lon="30.5703304801"><ele>40.99</ele><time>2026-08-20T11:12:25Z</time></trkpt><trkpt lat="60.1206462085" lon="30.5703902431"><ele>40.99</ele><time>2026-08-20T11:12:40Z</time></trkpt><trkpt lat="60.1206447836" lon="30.5704159755"><ele>40.99</ele><time>2026-08-20T11:12:58Z</time></trkpt><trkpt lat="60.1206421852" lon="30.5704164784"><ele>41.47</ele><time>2026-08-20T11:13:23Z</time></trkpt><trkpt lat="60.1206452865" lon="30.5704170652"><ele>41.47</ele><time>2026-08-20T11:13:48Z</time></trkpt><trkpt lat="60.1206462085" lon="30.5704241060"><ele>41.47</ele><time>2026-08-20T11:14:09Z</time></trkpt><trkpt lat="60.1206456218" lon="30.5704293028"><ele>41.47</ele><time>2026-08-20T11:14:43Z</time></trkpt><trkpt lat="60.1206642296" lon="30.5704902392"><ele>41.47</ele><time>2026-08-20T11:15:08Z</time></trkpt><trkpt lat="60.1207149401" lon="30.5707411934"><ele>41.47</ele><time>2026-08-20T11:15:22Z</time></trkpt><trkpt lat="60.1207666565" lon="30.5709432811"><ele>41.47</ele><time>2026-08-20T11:15:35Z</time></trkpt><trkpt lat="60.1207673270" lon="30.5709671695"><ele>41.47</ele><time>2026-08-20T11:15:54Z</time></trkpt><trkpt lat="60.1207702607" lon="30.5709828436"><ele>41.47</ele><time>2026-08-20T11:16:11Z</time></trkpt><trkpt lat="60.1208105776" lon="30.5712256674"><ele>41.47</ele><time>2026-08-20T11:16:24Z</time></trkpt><trkpt lat="60.1208860148" lon="30.5715241469"><ele>41.47</ele><time>2026-08-20T11:16:39Z</time></trkpt><trkpt lat="60.1209415868" lon="30.5717616063"><ele>41.47</ele><time>2026-08-20T11:16:52Z</time></trkpt><trkpt lat="60.1210016850" lon="30.5719827209"><ele>41.47</ele><time>2026-08-20T11:17:06Z</time></trkpt><trkpt lat="60.1210238133" lon="30.5721969623"><ele>40.99</ele><time>2026-08-20T11:17:19Z</time></trkpt><trkpt lat="60.1210816484" lon="30.5724527780"><ele>40.99</ele><time>2026-08-20T11:17:34Z</time></trkpt><trkpt lat="60.1211207919" lon="30.5727523472"><ele>40.99</ele><time>2026-08-20T11:17:50Z</time></trkpt><trkpt lat="60.1211624499" lon="30.5730462167"><ele>40.99</ele><time>2026-08-20T11:18:04Z</time></trkpt><trkpt lat="60.1211873442" lon="30.5731404293"><ele>40.99</ele><time>2026-08-20T11:18:11Z</time></trkpt><trkpt lat="60.1212134957" lon="30.5733100791"><ele>41.47</ele><time>2026-08-20T11:18:25Z</time></trkpt><trkpt lat="60.1211774535" lon="30.5735153519"><ele>40.99</ele><time>2026-08-20T11:18:36Z</time></trkpt><trkpt lat="60.1212348696" lon="30.5736850854"><ele>40.03</ele><time>2026-08-20T11:18:47Z</time></trkpt><trkpt lat="60.1212619431" lon="30.5737393163"><ele>40.03</ele><time>2026-08-20T11:18:51Z</time></trkpt><trkpt lat="60.1213335246" lon="30.5739015900"><ele>40.03</ele><time>2026-08-20T11:19:05Z</time></trkpt><trkpt lat="60.1213978976" lon="30.5741014145"><ele>40.03</ele><time>2026-08-20T11:19:16Z</time></trkpt><trkpt lat="60.1214220375" lon="30.5742667895"><ele>40.03</ele><time>2026-08-20T11:19:27Z</time></trkpt><trkpt lat="60.1214464288" lon="30.5743410531"><ele>40.03</ele><time>2026-08-20T11:19:37Z</time></trkpt><trkpt lat="60.1214627735" lon="30.5744148139"><ele>40.03</ele><time>2026-08-20T11:19:56Z</time></trkpt><trkpt lat="60.1214595884" lon="30.5744309910"><ele>41.47</ele><time>2026-08-20T11:20:17Z</time></trkpt><trkpt lat="60.1214960497" lon="30.5745769199"><ele>41.47</ele><time>2026-08-20T11:20:31Z</time></trkpt><trkpt lat="60.1215302479" lon="30.5747985374"><ele>41.47</ele><time>2026-08-20T11:20:44Z</time></trkpt><trkpt lat="60.1215370372" lon="30.5749802571"><ele>41.47</ele><time>2026-08-20T11:20:58Z</time></trkpt><trkpt lat="60.1215535495" lon="30.5752029642"><ele>41.47</ele><time>2026-08-20T11:21:12Z</time></trkpt><trkpt lat="60.1215714868" lon="30.5754087400"><ele>41.47</ele><time>2026-08-20T11:21:27Z</time></trkpt><trkpt lat="60.1216635201" lon="30.5755264219"><ele>41.47</ele><time>2026-08-20T11:21:41Z</time></trkpt><trkpt lat="60.1217072736" lon="30.5757454410"><ele>41.47</ele><time>2026-08-20T11:21:55Z</time></trkpt><trkpt lat="60.1217327546" lon="30.5758675653"><ele>41.47</ele><time>2026-08-20T11:22:06Z</time></trkpt><trkpt lat="60.1217635162" lon="30.5760579184"><ele>41.47</ele><time>2026-08-20T11:22:18Z</time></trkpt><trkpt lat="60.1218150649" lon="30.5762724113"><ele>40.99</ele><time>2026-08-20T11:22:31Z</time></trkpt><trkpt lat="60.1218496822" lon="30.5765795242"><ele>40.99</ele><time>2026-08-20T11:22:48Z</time></trkpt><trkpt lat="60.1218385343" lon="30.5766400415"><ele>39.55</ele><time>2026-08-20T11:22:53Z</time></trkpt><trkpt lat="60.1218279731" lon="30.5768287182"><ele>39.55</ele><time>2026-08-20T11:23:06Z</time></trkpt><trkpt lat="60.1218715589" lon="30.5770802591"><ele>39.55</ele><time>2026-08-20T11:23:20Z</time></trkpt><trkpt lat="60.1218748279" lon="30.5773214065"><ele>39.55</ele><time>2026-08-20T11:23:34Z</time></trkpt><trkpt lat="60.1219358481" lon="30.5776308663"><ele>39.55</ele><time>2026-08-20T11:23:48Z</time></trkpt><trkpt lat="60.1219247840" lon="30.5776916351"><ele>39.55</ele><time>2026-08-20T11:23:51Z</time></trkpt><trkpt lat="60.1219184976" lon="30.5777739454"><ele>39.55</ele><time>2026-08-20T11:23:54Z</time></trkpt><trkpt lat="60.1219642628" lon="30.5780798011"><ele>39.55</ele><time>2026-08-20T11:24:08Z</time></trkpt><trkpt lat="60.1219784282" lon="30.5781120714"><ele>39.55</ele><time>2026-08-20T11:24:10Z</time></trkpt><trkpt lat="60.1220026519" lon="30.5783837289"><ele>39.55</ele><time>2026-08-20T11:24:25Z</time></trkpt><trkpt lat="60.1220172364" lon="30.5785821285"><ele>39.55</ele><time>2026-08-20T11:24:39Z</time></trkpt><trkpt lat="60.1220246963" lon="30.5786213558"><ele>39.07</ele><time>2026-08-20T11:24:57Z</time></trkpt><trkpt lat="60.1220194157" lon="30.5786220264"><ele>39.07</ele><time>2026-08-20T11:25:24Z</time></trkpt><trkpt lat="60.1220189966" lon="30.5786045920"><ele>39.07</ele><time>2026-08-20T11:25:50Z</time></trkpt><trkpt lat="60.1220257860" lon="30.5785887502"><ele>39.07</ele><time>2026-08-20T11:26:04Z</time></trkpt><trkpt lat="60.1220260374" lon="30.5785887502"><ele>39.07</ele><time>2026-08-20T11:26:25Z</time></trkpt><trkpt lat="60.1220343355" lon="30.5786241218"><ele>39.07</ele><time>2026-08-20T11:26:42Z</time></trkpt><trkpt lat="60.1220337488" lon="30.5785959587"><ele>39.07</ele><time>2026-08-20T11:26:57Z</time></trkpt><trkpt lat="60.1220295578" lon="30.5785892531"><ele>39.07</ele><time>2026-08-20T11:27:14Z</time></trkpt><trkpt lat="60.1220308151" lon="30.5785910133"><ele>38.59</ele><time>2026-08-20T11:27:41Z</time></trkpt><trkpt lat="60.1220323239" lon="30.5785946175"><ele>38.59</ele><time>2026-08-20T11:27:57Z</time></trkpt><trkpt lat="60.1220353413" lon="30.5785940308"><ele>38.59</ele><time>2026-08-20T11:28:13Z</time></trkpt><trkpt lat="60.1220430527" lon="30.5786035024"><ele>38.59</ele><time>2026-08-20T11:28:21Z</time></trkpt><trkpt lat="60.1220578048" lon="30.5786456633"><ele>38.59</ele><time>2026-08-20T11:28:23Z</time></trkpt><trkpt lat="60.1221342478" lon="30.5787316617"><ele>38.59</ele><time>2026-08-20T11:28:36Z</time></trkpt><trkpt lat="60.1221510116" lon="30.5787442345"><ele>39.55</ele><time>2026-08-20T11:28:56Z</time></trkpt><trkpt lat="60.1221491676" lon="30.5787511915"><ele>39.55</ele><time>2026-08-20T11:29:28Z</time></trkpt><trkpt lat="60.1221903227" lon="30.5789738148"><ele>39.55</ele><time>2026-08-20T11:29:42Z</time></trkpt><trkpt lat="60.1221985370" lon="30.5791506730"><ele>39.55</ele><time>2026-08-20T11:29:52Z</time></trkpt><trkpt lat="60.1222875528" lon="30.5793487374"><ele>39.55</ele><time>2026-08-20T11:30:03Z</time></trkpt><trkpt lat="60.1223639958" lon="30.5795580335"><ele>39.55</ele><time>2026-08-20T11:30:14Z</time></trkpt><trkpt lat="60.1224274468" lon="30.5796364043"><ele>39.55</ele><time>2026-08-20T11:30:24Z</time></trkpt><trkpt lat="60.1224708650" lon="30.5795482267"><ele>39.55</ele><time>2026-08-20T11:30:36Z</time></trkpt><trkpt lat="60.1225348189" lon="30.5795618054"><ele>39.55</ele><time>2026-08-20T11:30:52Z</time></trkpt><trkpt lat="60.1226214040" lon="30.5794946663"><ele>39.55</ele><time>2026-08-20T11:31:04Z</time></trkpt><trkpt lat="60.1226732042" lon="30.5795095023"><ele>40.51</ele><time>2026-08-20T11:31:16Z</time></trkpt><trkpt lat="60.1226829272" lon="30.5794830993"><ele>40.51</ele><time>2026-08-20T11:31:22Z</time></trkpt><trkpt lat="60.1226280257" lon="30.5792375933"><ele>40.51</ele><time>2026-08-20T11:31:36Z</time></trkpt><trkpt lat="60.1226032153" lon="30.5791536905"><ele>40.51</ele><time>2026-08-20T11:31:47Z</time></trkpt><trkpt lat="60.1226304565" lon="30.5790868029"><ele>40.51</ele><time>2026-08-20T11:31:58Z</time></trkpt><trkpt lat="60.1226519141" lon="30.5789232720"><ele>40.51</ele><time>2026-08-20T11:32:09Z</time></trkpt><trkpt lat="60.1226573624" lon="30.5788718909"><ele>42.44</ele><time>2026-08-20T11:32:24Z</time></trkpt><trkpt lat="60.1226490643" lon="30.5785807874"><ele>43.40</ele><time>2026-08-20T11:32:38Z</time></trkpt><trkpt lat="60.1225966774" lon="30.5783185177"><ele>44.36</ele><time>2026-08-20T11:32:52Z</time></trkpt><trkpt lat="60.1226088312" lon="30.5781828146"><ele>44.36</ele><time>2026-08-20T11:33:04Z</time></trkpt><trkpt lat="60.1226402633" lon="30.5781381391"><ele>45.32</ele><time>2026-08-20T11:33:18Z</time></trkpt><trkpt lat="60.1226785686" lon="30.5780659709"><ele>46.28</ele><time>2026-08-20T11:33:32Z</time></trkpt><trkpt lat="60.1226957515" lon="30.5780575052"><ele>46.76</ele><time>2026-08-20T11:33:52Z</time></trkpt><trkpt lat="60.1227232441" lon="30.5779263284"><ele>46.28</ele><time>2026-08-20T11:34:18Z</time></trkpt><trkpt lat="60.1228120085" lon="30.5777556729"><ele>46.28</ele><time>2026-08-20T11:34:34Z</time></trkpt><trkpt lat="60.1228036266" lon="30.5775958300"><ele>46.28</ele><time>2026-08-20T11:34:48Z</time></trkpt><trkpt lat="60.1228045486" lon="30.5775037967"><ele>46.76</ele><time>2026-08-20T11:35:02Z</time></trkpt><trkpt lat="60.1228062250" lon="30.5772214103"><ele>46.76</ele><time>2026-08-20T11:35:14Z</time></trkpt><trkpt lat="60.1228097454" lon="30.5772054009"><ele>46.76</ele><time>2026-08-20T11:35:16Z</time></trkpt><trkpt lat="60.1228514872" lon="30.5771623179"><ele>46.76</ele><time>2026-08-20T11:35:25Z</time></trkpt><trkpt lat="60.1229382399" lon="30.5772774853"><ele>47.72</ele><time>2026-08-20T11:35:35Z</time></trkpt><trkpt lat="60.1229571830" lon="30.5773350690"><ele>48.68</ele><time>2026-08-20T11:35:46Z</time></trkpt><trkpt lat="60.1229933929" lon="30.5773477256"><ele>49.16</ele><time>2026-08-20T11:35:57Z</time></trkpt><trkpt lat="60.1230095699" lon="30.5773874559"><ele>49.16</ele><time>2026-08-20T11:36:01Z</time></trkpt><trkpt lat="60.1231159363" lon="30.5775177944"><ele>49.65</ele><time>2026-08-20T11:36:12Z</time></trkpt><trkpt lat="60.1232387312" lon="30.5776571855"><ele>50.13</ele><time>2026-08-20T11:36:26Z</time></trkpt><trkpt lat="60.1232752763" lon="30.5777094048"><ele>50.61</ele><time>2026-08-20T11:36:39Z</time></trkpt><trkpt lat="60.1232859213" lon="30.5777172837"><ele>51.09</ele><time>2026-08-20T11:37:02Z</time></trkpt><trkpt lat="60.1232847478" lon="30.5777250789"><ele>51.09</ele><time>2026-08-20T11:37:23Z</time></trkpt><trkpt lat="60.1232637092" lon="30.5776576884"><ele>51.09</ele><time>2026-08-20T11:37:30Z</time></trkpt><trkpt lat="60.1232285891" lon="30.5775928963"><ele>51.09</ele><time>2026-08-20T11:37:35Z</time></trkpt><trkpt lat="60.1231628750" lon="30.5775296967"><ele>51.09</ele><time>2026-08-20T11:37:41Z</time></trkpt><trkpt lat="60.1231096499" lon="30.5774969235"><ele>51.09</ele><time>2026-08-20T11:37:46Z</time></trkpt><trkpt lat="60.1230221428" lon="30.5773690995"><ele>51.09</ele><time>2026-08-20T11:37:56Z</time></trkpt><trkpt lat="60.1229478791" lon="30.5772256851"><ele>49.16</ele><time>2026-08-20T11:38:08Z</time></trkpt><trkpt lat="60.1229042094" lon="30.5771419499"><ele>48.68</ele><time>2026-08-20T11:38:13Z</time></trkpt><trkpt lat="60.1228242461" lon="30.5769841187"><ele>47.72</ele><time>2026-08-20T11:38:27Z</time></trkpt><trkpt lat="60.1227782294" lon="30.5769330729"><ele>46.76</ele><time>2026-08-20T11:38:37Z</time></trkpt><trkpt lat="60.1227536704" lon="30.5768973660"><ele>46.76</ele><time>2026-08-20T11:38:49Z</time></trkpt><trkpt lat="60.1227393374" lon="30.5766806100"><ele>49.65</ele><time>2026-08-20T11:39:02Z</time></trkpt><trkpt lat="60.1227241661" lon="30.5766058434"><ele>50.61</ele><time>2026-08-20T11:39:05Z</time></trkpt><trkpt lat="60.1226592902" lon="30.5764431506"><ele>52.53</ele><time>2026-08-20T11:39:14Z</time></trkpt><trkpt lat="60.1225402672" lon="30.5761113949"><ele>52.53</ele><time>2026-08-20T11:39:27Z</time></trkpt><trkpt lat="60.1224697754" lon="30.5760072917"><ele>53.01</ele><time>2026-08-20T11:39:40Z</time></trkpt><trkpt lat="60.1223455556" lon="30.5758032762"><ele>53.01</ele><time>2026-08-20T11:39:55Z</time></trkpt><trkpt lat="60.1223104354" lon="30.5757021904"><ele>53.01</ele><time>2026-08-20T11:40:01Z</time></trkpt><trkpt lat="60.1222862117" lon="30.5755716842"><ele>53.01</ele><time>2026-08-20T11:40:11Z</time></trkpt><trkpt lat="60.1222533546" lon="30.5754726101"><ele>53.49</ele><time>2026-08-20T11:40:17Z</time></trkpt><trkpt lat="60.1221965253" lon="30.5752690136"><ele>53.49</ele><time>2026-08-20T11:40:29Z</time></trkpt><trkpt lat="60.1221703738" lon="30.5752051435"><ele>53.49</ele><time>2026-08-20T11:40:33Z</time></trkpt><trkpt lat="60.1221446414" lon="30.5750017148"><ele>54.45</ele><time>2026-08-20T11:40:45Z</time></trkpt><trkpt lat="60.1221287157" lon="30.5747362599"><ele>55.89</ele><time>2026-08-20T11:40:57Z</time></trkpt><trkpt lat="60.1221180707" lon="30.5747143831"><ele>57.82</ele><time>2026-08-20T11:41:14Z</time></trkpt><trkpt lat="60.1221161429" lon="30.5747094378"><ele>57.82</ele><time>2026-08-20T11:41:44Z</time></trkpt><trkpt lat="60.1221117843" lon="30.5747119524"><ele>57.82</ele><time>2026-08-20T11:42:08Z</time></trkpt><trkpt lat="60.1220238581" lon="30.5744939391"><ele>56.37</ele><time>2026-08-20T11:42:26Z</time></trkpt><trkpt lat="60.1220169850" lon="30.5744470842"><ele>55.89</ele><time>2026-08-20T11:42:29Z</time></trkpt><trkpt lat="60.1219590660" lon="30.5742164981"><ele>54.45</ele><time>2026-08-20T11:42:42Z</time></trkpt><trkpt lat="60.1219386980" lon="30.5740514584"><ele>54.45</ele><time>2026-08-20T11:42:50Z</time></trkpt><trkpt lat="60.1219702978" lon="30.5739213713"><ele>53.97</ele><time>2026-08-20T11:42:59Z</time></trkpt><trkpt lat="60.1219545398" lon="30.5736496300"><ele>55.41</ele><time>2026-08-20T11:43:09Z</time></trkpt><trkpt lat="60.1219439786" lon="30.5735340435"><ele>56.37</ele><time>2026-08-20T11:43:16Z</time></trkpt><trkpt lat="60.1219501812" lon="30.5734684132"><ele>56.37</ele><time>2026-08-20T11:43:20Z</time></trkpt><trkpt lat="60.1219699625" lon="30.5733212270"><ele>56.86</ele><time>2026-08-20T11:43:28Z</time></trkpt><trkpt lat="60.1219663583" lon="30.5732851010"><ele>56.86</ele><time>2026-08-20T11:43:30Z</time></trkpt><trkpt lat="60.1219601557" lon="30.5732518248"><ele>56.86</ele><time>2026-08-20T11:43:32Z</time></trkpt><trkpt lat="60.1219737343" lon="30.5730992742"><ele>57.34</ele><time>2026-08-20T11:43:41Z</time></trkpt><trkpt lat="60.1219884865" lon="30.5730610527"><ele>57.34</ele><time>2026-08-20T11:43:43Z</time></trkpt><trkpt lat="60.1220344193" lon="30.5729587097"><ele>60.70</ele><time>2026-08-20T11:43:51Z</time></trkpt><trkpt lat="60.1220930927" lon="30.5729004554"><ele>61.66</ele><time>2026-08-20T11:43:59Z</time></trkpt><trkpt lat="60.1221309789" lon="30.5728505831"><ele>61.66</ele><time>2026-08-20T11:44:04Z</time></trkpt><trkpt lat="60.1221462339" lon="30.5727953464"><ele>61.66</ele><time>2026-08-20T11:44:07Z</time></trkpt><trkpt lat="60.1221872214" lon="30.5726175662"><ele>61.66</ele><time>2026-08-20T11:44:19Z</time></trkpt><trkpt lat="60.1222044043" lon="30.5725448951"><ele>61.66</ele><time>2026-08-20T11:44:31Z</time></trkpt><trkpt lat="60.1222478226" lon="30.5724402890"><ele>61.66</ele><time>2026-08-20T11:44:44Z</time></trkpt><trkpt lat="60.1223385986" lon="30.5724147242"><ele>61.66</ele><time>2026-08-20T11:44:59Z</time></trkpt><trkpt lat="60.1224385947" lon="30.5723383650"><ele>61.66</ele><time>2026-08-20T11:45:13Z</time></trkpt><trkpt lat="60.1224749722" lon="30.5722946115"><ele>61.66</ele><time>2026-08-20T11:45:19Z</time></trkpt><trkpt lat="60.1225929055" lon="30.5723721441"><ele>61.66</ele><time>2026-08-20T11:45:32Z</time></trkpt><trkpt lat="60.1226899680" lon="30.5724874791"><ele>61.66</ele><time>2026-08-20T11:45:46Z</time></trkpt><trkpt lat="60.1227458753" lon="30.5725057516"><ele>61.66</ele><time>2026-08-20T11:46:00Z</time></trkpt><trkpt lat="60.1228012796" lon="30.5725609045"><ele>61.66</ele><time>2026-08-20T11:46:12Z</time></trkpt><trkpt lat="60.1228079014" lon="30.5725821108"><ele>61.66</ele><time>2026-08-20T11:46:16Z</time></trkpt><trkpt lat="60.1227907185" lon="30.5727297161"><ele>61.66</ele><time>2026-08-20T11:46:28Z</time></trkpt><trkpt lat="60.1227902994" lon="30.5727608129"><ele>60.22</ele><time>2026-08-20T11:46:38Z</time></trkpt><trkpt lat="60.1227751281" lon="30.5727520958"><ele>60.22</ele><time>2026-08-20T11:46:40Z</time></trkpt><trkpt lat="60.1227033790" lon="30.5728214141"><ele>60.22</ele><time>2026-08-20T11:46:53Z</time></trkpt><trkpt lat="60.1226090826" lon="30.5729081668"><ele>60.22</ele><time>2026-08-20T11:47:05Z</time></trkpt><trkpt lat="60.1225323882" lon="30.5729360785"><ele>60.22</ele><time>2026-08-20T11:47:16Z</time></trkpt><trkpt lat="60.1225085836" lon="30.5730565265"><ele>60.22</ele><time>2026-08-20T11:47:22Z</time></trkpt><trkpt lat="60.1225487329" lon="30.5732227396"><ele>60.22</ele><time>2026-08-20T11:47:35Z</time></trkpt><trkpt lat="60.1226245891" lon="30.5733036250"><ele>59.74</ele><time>2026-08-20T11:47:47Z</time></trkpt><trkpt lat="60.1226875372" lon="30.5735726841"><ele>59.74</ele><time>2026-08-20T11:48:00Z</time></trkpt><trkpt lat="60.1226980146" lon="30.5736126658"><ele>59.26</ele><time>2026-08-20T11:48:13Z</time></trkpt><trkpt lat="60.1226971764" lon="30.5736305192"><ele>59.26</ele><time>2026-08-20T11:48:28Z</time></trkpt><trkpt lat="60.1227188855" lon="30.5736829061"><ele>59.26</ele><time>2026-08-20T11:48:41Z</time></trkpt><trkpt lat="60.1227188017" lon="30.5738584232"><ele>59.26</ele><time>2026-08-20T11:48:52Z</time></trkpt><trkpt lat="60.1227244176" lon="30.5740217865"><ele>59.26</ele><time>2026-08-20T11:49:04Z</time></trkpt><trkpt lat="60.1227231603" lon="30.5740307551"><ele>59.26</ele><time>2026-08-20T11:49:30Z</time></trkpt><trkpt lat="60.1227318775" lon="30.5740351975"><ele>59.26</ele><time>2026-08-20T11:49:53Z</time></trkpt><trkpt lat="60.1227230765" lon="30.5740198586"><ele>58.78</ele><time>2026-08-20T11:50:07Z</time></trkpt><trkpt lat="60.1227834262" lon="30.5740626063"><ele>58.78</ele><time>2026-08-20T11:50:18Z</time></trkpt><trkpt lat="60.1228160318" lon="30.5741731636"><ele>58.78</ele><time>2026-08-20T11:50:31Z</time></trkpt><trkpt lat="60.1228153612" lon="30.5741784442"><ele>58.78</ele><time>2026-08-20T11:50:32Z</time></trkpt><trkpt lat="60.1229421794" lon="30.5742440745"><ele>58.30</ele><time>2026-08-20T11:50:47Z</time></trkpt><trkpt lat="60.1229769643" lon="30.5742892530"><ele>57.82</ele><time>2026-08-20T11:50:59Z</time></trkpt><trkpt lat="60.1230376493" lon="30.5743790232"><ele>57.82</ele><time>2026-08-20T11:51:14Z</time></trkpt><trkpt lat="60.1230775472" lon="30.5742953718"><ele>57.34</ele><time>2026-08-20T11:51:31Z</time></trkpt><trkpt lat="60.1230817381" lon="30.5742796976"><ele>57.34</ele><time>2026-08-20T11:51:34Z</time></trkpt><trkpt lat="60.1231268328" lon="30.5740838964"><ele>57.34</ele><time>2026-08-20T11:51:46Z</time></trkpt><trkpt lat="60.1232135016" lon="30.5739881750"><ele>57.34</ele><time>2026-08-20T11:52:00Z</time></trkpt><trkpt lat="60.1232442632" lon="30.5739018414"><ele>57.34</ele><time>2026-08-20T11:52:10Z</time></trkpt><trkpt lat="60.1232809760" lon="30.5738347862"><ele>57.34</ele><time>2026-08-20T11:52:29Z</time></trkpt><trkpt lat="60.1233107317" lon="30.5737672281"><ele>58.78</ele><time>2026-08-20T11:52:41Z</time></trkpt><trkpt lat="60.1233550720" lon="30.5737992469"><ele>58.78</ele><time>2026-08-20T11:52:54Z</time></trkpt><trkpt lat="60.1233744342" lon="30.5738138314"><ele>58.78</ele><time>2026-08-20T11:53:04Z</time></trkpt><trkpt lat="60.1234428305" lon="30.5738142505"><ele>58.78</ele><time>2026-08-20T11:53:15Z</time></trkpt><trkpt lat="60.1234709099" lon="30.5737860873"><ele>58.78</ele><time>2026-08-20T11:53:21Z</time></trkpt><trkpt lat="60.1235123165" lon="30.5737523083"><ele>58.78</ele><time>2026-08-20T11:53:30Z</time></trkpt><trkpt lat="60.1235533878" lon="30.5737729277"><ele>58.78</ele><time>2026-08-20T11:53:41Z</time></trkpt><trkpt lat="60.1235371269" lon="30.5737536494"><ele>58.78</ele><time>2026-08-20T11:53:53Z</time></trkpt><trkpt lat="60.1235587522" lon="30.5737521406"><ele>58.78</ele><time>2026-08-20T11:54:10Z</time></trkpt><trkpt lat="60.1236509532" lon="30.5735857598"><ele>58.78</ele><time>2026-08-20T11:54:19Z</time></trkpt><trkpt lat="60.1236857381" lon="30.5735803116"><ele>58.78</ele><time>2026-08-20T11:54:27Z</time></trkpt><trkpt lat="60.1237455849" lon="30.5736217182"><ele>59.26</ele><time>2026-08-20T11:54:38Z</time></trkpt><trkpt lat="60.1237978879" lon="30.5736651365"><ele>59.26</ele><time>2026-08-20T11:54:53Z</time></trkpt><trkpt lat="60.1238292363" lon="30.5735904537"><ele>59.26</ele><time>2026-08-20T11:55:07Z</time></trkpt><trkpt lat="60.1238330919" lon="30.5735517293"><ele>59.26</ele><time>2026-08-20T11:55:10Z</time></trkpt><trkpt lat="60.1238761749" lon="30.5734476261"><ele>59.26</ele><time>2026-08-20T11:55:22Z</time></trkpt><trkpt lat="60.1238809526" lon="30.5734118354"><ele>59.26</ele><time>2026-08-20T11:55:35Z</time></trkpt><trkpt lat="60.1238950342" lon="30.5733353086"><ele>59.74</ele><time>2026-08-20T11:55:49Z</time></trkpt><trkpt lat="60.1239268016" lon="30.5732343905"><ele>59.74</ele><time>2026-08-20T11:55:55Z</time></trkpt><trkpt lat="60.1240004785" lon="30.5730887130"><ele>60.22</ele><time>2026-08-20T11:56:09Z</time></trkpt><trkpt lat="60.1240320783" lon="30.5730737932"><ele>60.22</ele><time>2026-08-20T11:56:21Z</time></trkpt><trkpt lat="60.1240837947" lon="30.5730313808"><ele>60.22</ele><time>2026-08-20T11:56:34Z</time></trkpt><trkpt lat="60.1241050009" lon="30.5730154552"><ele>60.22</ele><time>2026-08-20T11:56:47Z</time></trkpt><trkpt lat="60.1241464075" lon="30.5730240885"><ele>60.22</ele><time>2026-08-20T11:56:52Z</time></trkpt><trkpt lat="60.1241927594" lon="30.5730352364"><ele>59.74</ele><time>2026-08-20T11:57:02Z</time></trkpt><trkpt lat="60.1242286339" lon="30.5730363261"><ele>59.74</ele><time>2026-08-20T11:57:05Z</time></trkpt><trkpt lat="60.1243489143" lon="30.5730136950"><ele>59.74</ele><time>2026-08-20T11:57:18Z</time></trkpt><trkpt lat="60.1243868843" lon="30.5730274413"><ele>59.74</ele><time>2026-08-20T11:57:33Z</time></trkpt><trkpt lat="60.1244589686" lon="30.5729556084"><ele>59.74</ele><time>2026-08-20T11:57:44Z</time></trkpt><trkpt lat="60.1245281193" lon="30.5729248468"><ele>59.74</ele><time>2026-08-20T11:57:56Z</time></trkpt><trkpt lat="60.1245675143" lon="30.5728282873"><ele>58.78</ele><time>2026-08-20T11:58:08Z</time></trkpt><trkpt lat="60.1245985273" lon="30.5727370922"><ele>58.78</ele><time>2026-08-20T11:58:20Z</time></trkpt><trkpt lat="60.1246614754" lon="30.5727116112"><ele>58.30</ele><time>2026-08-20T11:58:30Z</time></trkpt><trkpt lat="60.1246919855" lon="30.5726648401"><ele>58.30</ele><time>2026-08-20T11:58:35Z</time></trkpt><trkpt lat="60.1247725356" lon="30.5725370999"><ele>58.30</ele><time>2026-08-20T11:58:47Z</time></trkpt><trkpt lat="60.1248017885" lon="30.5724879820"><ele>59.74</ele><time>2026-08-20T11:58:51Z</time></trkpt><trkpt lat="60.1249040477" lon="30.5724281352"><ele>59.74</ele><time>2026-08-20T11:59:04Z</time></trkpt><trkpt lat="60.1249942370" lon="30.5724001396"><ele>59.74</ele><time>2026-08-20T11:59:15Z</time></trkpt><trkpt lat="60.1250101626" lon="30.5724029057"><ele>59.74</ele><time>2026-08-20T11:59:33Z</time></trkpt><trkpt lat="60.1250175387" lon="30.5723997205"><ele>59.74</ele><time>2026-08-20T11:59:53Z</time></trkpt><trkpt lat="60.1250646450" lon="30.5723735690"><ele>59.74</ele><time>2026-08-20T12:00:05Z</time></trkpt><trkpt lat="60.1251213904" lon="30.5724011455"><ele>58.78</ele><time>2026-08-20T12:00:18Z</time></trkpt><trkpt lat="60.1251573488" lon="30.5724179931"><ele>56.37</ele><time>2026-08-20T12:00:32Z</time></trkpt><trkpt lat="60.1251503080" lon="30.5724213459"><ele>55.89</ele><time>2026-08-20T12:00:46Z</time></trkpt><trkpt lat="60.1251699217" lon="30.5724283867"><ele>55.41</ele><time>2026-08-20T12:00:59Z</time></trkpt><trkpt lat="60.1251808181" lon="30.5724346731"><ele>55.41</ele><time>2026-08-20T12:01:13Z</time></trkpt><trkpt lat="60.1252818201" lon="30.5725205876"><ele>54.93</ele><time>2026-08-20T12:01:23Z</time></trkpt><trkpt lat="60.1253114082" lon="30.5725468230"><ele>53.49</ele><time>2026-08-20T12:01:43Z</time></trkpt><trkpt lat="60.1253531501" lon="30.5726248585"><ele>53.01</ele><time>2026-08-20T12:01:59Z</time></trkpt><trkpt lat="60.1254337840" lon="30.5727698654"><ele>52.53</ele><time>2026-08-20T12:02:15Z</time></trkpt><trkpt lat="60.1254791301" lon="30.5728033930"><ele>52.53</ele><time>2026-08-20T12:02:20Z</time></trkpt><trkpt lat="60.1255825628" lon="30.5728328135"><ele>52.53</ele><time>2026-08-20T12:02:31Z</time></trkpt><trkpt lat="60.1256424095" lon="30.5728695262"><ele>53.49</ele><time>2026-08-20T12:02:40Z</time></trkpt><trkpt lat="60.1257196069" lon="30.5728893913"><ele>53.49</ele><time>2026-08-20T12:02:49Z</time></trkpt><trkpt lat="60.1258096285" lon="30.5728815962"><ele>54.93</ele><time>2026-08-20T12:03:00Z</time></trkpt><trkpt lat="60.1258170046" lon="30.5728742201"><ele>55.41</ele><time>2026-08-20T12:03:06Z</time></trkpt><trkpt lat="60.1258344389" lon="30.5727674346"><ele>55.89</ele><time>2026-08-20T12:03:17Z</time></trkpt><trkpt lat="60.1258403063" lon="30.5727634951"><ele>56.37</ele><time>2026-08-20T12:03:28Z</time></trkpt><trkpt lat="60.1258214470" lon="30.5727764871"><ele>56.86</ele><time>2026-08-20T12:03:47Z</time></trkpt><trkpt lat="60.1258275658" lon="30.5726797599"><ele>56.86</ele><time>2026-08-20T12:04:10Z</time></trkpt><trkpt lat="60.1257864945" lon="30.5725163128"><ele>59.26</ele><time>2026-08-20T12:04:22Z</time></trkpt><trkpt lat="60.1257642824" lon="30.5724498443"><ele>60.70</ele><time>2026-08-20T12:04:30Z</time></trkpt><trkpt lat="60.1257815491" lon="30.5723968707"><ele>61.18</ele><time>2026-08-20T12:04:40Z</time></trkpt><trkpt lat="60.1258275658" lon="30.5724078510"><ele>60.70</ele><time>2026-08-20T12:04:51Z</time></trkpt><trkpt lat="60.1258817967" lon="30.5724179093"><ele>60.70</ele><time>2026-08-20T12:04:57Z</time></trkpt><trkpt lat="60.1259673759" lon="30.5725443922"><ele>61.18</ele><time>2026-08-20T12:05:10Z</time></trkpt><trkpt lat="60.1259638555" lon="30.5725354236"><ele>61.18</ele><time>2026-08-20T12:05:16Z</time></trkpt><trkpt lat="60.1259475108" lon="30.5725091044"><ele>61.18</ele><time>2026-08-20T12:05:19Z</time></trkpt><trkpt lat="60.1258848142" lon="30.5722872354"><ele>61.18</ele><time>2026-08-20T12:05:31Z</time></trkpt><trkpt lat="60.1258574054" lon="30.5721501075"><ele>61.66</ele><time>2026-08-20T12:05:38Z</time></trkpt><trkpt lat="60.1258406416" lon="30.5721159931"><ele>61.66</ele><time>2026-08-20T12:05:40Z</time></trkpt><trkpt lat="60.1258039288" lon="30.5718952138"><ele>62.14</ele><time>2026-08-20T12:05:49Z</time></trkpt><trkpt lat="60.1258043479" lon="30.5717833154"><ele>62.14</ele><time>2026-08-20T12:05:54Z</time></trkpt><trkpt lat="60.1258062758" lon="30.5717480276"><ele>62.62</ele><time>2026-08-20T12:05:56Z</time></trkpt><trkpt lat="60.1257987320" lon="30.5717077944"><ele>62.62</ele><time>2026-08-20T12:05:58Z</time></trkpt><trkpt lat="60.1258162502" lon="30.5715128314"><ele>63.10</ele><time>2026-08-20T12:06:09Z</time></trkpt><trkpt lat="60.1258179266" lon="30.5714313593"><ele>63.10</ele><time>2026-08-20T12:06:13Z</time></trkpt><trkpt lat="60.1258288231" lon="30.5712898728"><ele>63.58</ele><time>2026-08-20T12:06:21Z</time></trkpt><trkpt lat="60.1258403063" lon="30.5712535791"><ele>63.58</ele><time>2026-08-20T12:06:24Z</time></trkpt><trkpt lat="60.1258362830" lon="30.5712047964"><ele>63.58</ele><time>2026-08-20T12:06:26Z</time></trkpt><trkpt lat="60.1258557290" lon="30.5710866116"><ele>64.55</ele><time>2026-08-20T12:06:41Z</time></trkpt><trkpt lat="60.1258648653" lon="30.5710512400"><ele>64.55</ele><time>2026-08-20T12:06:43Z</time></trkpt><trkpt lat="60.1258703135" lon="30.5709681753"><ele>65.03</ele><time>2026-08-20T12:06:48Z</time></trkpt><trkpt lat="60.1258864067" lon="30.5708589591"><ele>65.03</ele><time>2026-08-20T12:06:53Z</time></trkpt><trkpt lat="60.1259282324" lon="30.5707592145"><ele>65.51</ele><time>2026-08-20T12:06:59Z</time></trkpt><trkpt lat="60.1259268075" lon="30.5707180593"><ele>65.51</ele><time>2026-08-20T12:07:01Z</time></trkpt><trkpt lat="60.1259346865" lon="30.5706738867"><ele>65.51</ele><time>2026-08-20T12:07:03Z</time></trkpt><trkpt lat="60.1259595808" lon="30.5706392694"><ele>65.99</ele><time>2026-08-20T12:07:06Z</time></trkpt><trkpt lat="60.1260727365" lon="30.5704372656"><ele>66.47</ele><time>2026-08-20T12:07:21Z</time></trkpt><trkpt lat="60.1261489280" lon="30.5703952722"><ele>66.95</ele><time>2026-08-20T12:07:31Z</time></trkpt><trkpt lat="60.1262958627" lon="30.5703454837"><ele>66.95</ele><time>2026-08-20T12:07:44Z</time></trkpt><trkpt lat="60.1263632532" lon="30.5703000538"><ele>67.43</ele><time>2026-08-20T12:07:52Z</time></trkpt><trkpt lat="60.1264360920" lon="30.5702868104"><ele>67.43</ele><time>2026-08-20T12:08:00Z</time></trkpt><trkpt lat="60.1265459787" lon="30.5702365190"><ele>68.39</ele><time>2026-08-20T12:08:13Z</time></trkpt><trkpt lat="60.1266594697" lon="30.5701718107"><ele>68.39</ele><time>2026-08-20T12:08:24Z</time></trkpt><trkpt lat="60.1267829351" lon="30.5701221898"><ele>68.87</ele><time>2026-08-20T12:08:37Z</time></trkpt><trkpt lat="60.1269135252" lon="30.5700941104"><ele>68.87</ele><time>2026-08-20T12:08:51Z</time></trkpt><trkpt lat="60.1269361563" lon="30.5700931046"><ele>68.87</ele><time>2026-08-20T12:08:53Z</time></trkpt><trkpt lat="60.1270794030" lon="30.5700414721"><ele>68.87</ele><time>2026-08-20T12:09:07Z</time></trkpt><trkpt lat="60.1271905471" lon="30.5700149853"><ele>68.87</ele><time>2026-08-20T12:09:19Z</time></trkpt><trkpt lat="60.1272990927" lon="30.5699751712"><ele>67.43</ele><time>2026-08-20T12:09:31Z</time></trkpt><trkpt lat="60.1274048723" lon="30.5699610896"><ele>66.95</ele><time>2026-08-20T12:09:44Z</time></trkpt><trkpt lat="60.1274780463" lon="30.5699235387"><ele>66.47</ele><time>2026-08-20T12:09:56Z</time></trkpt><trkpt lat="60.1274893619" lon="30.5699161626"><ele>66.47</ele><time>2026-08-20T12:10:11Z</time></trkpt><trkpt lat="60.1275010966" lon="30.5699179228"><ele>66.47</ele><time>2026-08-20T12:10:37Z</time></trkpt><trkpt lat="60.1275008451" lon="30.5699153244"><ele>66.47</ele><time>2026-08-20T12:10:53Z</time></trkpt><trkpt lat="60.1275027730" lon="30.5699174199"><ele>66.47</ele><time>2026-08-20T12:10:58Z</time></trkpt><trkpt lat="60.1275273319" lon="30.5699203536"><ele>66.47</ele><time>2026-08-20T12:11:02Z</time></trkpt><trkpt lat="60.1276112348" lon="30.5699672922"><ele>65.03</ele><time>2026-08-20T12:11:13Z</time></trkpt><trkpt lat="60.1277522184" lon="30.5699688010"><ele>64.07</ele><time>2026-08-20T12:11:27Z</time></trkpt><trkpt lat="60.1278463472" lon="30.5699634366"><ele>63.10</ele><time>2026-08-20T12:11:38Z</time></trkpt><trkpt lat="60.1279667113" lon="30.5699497741"><ele>62.62</ele><time>2026-08-20T12:11:52Z</time></trkpt><trkpt lat="60.1280674618" lon="30.5698969681"><ele>61.66</ele><time>2026-08-20T12:12:06Z</time></trkpt><trkpt lat="60.1282151509" lon="30.5698308349"><ele>60.22</ele><time>2026-08-20T12:12:22Z</time></trkpt><trkpt lat="60.1283690426" lon="30.5697582476"><ele>58.78</ele><time>2026-08-20T12:12:35Z</time></trkpt><trkpt lat="60.1284666918" lon="30.5697243847"><ele>56.37</ele><time>2026-08-20T12:12:52Z</time></trkpt><trkpt lat="60.1286354195" lon="30.5697379634"><ele>53.97</ele><time>2026-08-20T12:13:07Z</time></trkpt><trkpt lat="60.1288377587" lon="30.5697316770"><ele>52.53</ele><time>2026-08-20T12:13:23Z</time></trkpt><trkpt lat="60.1288770698" lon="30.5696917791"><ele>52.05</ele><time>2026-08-20T12:13:36Z</time></trkpt><trkpt lat="60.1289765630" lon="30.5696082953"><ele>51.57</ele><time>2026-08-20T12:13:52Z</time></trkpt><trkpt lat="60.1290626451" lon="30.5694900267"><ele>51.09</ele><time>2026-08-20T12:14:03Z</time></trkpt><trkpt lat="60.1291752141" lon="30.5693614483"><ele>50.61</ele><time>2026-08-20T12:14:17Z</time></trkpt><trkpt lat="60.1292187162" lon="30.5693555810"><ele>50.13</ele><time>2026-08-20T12:14:41Z</time></trkpt><trkpt lat="60.1292182971" lon="30.5693533178"><ele>50.13</ele><time>2026-08-20T12:14:59Z</time></trkpt><trkpt lat="60.1292358153" lon="30.5693271663"><ele>50.13</ele><time>2026-08-20T12:15:20Z</time></trkpt><trkpt lat="60.1293071453" lon="30.5692164414"><ele>50.13</ele><time>2026-08-20T12:15:28Z</time></trkpt><trkpt lat="60.1294081472" lon="30.5690301955"><ele>50.13</ele><time>2026-08-20T12:15:41Z</time></trkpt><trkpt lat="60.1294551697" lon="30.5689342227"><ele>50.13</ele><time>2026-08-20T12:15:46Z</time></trkpt><trkpt lat="60.1295710914" lon="30.5687777326"><ele>50.13</ele><time>2026-08-20T12:16:00Z</time></trkpt><trkpt lat="60.1297054533" lon="30.5686478969"><ele>50.13</ele><time>2026-08-20T12:16:14Z</time></trkpt><trkpt lat="60.1298126578" lon="30.5685577076"><ele>50.13</ele><time>2026-08-20T12:16:28Z</time></trkpt><trkpt lat="60.1299129054" lon="30.5684567895"><ele>50.13</ele><time>2026-08-20T12:16:40Z</time></trkpt><trkpt lat="60.1300191041" lon="30.5683907401"><ele>49.65</ele><time>2026-08-20T12:16:52Z</time></trkpt><trkpt lat="60.1301045157" lon="30.5684000440"><ele>49.16</ele><time>2026-08-20T12:17:03Z</time></trkpt><trkpt lat="60.1301416475" lon="30.5684182327"><ele>49.16</ele><time>2026-08-20T12:17:07Z</time></trkpt><trkpt lat="60.1301862393" lon="30.5684135389"><ele>49.16</ele><time>2026-08-20T12:17:11Z</time></trkpt><trkpt lat="60.1302649453" lon="30.5684308056"><ele>49.16</ele><time>2026-08-20T12:17:23Z</time></trkpt><trkpt lat="60.1303331740" lon="30.5684209149"><ele>49.16</ele><time>2026-08-20T12:17:36Z</time></trkpt><trkpt lat="60.1305375248" lon="30.5684345774"><ele>49.16</ele><time>2026-08-20T12:17:49Z</time></trkpt><trkpt lat="60.1306246966" lon="30.5682345014"><ele>49.16</ele><time>2026-08-20T12:18:01Z</time></trkpt><trkpt lat="60.1306619123" lon="30.5681469943"><ele>49.16</ele><time>2026-08-20T12:18:07Z</time></trkpt><trkpt lat="60.1307714637" lon="30.5680269655"><ele>49.16</ele><time>2026-08-20T12:18:19Z</time></trkpt><trkpt lat="60.1308318134" lon="30.5679387879"><ele>48.68</ele><time>2026-08-20T12:18:26Z</time></trkpt><trkpt lat="60.1309587155" lon="30.5678121373"><ele>49.65</ele><time>2026-08-20T12:18:38Z</time></trkpt><trkpt lat="60.1310768165" lon="30.5677923560"><ele>50.13</ele><time>2026-08-20T12:18:53Z</time></trkpt><trkpt lat="60.1311680954" lon="30.5677056871"><ele>50.13</ele><time>2026-08-20T12:19:04Z</time></trkpt><trkpt lat="60.1313278545" lon="30.5675538909"><ele>50.13</ele><time>2026-08-20T12:19:20Z</time></trkpt><trkpt lat="60.1314365678" lon="30.5674398132"><ele>49.65</ele><time>2026-08-20T12:19:34Z</time></trkpt><trkpt lat="60.1315094065" lon="30.5673434213"><ele>51.09</ele><time>2026-08-20T12:19:45Z</time></trkpt><trkpt lat="60.1316420082" lon="30.5671530683"><ele>51.09</ele><time>2026-08-20T12:19:59Z</time></trkpt><trkpt lat="60.1317571755" lon="30.5670982506"><ele>51.09</ele><time>2026-08-20T12:20:13Z</time></trkpt><trkpt lat="60.1318774559" lon="30.5669912137"><ele>51.09</ele><time>2026-08-20T12:20:26Z</time></trkpt><trkpt lat="60.1320088003" lon="30.5668456201"><ele>49.65</ele><time>2026-08-20T12:20:40Z</time></trkpt><trkpt lat="60.1321110595" lon="30.5668102484"><ele>49.65</ele><time>2026-08-20T12:20:53Z</time></trkpt><trkpt lat="60.1322428230" lon="30.5667339731"><ele>49.65</ele><time>2026-08-20T12:21:08Z</time></trkpt><trkpt lat="60.1324111316" lon="30.5667928141"><ele>49.65</ele><time>2026-08-20T12:21:21Z</time></trkpt><trkpt lat="60.1325040869" lon="30.5668125115"><ele>50.13</ele><time>2026-08-20T12:21:34Z</time></trkpt><trkpt lat="60.1326649357" lon="30.5667652376"><ele>50.61</ele><time>2026-08-20T12:21:45Z</time></trkpt><trkpt lat="60.1326941885" lon="30.5667492282"><ele>50.61</ele><time>2026-08-20T12:22:10Z</time></trkpt><trkpt lat="60.1327116229" lon="30.5667495634"><ele>50.61</ele><time>2026-08-20T12:22:34Z</time></trkpt><trkpt lat="60.1327229384" lon="30.5667643156"><ele>50.61</ele><time>2026-08-20T12:22:57Z</time></trkpt><trkpt lat="60.1327275485" lon="30.5667685065"><ele>50.61</ele><time>2026-08-20T12:23:18Z</time></trkpt><trkpt lat="60.1327183284" lon="30.5667725299"><ele>51.09</ele><time>2026-08-20T12:23:44Z</time></trkpt><trkpt lat="60.1327870600" lon="30.5666835979"><ele>51.09</ele><time>2026-08-20T12:23:58Z</time></trkpt><trkpt lat="60.1329517644" lon="30.5665084999"><ele>51.57</ele><time>2026-08-20T12:24:13Z</time></trkpt><trkpt lat="60.1329831965" lon="30.5664619803"><ele>51.57</ele><time>2026-08-20T12:24:15Z</time></trkpt><trkpt lat="60.1330101024" lon="30.5664066598"><ele>51.57</ele><time>2026-08-20T12:24:18Z</time></trkpt><trkpt lat="60.1331396867" lon="30.5662689451"><ele>52.05</ele><time>2026-08-20T12:24:32Z</time></trkpt><trkpt lat="60.1332803350" lon="30.5660681985"><ele>52.05</ele><time>2026-08-20T12:24:44Z</time></trkpt><trkpt lat="60.1333105937" lon="30.5660013109"><ele>52.05</ele><time>2026-08-20T12:24:47Z</time></trkpt><trkpt lat="60.1333775651" lon="30.5659635086"><ele>52.53</ele><time>2026-08-20T12:24:52Z</time></trkpt><trkpt lat="60.1334964205" lon="30.5657738261"><ele>53.01</ele><time>2026-08-20T12:25:09Z</time></trkpt><trkpt lat="60.1335690077" lon="30.5656972993"><ele>55.41</ele><time>2026-08-20T12:25:20Z</time></trkpt><trkpt lat="60.1335944887" lon="30.5656907614"><ele>56.37</ele><time>2026-08-20T12:25:22Z</time></trkpt><trkpt lat="60.1336773857" lon="30.5655528791"><ele>56.86</ele><time>2026-08-20T12:25:31Z</time></trkpt><trkpt lat="60.1336713508" lon="30.5654569902"><ele>56.86</ele><time>2026-08-20T12:25:35Z</time></trkpt><trkpt lat="60.1336158626" lon="30.5651640426"><ele>56.37</ele><time>2026-08-20T12:25:47Z</time></trkpt><trkpt lat="60.1335538365" lon="30.5649397429"><ele>56.37</ele><time>2026-08-20T12:25:58Z</time></trkpt><trkpt lat="60.1334981807" lon="30.5647576880"><ele>56.37</ele><time>2026-08-20T12:26:09Z</time></trkpt><trkpt lat="60.1334773935" lon="30.5647154432"><ele>56.37</ele><time>2026-08-20T12:26:12Z</time></trkpt><trkpt lat="60.1333878748" lon="30.5644736253"><ele>56.37</ele><time>2026-08-20T12:26:25Z</time></trkpt><trkpt lat="60.1333350688" lon="30.5643183924"><ele>56.37</ele><time>2026-08-20T12:26:33Z</time></trkpt><trkpt lat="60.1333281118" lon="30.5642642453"><ele>56.37</ele><time>2026-08-20T12:26:35Z</time></trkpt><trkpt lat="60.1332985237" lon="30.5642025545"><ele>56.37</ele><time>2026-08-20T12:26:38Z</time></trkpt><trkpt lat="60.1332623977" lon="30.5641150475"><ele>56.37</ele><time>2026-08-20T12:26:42Z</time></trkpt><trkpt lat="60.1331783272" lon="30.5638795998"><ele>56.37</ele><time>2026-08-20T12:26:53Z</time></trkpt><trkpt lat="60.1331408601" lon="30.5637779273"><ele>56.37</ele><time>2026-08-20T12:26:59Z</time></trkpt><trkpt lat="60.1331275329" lon="30.5636994727"><ele>56.37</ele><time>2026-08-20T12:27:03Z</time></trkpt><trkpt lat="60.1330989506" lon="30.5636482593"><ele>56.37</ele><time>2026-08-20T12:27:07Z</time></trkpt><trkpt lat="60.1330832765" lon="30.5635850597"><ele>56.86</ele><time>2026-08-20T12:27:10Z</time></trkpt><trkpt lat="60.1330179814" lon="30.5633760151"><ele>56.86</ele><time>2026-08-20T12:27:22Z</time></trkpt><trkpt lat="60.1329532731" lon="30.5631865840"><ele>56.86</ele><time>2026-08-20T12:27:33Z</time></trkpt><trkpt lat="60.1329313125" lon="30.5631909426"><ele>55.89</ele><time>2026-08-20T12:27:50Z</time></trkpt><trkpt lat="60.1329581346" lon="30.5633204430"><ele>55.89</ele><time>2026-08-20T12:28:02Z</time></trkpt><trkpt lat="60.1329636667" lon="30.5633353628"><ele>55.89</ele><time>2026-08-20T12:28:26Z</time></trkpt><trkpt lat="60.1329532731" lon="30.5633213650"><ele>55.89</ele><time>2026-08-20T12:28:55Z</time></trkpt><trkpt lat="60.1329215895" lon="30.5632011686"><ele>55.89</ele><time>2026-08-20T12:29:01Z</time></trkpt><trkpt lat="60.1328775845" lon="30.5630175211"><ele>55.89</ele><time>2026-08-20T12:29:11Z</time></trkpt><trkpt lat="60.1328709628" lon="30.5629534833"><ele>55.41</ele><time>2026-08-20T12:29:23Z</time></trkpt><trkpt lat="60.1328302268" lon="30.5628332030"><ele>55.41</ele><time>2026-08-20T12:29:29Z</time></trkpt><trkpt lat="60.1327727269" lon="30.5626867712"><ele>55.41</ele><time>2026-08-20T12:29:40Z</time></trkpt><trkpt lat="60.1327666081" lon="30.5626557581"><ele>55.41</ele><time>2026-08-20T12:29:42Z</time></trkpt><trkpt lat="60.1326671988" lon="30.5624877848"><ele>55.41</ele><time>2026-08-20T12:29:55Z</time></trkpt><trkpt lat="60.1326377783" lon="30.5622706097"><ele>55.41</ele><time>2026-08-20T12:30:06Z</time></trkpt><trkpt lat="60.1326115429" lon="30.5621925741"><ele>55.41</ele><time>2026-08-20T12:30:19Z</time></trkpt><trkpt lat="60.1326051727" lon="30.5621718708"><ele>54.93</ele><time>2026-08-20T12:30:49Z</time></trkpt><trkpt lat="60.1325994730" lon="30.5621528439"><ele>54.93</ele><time>2026-08-20T12:31:04Z</time></trkpt><trkpt lat="60.1325690467" lon="30.5620673485"><ele>54.93</ele><time>2026-08-20T12:31:15Z</time></trkpt><trkpt lat="60.1325074397" lon="30.5619045720"><ele>54.93</ele><time>2026-08-20T12:31:28Z</time></trkpt><trkpt lat="60.1324415579" lon="30.5617186613"><ele>54.93</ele><time>2026-08-20T12:31:40Z</time></trkpt><trkpt lat="60.1324115507" lon="30.5616601557"><ele>54.93</ele><time>2026-08-20T12:31:45Z</time></trkpt><trkpt lat="60.1323486026" lon="30.5615053419"><ele>54.93</ele><time>2026-08-20T12:31:52Z</time></trkpt><trkpt lat="60.1323243789" lon="30.5614299048"><ele>54.93</ele><time>2026-08-20T12:31:56Z</time></trkpt><trkpt lat="60.1322943717" lon="30.5613734946"><ele>54.93</ele><time>2026-08-20T12:31:59Z</time></trkpt><trkpt lat="60.1322766859" lon="30.5612847302"><ele>54.93</ele><time>2026-08-20T12:32:03Z</time></trkpt><trkpt lat="60.1322153304" lon="30.5611386336"><ele>54.93</ele><time>2026-08-20T12:32:09Z</time></trkpt><trkpt lat="60.1321348641" lon="30.5608636234"><ele>54.93</ele><time>2026-08-20T12:32:24Z</time></trkpt><trkpt lat="60.1321683079" lon="30.5608829018"><ele>54.93</ele><time>2026-08-20T12:32:33Z</time></trkpt><trkpt lat="60.1321801264" lon="30.5608861707"><ele>54.93</ele><time>2026-08-20T12:32:38Z</time></trkpt><trkpt lat="60.1322147436" lon="30.5607846659"><ele>54.93</ele><time>2026-08-20T12:32:44Z</time></trkpt><trkpt lat="60.1322869956" lon="30.5606584344"><ele>54.93</ele><time>2026-08-20T12:32:54Z</time></trkpt><trkpt lat="60.1322869118" lon="30.5606414191"><ele>54.93</ele><time>2026-08-20T12:33:07Z</time></trkpt><trkpt lat="60.1322868280" lon="30.5606384855"><ele>54.93</ele><time>2026-08-20T12:33:33Z</time></trkpt><trkpt lat="60.1322631910" lon="30.5606329534"><ele>54.93</ele><time>2026-08-20T12:33:45Z</time></trkpt><trkpt lat="60.1322531328" lon="30.5606855080"><ele>54.93</ele><time>2026-08-20T12:33:48Z</time></trkpt><trkpt lat="60.1322080381" lon="30.5607838277"><ele>54.93</ele><time>2026-08-20T12:33:53Z</time></trkpt><trkpt lat="60.1321826410" lon="30.5608652998"><ele>54.93</ele><time>2026-08-20T12:33:57Z</time></trkpt><trkpt lat="60.1321346965" lon="30.5609492026"><ele>54.93</ele><time>2026-08-20T12:34:01Z</time></trkpt><trkpt lat="60.1321231294" lon="30.5609069578"><ele>54.93</ele><time>2026-08-20T12:34:03Z</time></trkpt><trkpt lat="60.1321208663" lon="30.5608295929"><ele>54.93</ele><time>2026-08-20T12:34:06Z</time></trkpt><trkpt lat="60.1320797950" lon="30.5606856756"><ele>54.93</ele><time>2026-08-20T12:34:13Z</time></trkpt><trkpt lat="60.1320108119" lon="30.5604857672"><ele>54.93</ele><time>2026-08-20T12:34:23Z</time></trkpt><trkpt lat="60.1319730934" lon="30.5604099110"><ele>54.93</ele><time>2026-08-20T12:34:27Z</time></trkpt><trkpt lat="60.1319624484" lon="30.5603426881"><ele>54.93</ele><time>2026-08-20T12:34:30Z</time></trkpt><trkpt lat="60.1318798028" lon="30.5601545144"><ele>54.93</ele><time>2026-08-20T12:34:42Z</time></trkpt><trkpt lat="60.1318161003" lon="30.5600308813"><ele>54.93</ele><time>2026-08-20T12:34:53Z</time></trkpt><trkpt lat="60.1317995880" lon="30.5599805899"><ele>54.93</ele><time>2026-08-20T12:34:56Z</time></trkpt><trkpt lat="60.1317912061" lon="30.5598779954"><ele>54.93</ele><time>2026-08-20T12:35:00Z</time></trkpt><trkpt lat="60.1317377295" lon="30.5598190706"><ele>54.93</ele><time>2026-08-20T12:35:05Z</time></trkpt><trkpt lat="60.1317256596" lon="30.5597744789"><ele>54.93</ele><time>2026-08-20T12:35:07Z</time></trkpt><trkpt lat="60.1317193732" lon="30.5597018078"><ele>54.93</ele><time>2026-08-20T12:35:10Z</time></trkpt><trkpt lat="60.1316614542" lon="30.5595067609"><ele>54.93</ele><time>2026-08-20T12:35:20Z</time></trkpt><trkpt lat="60.1316585205" lon="30.5594885722"><ele>54.93</ele><time>2026-08-20T12:35:21Z</time></trkpt><trkpt lat="60.1316510607" lon="30.5594572239"><ele>54.93</ele><time>2026-08-20T12:35:23Z</time></trkpt><trkpt lat="60.1315504778" lon="30.5592064373"><ele>54.93</ele><time>2026-08-20T12:35:35Z</time></trkpt><trkpt lat="60.1314804051" lon="30.5590131506"><ele>54.93</ele><time>2026-08-20T12:35:44Z</time></trkpt><trkpt lat="60.1314084046" lon="30.5588051118"><ele>54.93</ele><time>2026-08-20T12:35:55Z</time></trkpt><trkpt lat="60.1313538384" lon="30.5586329475"><ele>55.89</ele><time>2026-08-20T12:36:05Z</time></trkpt><trkpt lat="60.1312936563" lon="30.5584537424"><ele>56.37</ele><time>2026-08-20T12:36:15Z</time></trkpt><trkpt lat="60.1312651578" lon="30.5583909620"><ele>55.89</ele><time>2026-08-20T12:36:24Z</time></trkpt><trkpt lat="60.1312054787" lon="30.5581462104"><ele>55.89</ele><time>2026-08-20T12:36:36Z</time></trkpt><trkpt lat="60.1311887149" lon="30.5580882076"><ele>55.89</ele><time>2026-08-20T12:36:39Z</time></trkpt><trkpt lat="60.1311269403" lon="30.5579043925"><ele>56.86</ele><time>2026-08-20T12:36:50Z</time></trkpt><trkpt lat="60.1310777385" lon="30.5577660911"><ele>56.86</ele><time>2026-08-20T12:36:58Z</time></trkpt><trkpt lat="60.1310022175" lon="30.5576327350"><ele>56.86</ele><time>2026-08-20T12:37:08Z</time></trkpt><trkpt lat="60.1309507526" lon="30.5574430525"><ele>57.34</ele><time>2026-08-20T12:37:20Z</time></trkpt><trkpt lat="60.1309341565" lon="30.5573919229"><ele>56.86</ele><time>2026-08-20T12:37:23Z</time></trkpt><trkpt lat="60.1308867987" lon="30.5573443975"><ele>57.82</ele><time>2026-08-20T12:37:33Z</time></trkpt><trkpt lat="60.1308798417" lon="30.5573345069"><ele>57.82</ele><time>2026-08-20T12:37:42Z</time></trkpt><trkpt lat="60.1308751479" lon="30.5573184974"><ele>57.82</ele><time>2026-08-20T12:37:44Z</time></trkpt><trkpt lat="60.1308591384" lon="30.5573025718"><ele>57.82</ele><time>2026-08-20T12:37:45Z</time></trkpt><trkpt lat="60.1308360044" lon="30.5572109576"><ele>57.82</ele><time>2026-08-20T12:37:50Z</time></trkpt><trkpt lat="60.1308059972" lon="30.5571534578"><ele>57.34</ele><time>2026-08-20T12:37:53Z</time></trkpt><trkpt lat="60.1307879761" lon="30.5570682138"><ele>57.34</ele><time>2026-08-20T12:37:58Z</time></trkpt><trkpt lat="60.1307500061" lon="30.5569764320"><ele>57.34</ele><time>2026-08-20T12:38:03Z</time></trkpt><trkpt lat="60.1307276264" lon="30.5569401383"><ele>58.30</ele><time>2026-08-20T12:38:05Z</time></trkpt><trkpt lat="60.1306687854" lon="30.5567222927"><ele>58.30</ele><time>2026-08-20T12:38:15Z</time></trkpt><trkpt lat="60.1306121238" lon="30.5565487873"><ele>57.82</ele><time>2026-08-20T12:38:24Z</time></trkpt><trkpt lat="60.1305285562" lon="30.5563570932"><ele>58.78</ele><time>2026-08-20T12:38:35Z</time></trkpt><trkpt lat="60.1304712240" lon="30.5561869405"><ele>58.30</ele><time>2026-08-20T12:38:44Z</time></trkpt><trkpt lat="60.1304609980" lon="30.5561560113"><ele>59.26</ele><time>2026-08-20T12:38:46Z</time></trkpt><trkpt lat="60.1304283086" lon="30.5560284387"><ele>59.26</ele><time>2026-08-20T12:38:52Z</time></trkpt><trkpt lat="60.1304204296" lon="30.5559657421"><ele>59.26</ele><time>2026-08-20T12:38:54Z</time></trkpt><trkpt lat="60.1303799450" lon="30.5558474734"><ele>59.74</ele><time>2026-08-20T12:39:05Z</time></trkpt><trkpt lat="60.1303310785" lon="30.5557442084"><ele>59.26</ele><time>2026-08-20T12:39:24Z</time></trkpt><trkpt lat="60.1303189248" lon="30.5557073280"><ele>59.26</ele><time>2026-08-20T12:39:26Z</time></trkpt><trkpt lat="60.1303042565" lon="30.5556634907"><ele>59.26</ele><time>2026-08-20T12:39:28Z</time></trkpt><trkpt lat="60.1302838046" lon="30.5555636622"><ele>59.26</ele><time>2026-08-20T12:39:33Z</time></trkpt><trkpt lat="60.1302337646" lon="30.5554116145"><ele>60.22</ele><time>2026-08-20T12:39:41Z</time></trkpt><trkpt lat="60.1302223653" lon="30.5553728901"><ele>60.22</ele><time>2026-08-20T12:39:43Z</time></trkpt><trkpt lat="60.1302391291" lon="30.5553293880"><ele>60.70</ele><time>2026-08-20T12:39:58Z</time></trkpt><trkpt lat="60.1302335970" lon="30.5553287175"><ele>60.70</ele><time>2026-08-20T12:40:20Z</time></trkpt><trkpt lat="60.1302130613" lon="30.5552953575"><ele>60.22</ele><time>2026-08-20T12:40:33Z</time></trkpt><trkpt lat="60.1301636919" lon="30.5552088562"><ele>60.22</ele><time>2026-08-20T12:40:39Z</time></trkpt><trkpt lat="60.1301015820" lon="30.5551014002"><ele>60.22</ele><time>2026-08-20T12:40:49Z</time></trkpt><trkpt lat="60.1300697308" lon="30.5550161563"><ele>60.22</ele><time>2026-08-20T12:40:53Z</time></trkpt><trkpt lat="60.1300135721" lon="30.5548851471"><ele>61.18</ele><time>2026-08-20T12:41:02Z</time></trkpt><trkpt lat="60.1299952995" lon="30.5548905954"><ele>61.18</ele><time>2026-08-20T12:41:06Z</time></trkpt><trkpt lat="60.1299265679" lon="30.5549374502"><ele>61.18</ele><time>2026-08-20T12:41:12Z</time></trkpt><trkpt lat="60.1297722571" lon="30.5549303256"><ele>61.18</ele><time>2026-08-20T12:41:25Z</time></trkpt><trkpt lat="60.1297182776" lon="30.5549360253"><ele>60.70</ele><time>2026-08-20T12:41:30Z</time></trkpt><trkpt lat="60.1296010148" lon="30.5549251288"><ele>60.70</ele><time>2026-08-20T12:41:42Z</time></trkpt><trkpt lat="60.1295052096" lon="30.5548748374"><ele>61.66</ele><time>2026-08-20T12:41:51Z</time></trkpt><trkpt lat="60.1293051336" lon="30.5547496956"><ele>62.14</ele><time>2026-08-20T12:42:04Z</time></trkpt><trkpt lat="60.1291645691" lon="30.5548106320"><ele>63.10</ele><time>2026-08-20T12:42:16Z</time></trkpt><trkpt lat="60.1291391719" lon="30.5548220314"><ele>63.10</ele><time>2026-08-20T12:42:18Z</time></trkpt><trkpt lat="60.1290590409" lon="30.5548606720"><ele>64.55</ele><time>2026-08-20T12:42:25Z</time></trkpt><trkpt lat="60.1290357392" lon="30.5548861530"><ele>64.55</ele><time>2026-08-20T12:42:28Z</time></trkpt><trkpt lat="60.1289834362" lon="30.5549138132"><ele>67.91</ele><time>2026-08-20T12:42:37Z</time></trkpt><trkpt lat="60.1289897226" lon="30.5549203511"><ele>68.39</ele><time>2026-08-20T12:43:00Z</time></trkpt><trkpt lat="60.1289863698" lon="30.5549456645"><ele>68.39</ele><time>2026-08-20T12:43:31Z</time></trkpt><trkpt lat="60.1289822627" lon="30.5549686309"><ele>68.39</ele><time>2026-08-20T12:43:58Z</time></trkpt><trkpt lat="60.1289263554" lon="30.5550526176"><ele>68.39</ele><time>2026-08-20T12:44:09Z</time></trkpt><trkpt lat="60.1287521794" lon="30.5552604049"><ele>68.87</ele><time>2026-08-20T12:44:21Z</time></trkpt><trkpt lat="60.1286467351" lon="30.5554817710"><ele>70.31</ele><time>2026-08-20T12:44:32Z</time></trkpt><trkpt lat="60.1286465675" lon="30.5554842856"><ele>70.79</ele><time>2026-08-20T12:44:33Z</time></trkpt><trkpt lat="60.1285484154" lon="30.5557302106"><ele>72.72</ele><time>2026-08-20T12:44:46Z</time></trkpt><trkpt lat="60.1284606569" lon="30.5559446197"><ele>75.60</ele><time>2026-08-20T12:44:59Z</time></trkpt><trkpt lat="60.1284206752" lon="30.5560664926"><ele>76.56</ele><time>2026-08-20T12:45:12Z</time></trkpt><trkpt lat="60.1284201723" lon="30.5562135950"><ele>77.04</ele><time>2026-08-20T12:45:24Z</time></trkpt><trkpt lat="60.1284160651" lon="30.5562591925"><ele>77.04</ele><time>2026-08-20T12:45:42Z</time></trkpt><trkpt lat="60.1284013968" lon="30.5564372241"><ele>77.04</ele><time>2026-08-20T12:45:56Z</time></trkpt><trkpt lat="60.1283521950" lon="30.5565994978"><ele>77.04</ele><time>2026-08-20T12:46:05Z</time></trkpt><trkpt lat="60.1282180008" lon="30.5569059402"><ele>75.60</ele><time>2026-08-20T12:46:19Z</time></trkpt><trkpt lat="60.1282029133" lon="30.5569390487"><ele>75.60</ele><time>2026-08-20T12:46:21Z</time></trkpt><trkpt lat="60.1280802023" lon="30.5571651924"><ele>75.12</ele><time>2026-08-20T12:46:35Z</time></trkpt><trkpt lat="60.1279552281" lon="30.5573376082"><ele>75.12</ele><time>2026-08-20T12:46:46Z</time></trkpt><trkpt lat="60.1278447546" lon="30.5574512668"><ele>75.12</ele><time>2026-08-20T12:46:57Z</time></trkpt><trkpt lat="60.1277088001" lon="30.5576547794"><ele>76.56</ele><time>2026-08-20T12:47:11Z</time></trkpt><trkpt lat="60.1276187785" lon="30.5577687733"><ele>76.56</ele><time>2026-08-20T12:47:23Z</time></trkpt><trkpt lat="60.1274752803" lon="30.5579378363"><ele>76.56</ele><time>2026-08-20T12:47:36Z</time></trkpt><trkpt lat="60.1273655612" lon="30.5580174644"><ele>77.52</ele><time>2026-08-20T12:47:45Z</time></trkpt><trkpt lat="60.1272272598" lon="30.5581198074"><ele>78.00</ele><time>2026-08-20T12:47:58Z</time></trkpt><trkpt lat="60.1271650661" lon="30.5582310352"><ele>78.48</ele><time>2026-08-20T12:48:16Z</time></trkpt><trkpt lat="60.1271568518" lon="30.5582752917"><ele>78.48</ele><time>2026-08-20T12:48:40Z</time></trkpt><trkpt lat="60.1270159520" lon="30.5584534071"><ele>78.48</ele><time>2026-08-20T12:48:53Z</time></trkpt><trkpt lat="60.1269053947" lon="30.5585159361"><ele>78.48</ele><time>2026-08-20T12:49:04Z</time></trkpt><trkpt lat="60.1268463861" lon="30.5585207138"><ele>78.48</ele><time>2026-08-20T12:49:10Z</time></trkpt><trkpt lat="60.1267722901" lon="30.5587417446"><ele>78.48</ele><time>2026-08-20T12:49:24Z</time></trkpt><trkpt lat="60.1267660875" lon="30.5590585805"><ele>78.97</ele><time>2026-08-20T12:49:38Z</time></trkpt><trkpt lat="60.1267583761" lon="30.5592880771"><ele>78.97</ele><time>2026-08-20T12:49:49Z</time></trkpt><trkpt lat="60.1267386787" lon="30.5594034959"><ele>78.97</ele><time>2026-08-20T12:49:52Z</time></trkpt><trkpt lat="60.1267021336" lon="30.5595513526"><ele>79.45</ele><time>2026-08-20T12:49:57Z</time></trkpt><trkpt lat="60.1266834419" lon="30.5598235969"><ele>79.45</ele><time>2026-08-20T12:50:09Z</time></trkpt><trkpt lat="60.1266655885" lon="30.5599429552"><ele>79.45</ele><time>2026-08-20T12:50:14Z</time></trkpt><trkpt lat="60.1265692804" lon="30.5600398500"><ele>79.45</ele><time>2026-08-20T12:50:26Z</time></trkpt><trkpt lat="60.1265055779" lon="30.5601850245"><ele>79.45</ele><time>2026-08-20T12:50:38Z</time></trkpt><trkpt lat="60.1264339965" lon="30.5603032093"><ele>79.45</ele><time>2026-08-20T12:50:50Z</time></trkpt><trkpt lat="60.1264262851" lon="30.5603036284"><ele>79.45</ele><time>2026-08-20T12:51:13Z</time></trkpt><trkpt lat="60.1263744012" lon="30.5603369046"><ele>79.45</ele><time>2026-08-20T12:51:32Z</time></trkpt><trkpt lat="60.1263107825" lon="30.5603490584"><ele>79.45</ele><time>2026-08-20T12:51:44Z</time></trkpt><trkpt lat="60.1262474153" lon="30.5603247508"><ele>78.48</ele><time>2026-08-20T12:51:57Z</time></trkpt><trkpt lat="60.1262041647" lon="30.5604419298"><ele>78.48</ele><time>2026-08-20T12:52:08Z</time></trkpt><trkpt lat="60.1261561364" lon="30.5604749545"><ele>78.48</ele><time>2026-08-20T12:52:12Z</time></trkpt><trkpt lat="60.1260392088" lon="30.5605369806"><ele>78.48</ele><time>2026-08-20T12:52:23Z</time></trkpt><trkpt lat="60.1259974670" lon="30.5605359748"><ele>78.48</ele><time>2026-08-20T12:52:26Z</time></trkpt><trkpt lat="60.1258653682" lon="30.5606039520"><ele>78.48</ele><time>2026-08-20T12:52:38Z</time></trkpt><trkpt lat="60.1258419827" lon="30.5606153514"><ele>78.48</ele><time>2026-08-20T12:52:43Z</time></trkpt><trkpt lat="60.1256838161" lon="30.5608422495"><ele>78.48</ele><time>2026-08-20T12:52:58Z</time></trkpt><trkpt lat="60.1255840715" lon="30.5610820558"><ele>78.48</ele><time>2026-08-20T12:53:10Z</time></trkpt><trkpt lat="60.1255260687" lon="30.5611797050"><ele>78.48</ele><time>2026-08-20T12:53:22Z</time></trkpt><trkpt lat="60.1254723407" lon="30.5612432398"><ele>78.48</ele><time>2026-08-20T12:53:38Z</time></trkpt><trkpt lat="60.1254276652" lon="30.5612603389"><ele>78.48</ele><time>2026-08-20T12:54:04Z</time></trkpt><trkpt lat="60.1254236419" lon="30.5612568185"><ele>78.48</ele><time>2026-08-20T12:54:13Z</time></trkpt><trkpt lat="60.1254424173" lon="30.5612457544"><ele>78.48</ele><time>2026-08-20T12:54:26Z</time></trkpt><trkpt lat="60.1254471112" lon="30.5612584110"><ele>78.48</ele><time>2026-08-20T12:54:49Z</time></trkpt><trkpt lat="60.1254459377" lon="30.5612496939"><ele>78.48</ele><time>2026-08-20T12:55:00Z</time></trkpt><trkpt lat="60.1253616996" lon="30.5610304233"><ele>78.97</ele><time>2026-08-20T12:55:13Z</time></trkpt><trkpt lat="60.1252591889" lon="30.5608578399"><ele>78.97</ele><time>2026-08-20T12:55:25Z</time></trkpt><trkpt lat="60.1252149325" lon="30.5607352965"><ele>78.97</ele><time>2026-08-20T12:55:35Z</time></trkpt><trkpt lat="60.1250696741" lon="30.5605650600"><ele>78.00</ele><time>2026-08-20T12:55:49Z</time></trkpt><trkpt lat="60.1250052173" lon="30.5605399981"><ele>78.00</ele><time>2026-08-20T12:55:54Z</time></trkpt><trkpt lat="60.1249254216" lon="30.5605695024"><ele>78.00</ele><time>2026-08-20T12:56:02Z</time></trkpt><trkpt lat="60.1247586217" lon="30.5604716018"><ele>78.00</ele><time>2026-08-20T12:56:15Z</time></trkpt><trkpt lat="60.1246865373" lon="30.5603785627"><ele>78.00</ele><time>2026-08-20T12:56:23Z</time></trkpt><trkpt lat="60.1245372556" lon="30.5601610523"><ele>77.52</ele><time>2026-08-20T12:56:35Z</time></trkpt><trkpt lat="60.1244476531" lon="30.5600368325"><ele>77.52</ele><time>2026-08-20T12:56:44Z</time></trkpt><trkpt lat="60.1243510097" lon="30.5599575397"><ele>77.52</ele><time>2026-08-20T12:56:55Z</time></trkpt><trkpt lat="60.1243461482" lon="30.5599412788"><ele>77.52</ele><time>2026-08-20T12:57:18Z</time></trkpt><trkpt lat="60.1243448071" lon="30.5599385127"><ele>77.52</ele><time>2026-08-20T12:57:34Z</time></trkpt><trkpt lat="60.1243350003" lon="30.5599385966"><ele>77.52</ele><time>2026-08-20T12:57:51Z</time></trkpt><trkpt lat="60.1243356708" lon="30.5599316396"><ele>78.00</ele><time>2026-08-20T12:58:08Z</time></trkpt><trkpt lat="60.1242709626" lon="30.5599082541"><ele>78.00</ele><time>2026-08-20T12:58:26Z</time></trkpt><trkpt lat="60.1241852157" lon="30.5598630756"><ele>78.00</ele><time>2026-08-20T12:58:35Z</time></trkpt><trkpt lat="60.1240669470" lon="30.5598742235"><ele>78.00</ele><time>2026-08-20T12:58:46Z</time></trkpt><trkpt lat="60.1239962038" lon="30.5598707031"><ele>78.00</ele><time>2026-08-20T12:58:53Z</time></trkpt><trkpt lat="60.1238461677" lon="30.5597246904"><ele>78.00</ele><time>2026-08-20T12:59:08Z</time></trkpt><trkpt lat="60.1237512007" lon="30.5597285461"><ele>78.00</ele><time>2026-08-20T12:59:19Z</time></trkpt><trkpt lat="60.1236756798" lon="30.5597893987"><ele>78.00</ele><time>2026-08-20T12:59:28Z</time></trkpt><trkpt lat="60.1235705707" lon="30.5598686077"><ele>78.00</ele><time>2026-08-20T12:59:39Z</time></trkpt><trkpt lat="60.1234505419" lon="30.5599039793"><ele>78.00</ele><time>2026-08-20T12:59:51Z</time></trkpt><trkpt lat="60.1232767850" lon="30.5599603895"><ele>77.52</ele><time>2026-08-20T13:00:03Z</time></trkpt><trkpt lat="60.1231391542" lon="30.5600540154"><ele>77.52</ele><time>2026-08-20T13:00:15Z</time></trkpt><trkpt lat="60.1229904592" lon="30.5599653348"><ele>77.04</ele><time>2026-08-20T13:00:30Z</time></trkpt><trkpt lat="60.1229129266" lon="30.5598272849"><ele>77.04</ele><time>2026-08-20T13:00:41Z</time></trkpt><trkpt lat="60.1228894573" lon="30.5597875547"><ele>77.04</ele><time>2026-08-20T13:00:44Z</time></trkpt><trkpt lat="60.1228788123" lon="30.5597538594"><ele>77.04</ele><time>2026-08-20T13:00:46Z</time></trkpt><trkpt lat="60.1228433568" lon="30.5596776679"><ele>77.04</ele><time>2026-08-20T13:00:51Z</time></trkpt><trkpt lat="60.1228391659" lon="30.5596341658"><ele>77.04</ele><time>2026-08-20T13:00:53Z</time></trkpt><trkpt lat="60.1227129344" lon="30.5595195014"><ele>77.04</ele><time>2026-08-20T13:01:06Z</time></trkpt><trkpt lat="60.1226061489" lon="30.5593858939"><ele>77.04</ele><time>2026-08-20T13:01:19Z</time></trkpt><trkpt lat="60.1225253474" lon="30.5591920204"><ele>77.04</ele><time>2026-08-20T13:01:31Z</time></trkpt><trkpt lat="60.1224929094" lon="30.5589516275"><ele>77.04</ele><time>2026-08-20T13:01:43Z</time></trkpt><trkpt lat="60.1224763971" lon="30.5588987377"><ele>77.04</ele><time>2026-08-20T13:01:58Z</time></trkpt><trkpt lat="60.1224737149" lon="30.5588577501"><ele>77.04</ele><time>2026-08-20T13:02:27Z</time></trkpt><trkpt lat="60.1224719547" lon="30.5588652939"><ele>77.04</ele><time>2026-08-20T13:02:56Z</time></trkpt><trkpt lat="60.1224693563" lon="30.5588669702"><ele>77.52</ele><time>2026-08-20T13:03:19Z</time></trkpt><trkpt lat="60.1224376727" lon="30.5587908626"><ele>77.52</ele><time>2026-08-20T13:03:23Z</time></trkpt><trkpt lat="60.1223923266" lon="30.5585026089"><ele>77.52</ele><time>2026-08-20T13:03:35Z</time></trkpt><trkpt lat="60.1223849505" lon="30.5584777147"><ele>77.52</ele><time>2026-08-20T13:03:36Z</time></trkpt><trkpt lat="60.1222733874" lon="30.5582036264"><ele>77.52</ele><time>2026-08-20T13:03:50Z</time></trkpt><trkpt lat="60.1222702023" lon="30.5581861082"><ele>77.52</ele><time>2026-08-20T13:03:51Z</time></trkpt><trkpt lat="60.1222307235" lon="30.5580587871"><ele>77.52</ele><time>2026-08-20T13:03:58Z</time></trkpt><trkpt lat="60.1221678592" lon="30.5579611380"><ele>77.52</ele><time>2026-08-20T13:04:05Z</time></trkpt><trkpt lat="60.1220617443" lon="30.5577183980"><ele>77.52</ele><time>2026-08-20T13:04:18Z</time></trkpt><trkpt lat="60.1220593136" lon="30.5576931685"><ele>77.52</ele><time>2026-08-20T13:04:19Z</time></trkpt><trkpt lat="60.1219968684" lon="30.5574066751"><ele>77.52</ele><time>2026-08-20T13:04:32Z</time></trkpt><trkpt lat="60.1219226886" lon="30.5571516976"><ele>77.52</ele><time>2026-08-20T13:04:43Z</time></trkpt><trkpt lat="60.1218713075" lon="30.5569859874"><ele>77.52</ele><time>2026-08-20T13:04:50Z</time></trkpt><trkpt lat="60.1217691321" lon="30.5568024237"><ele>77.04</ele><time>2026-08-20T13:05:03Z</time></trkpt><trkpt lat="60.1217399631" lon="30.5567115638"><ele>77.04</ele><time>2026-08-20T13:05:07Z</time></trkpt><trkpt lat="60.1217150688" lon="30.5566004198"><ele>77.04</ele><time>2026-08-20T13:05:11Z</time></trkpt><trkpt lat="60.1216125581" lon="30.5563353840"><ele>77.04</ele><time>2026-08-20T13:05:23Z</time></trkpt><trkpt lat="60.1214754302" lon="30.5562021956"><ele>77.04</ele><time>2026-08-20T13:05:38Z</time></trkpt><trkpt lat="60.1213056128" lon="30.5560976733"><ele>77.04</ele><time>2026-08-20T13:05:49Z</time></trkpt><trkpt lat="60.1212409884" lon="30.5560303666"><ele>77.04</ele><time>2026-08-20T13:06:01Z</time></trkpt><trkpt lat="60.1212396473" lon="30.5560572725"><ele>77.52</ele><time>2026-08-20T13:06:24Z</time></trkpt><trkpt lat="60.1213300042" lon="30.5561622139"><ele>77.52</ele><time>2026-08-20T13:06:36Z</time></trkpt><trkpt lat="60.1214168407" lon="30.5562598631"><ele>77.52</ele><time>2026-08-20T13:06:46Z</time></trkpt><trkpt lat="60.1215258054" lon="30.5563923810"><ele>77.52</ele><time>2026-08-20T13:06:59Z</time></trkpt><trkpt lat="60.1216340158" lon="30.5565093923"><ele>77.52</ele><time>2026-08-20T13:07:12Z</time></trkpt><trkpt lat="60.1217171643" lon="30.5566808861"><ele>77.52</ele><time>2026-08-20T13:07:25Z</time></trkpt><trkpt lat="60.1217643544" lon="30.5568172596"><ele>77.52</ele><time>2026-08-20T13:07:37Z</time></trkpt><trkpt lat="60.1217502728" lon="30.5567521323"><ele>77.52</ele><time>2026-08-20T13:07:41Z</time></trkpt><trkpt lat="60.1217066031" lon="30.5566001683"><ele>77.52</ele><time>2026-08-20T13:07:48Z</time></trkpt><trkpt lat="60.1216731593" lon="30.5565069616"><ele>77.52</ele><time>2026-08-20T13:07:52Z</time></trkpt><trkpt lat="60.1216557249" lon="30.5564567540"><ele>77.52</ele><time>2026-08-20T13:07:54Z</time></trkpt><trkpt lat="60.1216459181" lon="30.5564368889"><ele>77.52</ele><time>2026-08-20T13:07:55Z</time></trkpt><trkpt lat="60.1215253863" lon="30.5562561750"><ele>77.52</ele><time>2026-08-20T13:08:08Z</time></trkpt><trkpt lat="60.1213948801" lon="30.5561537482"><ele>77.52</ele><time>2026-08-20T13:08:19Z</time></trkpt><trkpt lat="60.1212647092" lon="30.5560664926"><ele>77.52</ele><time>2026-08-20T13:08:28Z</time></trkpt><trkpt lat="60.1212212909" lon="30.5559919775"><ele>77.52</ele><time>2026-08-20T13:08:41Z</time></trkpt><trkpt lat="60.1212227158" lon="30.5559805781"><ele>78.00</ele><time>2026-08-20T13:09:00Z</time></trkpt><trkpt lat="60.1212145016" lon="30.5559591204"><ele>78.00</ele><time>2026-08-20T13:09:29Z</time></trkpt><trkpt lat="60.1212003361" lon="30.5559379980"><ele>78.00</ele><time>2026-08-20T13:09:42Z</time></trkpt><trkpt lat="60.1211010944" lon="30.5557697732"><ele>78.00</ele><time>2026-08-20T13:09:54Z</time></trkpt><trkpt lat="60.1210572571" lon="30.5557271931"><ele>78.00</ele><time>2026-08-20T13:09:58Z</time></trkpt><trkpt lat="60.1209399104" lon="30.5557397660"><ele>78.00</ele><time>2026-08-20T13:10:11Z</time></trkpt><trkpt lat="60.1209060475" lon="30.5557542667"><ele>78.00</ele><time>2026-08-20T13:10:15Z</time></trkpt><trkpt lat="60.1208954025" lon="30.5557547696"><ele>78.00</ele><time>2026-08-20T13:10:16Z</time></trkpt><trkpt lat="60.1208658982" lon="30.5556012131"><ele>78.00</ele><time>2026-08-20T13:10:25Z</time></trkpt><trkpt lat="60.1208801474" lon="30.5553576350"><ele>78.00</ele><time>2026-08-20T13:10:37Z</time></trkpt><trkpt lat="60.1209067181" lon="30.5551749934"><ele>79.45</ele><time>2026-08-20T13:10:49Z</time></trkpt><trkpt lat="60.1210036967" lon="30.5550564732"><ele>79.45</ele><time>2026-08-20T13:11:03Z</time></trkpt><trkpt lat="60.1210738532" lon="30.5550082773"><ele>79.45</ele><time>2026-08-20T13:11:11Z</time></trkpt><trkpt lat="60.1212046109" lon="30.5548700597"><ele>79.45</ele><time>2026-08-20T13:11:24Z</time></trkpt><trkpt lat="60.1212923694" lon="30.5547414813"><ele>79.45</ele><time>2026-08-20T13:11:37Z</time></trkpt><trkpt lat="60.1213984843" lon="30.5546519626"><ele>77.52</ele><time>2026-08-20T13:11:51Z</time></trkpt><trkpt lat="60.1214475185" lon="30.5545065366"><ele>75.60</ele><time>2026-08-20T13:12:06Z</time></trkpt><trkpt lat="60.1215175912" lon="30.5543855019"><ele>73.68</ele><time>2026-08-20T13:12:18Z</time></trkpt><trkpt lat="60.1215176750" lon="30.5541317817"><ele>71.27</ele><time>2026-08-20T13:12:31Z</time></trkpt><trkpt lat="60.1214684732" lon="30.5539881997"><ele>70.31</ele><time>2026-08-20T13:12:43Z</time></trkpt><trkpt lat="60.1214553975" lon="30.5538260937"><ele>69.35</ele><time>2026-08-20T13:12:55Z</time></trkpt><trkpt lat="60.1215597522" lon="30.5537248403"><ele>67.43</ele><time>2026-08-20T13:13:08Z</time></trkpt><trkpt lat="60.1215836406" lon="30.5537331384"><ele>66.47</ele><time>2026-08-20T13:13:28Z</time></trkpt><trkpt lat="60.1215706486" lon="30.5536475591"><ele>66.47</ele><time>2026-08-20T13:13:49Z</time></trkpt><trkpt lat="60.1215689722" lon="30.5534283724"><ele>65.03</ele><time>2026-08-20T13:14:03Z</time></trkpt><trkpt lat="60.1215360314" lon="30.5533650890"><ele>65.51</ele><time>2026-08-20T13:14:09Z</time></trkpt><trkpt lat="60.1214650366" lon="30.5531311501"><ele>64.07</ele><time>2026-08-20T13:14:22Z</time></trkpt><trkpt lat="60.1213937066" lon="30.5529893283"><ele>63.10</ele><time>2026-08-20T13:14:34Z</time></trkpt><trkpt lat="60.1213072892" lon="30.5527917668"><ele>62.62</ele><time>2026-08-20T13:14:45Z</time></trkpt><trkpt lat="60.1212888490" lon="30.5527342670"><ele>61.66</ele><time>2026-08-20T13:14:58Z</time></trkpt><trkpt lat="60.1212875918" lon="30.5527408887"><ele>61.66</ele><time>2026-08-20T13:15:03Z</time></trkpt><trkpt lat="60.1212569978" lon="30.5527496058"><ele>61.66</ele><time>2026-08-20T13:15:19Z</time></trkpt><trkpt lat="60.1212489512" lon="30.5527359433"><ele>61.66</ele><time>2026-08-20T13:15:39Z</time></trkpt><trkpt lat="60.1212000009" lon="30.5527332611"><ele>61.66</ele><time>2026-08-20T13:15:47Z</time></trkpt><trkpt lat="60.1211761124" lon="30.5526708998"><ele>61.66</ele><time>2026-08-20T13:15:58Z</time></trkpt><trkpt lat="60.1211404055" lon="30.5525676347"><ele>61.66</ele><time>2026-08-20T13:16:10Z</time></trkpt><trkpt lat="60.1211245637" lon="30.5525311735"><ele>61.66</ele><time>2026-08-20T13:16:12Z</time></trkpt><trkpt lat="60.1210696623" lon="30.5523884296"><ele>61.66</ele><time>2026-08-20T13:16:22Z</time></trkpt><trkpt lat="60.1209358033" lon="30.5522664730"><ele>62.62</ele><time>2026-08-20T13:16:35Z</time></trkpt><trkpt lat="60.1209039520" lon="30.5521471985"><ele>63.10</ele><time>2026-08-20T13:16:46Z</time></trkpt><trkpt lat="60.1208985876" lon="30.5521607772"><ele>63.10</ele><time>2026-08-20T13:16:49Z</time></trkpt><trkpt lat="60.1208593603" lon="30.5521429237"><ele>63.58</ele><time>2026-08-20T13:16:53Z</time></trkpt><trkpt lat="60.1207643095" lon="30.5520377308"><ele>64.55</ele><time>2026-08-20T13:17:04Z</time></trkpt><trkpt lat="60.1206721924" lon="30.5519032013"><ele>65.51</ele><time>2026-08-20T13:17:16Z</time></trkpt><trkpt lat="60.1206310373" lon="30.5517971702"><ele>65.99</ele><time>2026-08-20T13:17:24Z</time></trkpt><trkpt lat="60.1205987670" lon="30.5517237447"><ele>65.99</ele><time>2026-08-20T13:17:28Z</time></trkpt><trkpt lat="60.1204788219" lon="30.5515378341"><ele>65.99</ele><time>2026-08-20T13:17:42Z</time></trkpt><trkpt lat="60.1203827653" lon="30.5515170470"><ele>66.47</ele><time>2026-08-20T13:17:52Z</time></trkpt><trkpt lat="60.1202754769" lon="30.5513046496"><ele>66.47</ele><time>2026-08-20T13:18:06Z</time></trkpt><trkpt lat="60.1202693582" lon="30.5512773246"><ele>66.47</ele><time>2026-08-20T13:18:07Z</time></trkpt><trkpt lat="60.1201602258" lon="30.5510392785"><ele>64.55</ele><time>2026-08-20T13:18:20Z</time></trkpt><trkpt lat="60.1201437134" lon="30.5509627517"><ele>63.10</ele><time>2026-08-20T13:18:30Z</time></trkpt><trkpt lat="60.1201858744" lon="30.5511002149"><ele>62.62</ele><time>2026-08-20T13:18:41Z</time></trkpt><trkpt lat="60.1202358305" lon="30.5511683598"><ele>62.62</ele><time>2026-08-20T13:18:53Z</time></trkpt><trkpt lat="60.1202780753" lon="30.5511455610"><ele>63.10</ele><time>2026-08-20T13:19:09Z</time></trkpt><trkpt lat="60.1202970184" lon="30.5511170626"><ele>61.18</ele><time>2026-08-20T13:19:23Z</time></trkpt><trkpt lat="60.1203005388" lon="30.5509925075"><ele>59.74</ele><time>2026-08-20T13:19:34Z</time></trkpt><trkpt lat="60.1202950068" lon="30.5509096943"><ele>57.34</ele><time>2026-08-20T13:19:37Z</time></trkpt><trkpt lat="60.1202470623" lon="30.5508095305"><ele>53.97</ele><time>2026-08-20T13:19:43Z</time></trkpt><trkpt lat="60.1201999560" lon="30.5507740751"><ele>54.45</ele><time>2026-08-20T13:19:49Z</time></trkpt><trkpt lat="60.1201826893" lon="30.5507161561"><ele>55.89</ele><time>2026-08-20T13:19:53Z</time></trkpt><trkpt lat="60.1201904006" lon="30.5507238675"><ele>56.37</ele><time>2026-08-20T13:20:03Z</time></trkpt><trkpt lat="60.1201301347" lon="30.5506562255"><ele>56.37</ele><time>2026-08-20T13:20:08Z</time></trkpt><trkpt lat="60.1200897340" lon="30.5505940318"><ele>56.37</ele><time>2026-08-20T13:20:11Z</time></trkpt><trkpt lat="60.1200888958" lon="30.5504957121"><ele>54.93</ele><time>2026-08-20T13:20:17Z</time></trkpt><trkpt lat="60.1201293804" lon="30.5503935367"><ele>53.97</ele><time>2026-08-20T13:20:27Z</time></trkpt><trkpt lat="60.1201441325" lon="30.5503081251"><ele>52.53</ele><time>2026-08-20T13:20:31Z</time></trkpt><trkpt lat="60.1201629918" lon="30.5501772836"><ele>48.20</ele><time>2026-08-20T13:20:37Z</time></trkpt><trkpt lat="60.1201711223" lon="30.5500689894"><ele>46.28</ele><time>2026-08-20T13:20:41Z</time></trkpt><trkpt lat="60.1201965194" lon="30.5498928018"><ele>46.76</ele><time>2026-08-20T13:20:48Z</time></trkpt><trkpt lat="60.1202333998" lon="30.5497156084"><ele>48.20</ele><time>2026-08-20T13:20:58Z</time></trkpt><trkpt lat="60.1202350762" lon="30.5494655762"><ele>48.20</ele><time>2026-08-20T13:21:07Z</time></trkpt><trkpt lat="60.1202542707" lon="30.5494328029"><ele>48.20</ele><time>2026-08-20T13:21:10Z</time></trkpt><trkpt lat="60.1203235053" lon="30.5492872931"><ele>46.76</ele><time>2026-08-20T13:21:19Z</time></trkpt><trkpt lat="60.1203516684" lon="30.5492715351"><ele>46.76</ele><time>2026-08-20T13:21:23Z</time></trkpt><trkpt lat="60.1203840226" lon="30.5492207408"><ele>46.76</ele><time>2026-08-20T13:21:30Z</time></trkpt><trkpt lat="60.1204313803" lon="30.5491351616"><ele>46.76</ele><time>2026-08-20T13:21:42Z</time></trkpt><trkpt lat="60.1204310451" lon="30.5491407774"><ele>46.28</ele><time>2026-08-20T13:21:58Z</time></trkpt><trkpt lat="60.1204321347" lon="30.5491401069"><ele>45.80</ele><time>2026-08-20T13:22:25Z</time></trkpt><trkpt lat="60.1204082463" lon="30.5491570383"><ele>45.80</ele><time>2026-08-20T13:22:50Z</time></trkpt><trkpt lat="60.1204074081" lon="30.5491643306"><ele>45.80</ele><time>2026-08-20T13:23:13Z</time></trkpt><trkpt lat="60.1204313803" lon="30.5491552781"><ele>45.80</ele><time>2026-08-20T13:23:43Z</time></trkpt><trkpt lat="60.1204324700" lon="30.5491549429"><ele>45.80</ele><time>2026-08-20T13:24:09Z</time></trkpt><trkpt lat="60.1204331405" lon="30.5491556134"><ele>45.80</ele><time>2026-08-20T13:24:30Z</time></trkpt><trkpt lat="60.1204355713" lon="30.5491536018"><ele>45.80</ele><time>2026-08-20T13:24:57Z</time></trkpt><trkpt lat="60.1204375830" lon="30.5491515901"><ele>45.80</ele><time>2026-08-20T13:25:24Z</time></trkpt><trkpt lat="60.1204430312" lon="30.5491485726"><ele>45.80</ele><time>2026-08-20T13:25:48Z</time></trkpt><trkpt lat="60.1204484794" lon="30.5491546914"><ele>45.80</ele><time>2026-08-20T13:26:17Z</time></trkpt><trkpt lat="60.1204145327" lon="30.5491323955"><ele>45.80</ele><time>2026-08-20T13:26:47Z</time></trkpt><trkpt lat="60.1204279438" lon="30.5491418671"><ele>45.80</ele><time>2026-08-20T13:27:15Z</time></trkpt><trkpt lat="60.1204381697" lon="30.5491472315"><ele>45.80</ele><time>2026-08-20T13:27:44Z</time></trkpt><trkpt lat="60.1204416901" lon="30.5491541885"><ele>45.80</ele><time>2026-08-20T13:28:16Z</time></trkpt><trkpt lat="60.1204474736" lon="30.5491573736"><ele>45.80</ele><time>2026-08-20T13:28:37Z</time></trkpt><trkpt lat="60.1204480603" lon="30.5491623189"><ele>45.80</ele><time>2026-08-20T13:29:01Z</time></trkpt><trkpt lat="60.1204341464" lon="30.5491741374"><ele>45.80</ele><time>2026-08-20T13:29:28Z</time></trkpt><trkpt lat="60.1204368286" lon="30.5491756462"><ele>45.80</ele><time>2026-08-20T13:30:02Z</time></trkpt><trkpt lat="60.1204372477" lon="30.5491752271"><ele>45.80</ele><time>2026-08-20T13:30:33Z</time></trkpt><trkpt lat="60.1204362419" lon="30.5491728801"><ele>45.80</ele><time>2026-08-20T13:30:59Z</time></trkpt><trkpt lat="60.1204364933" lon="30.5491731316"><ele>45.80</ele><time>2026-08-20T13:31:34Z</time></trkpt><trkpt lat="60.1204352360" lon="30.5491677672"><ele>45.80</ele><time>2026-08-20T13:32:03Z</time></trkpt><trkpt lat="60.1204360742" lon="30.5491579603"><ele>45.80</ele><time>2026-08-20T13:32:32Z</time></trkpt><trkpt lat="60.1204366609" lon="30.5491553620"><ele>45.80</ele><time>2026-08-20T13:33:00Z</time></trkpt><trkpt lat="60.1204346493" lon="30.5491570383"><ele>45.80</ele><time>2026-08-20T13:33:21Z</time></trkpt><trkpt lat="60.1204319671" lon="30.5491554458"><ele>45.80</ele><time>2026-08-20T13:33:52Z</time></trkpt><trkpt lat="60.1204305422" lon="30.5491518416"><ele>45.80</ele><time>2026-08-20T13:34:22Z</time></trkpt><trkpt lat="60.1204285305" lon="30.5491463095"><ele>45.80</ele><time>2026-08-20T13:34:45Z</time></trkpt><trkpt lat="60.1204305422" lon="30.5491481535"><ele>45.80</ele><time>2026-08-20T13:35:18Z</time></trkpt><trkpt lat="60.1204320509" lon="30.5491473991"><ele>45.80</ele><time>2026-08-20T13:35:54Z</time></trkpt><trkpt lat="60.1204282790" lon="30.5491494108"><ele>45.80</ele><time>2026-08-20T13:36:22Z</time></trkpt><trkpt lat="60.1204221603" lon="30.5491405260"><ele>45.80</ele><time>2026-08-20T13:36:50Z</time></trkpt><trkpt lat="60.1204161253" lon="30.5491437949"><ele>45.80</ele><time>2026-08-20T13:37:03Z</time></trkpt><trkpt lat="60.1204191428" lon="30.5491432082"><ele>45.80</ele><time>2026-08-20T13:37:36Z</time></trkpt><trkpt lat="60.1204246748" lon="30.5491498299"><ele>45.80</ele><time>2026-08-20T13:38:10Z</time></trkpt><trkpt lat="60.1204266865" lon="30.5491511710"><ele>45.80</ele><time>2026-08-20T13:38:49Z</time></trkpt><trkpt lat="60.1204213221" lon="30.5491652526"><ele>46.76</ele><time>2026-08-20T13:39:27Z</time></trkpt><trkpt lat="60.1204131916" lon="30.5491949245"><ele>46.76</ele><time>2026-08-20T13:40:00Z</time></trkpt><trkpt lat="60.1203754731" lon="30.5493949167"><ele>47.24</ele><time>2026-08-20T13:40:10Z</time></trkpt><trkpt lat="60.1203094237" lon="30.5495658237"><ele>47.72</ele><time>2026-08-20T13:40:20Z</time></trkpt><trkpt lat="60.1202940848" lon="30.5496310350"><ele>47.72</ele><time>2026-08-20T13:40:24Z</time></trkpt><trkpt lat="60.1203694381" lon="30.5498457793"><ele>48.20</ele><time>2026-08-20T13:40:37Z</time></trkpt><trkpt lat="60.1203996968" lon="30.5498599447"><ele>48.20</ele><time>2026-08-20T13:40:40Z</time></trkpt><trkpt lat="60.1205405127" lon="30.5500195362"><ele>48.68</ele><time>2026-08-20T13:40:54Z</time></trkpt><trkpt lat="60.1205778122" lon="30.5500968173"><ele>48.68</ele><time>2026-08-20T13:40:59Z</time></trkpt><trkpt lat="60.1205853559" lon="30.5501621962"><ele>48.68</ele><time>2026-08-20T13:41:02Z</time></trkpt><trkpt lat="60.1206211466" lon="30.5503867473"><ele>49.16</ele><time>2026-08-20T13:41:14Z</time></trkpt><trkpt lat="60.1206665765" lon="30.5504422355"><ele>49.16</ele><time>2026-08-20T13:41:20Z</time></trkpt><trkpt lat="60.1206859387" lon="30.5504397210"><ele>49.16</ele><time>2026-08-20T13:41:22Z</time></trkpt><trkpt lat="60.1207291894" lon="30.5503775273"><ele>49.16</ele><time>2026-08-20T13:41:27Z</time></trkpt><trkpt lat="60.1208757050" lon="30.5502146669"><ele>49.16</ele><time>2026-08-20T13:41:43Z</time></trkpt><trkpt lat="60.1209003478" lon="30.5499124993"><ele>49.16</ele><time>2026-08-20T13:41:56Z</time></trkpt><trkpt lat="60.1208862662" lon="30.5497332104"><ele>49.16</ele><time>2026-08-20T13:42:04Z</time></trkpt><trkpt lat="60.1208536606" lon="30.5496463738"><ele>49.16</ele><time>2026-08-20T13:42:08Z</time></trkpt><trkpt lat="60.1208069734" lon="30.5495362356"><ele>49.16</ele><time>2026-08-20T13:42:14Z</time></trkpt><trkpt lat="60.1207602862" lon="30.5495374929"><ele>49.16</ele><time>2026-08-20T13:42:21Z</time></trkpt><trkpt lat="60.1207389124" lon="30.5492692720"><ele>49.16</ele><time>2026-08-20T13:42:32Z</time></trkpt><trkpt lat="60.1206804905" lon="30.5489613209"><ele>49.16</ele><time>2026-08-20T13:42:45Z</time></trkpt><trkpt lat="60.1206816640" lon="30.5489627458"><ele>49.16</ele><time>2026-08-20T13:42:52Z</time></trkpt><trkpt lat="60.1206802391" lon="30.5489280447"><ele>49.16</ele><time>2026-08-20T13:42:59Z</time></trkpt><trkpt lat="60.1206721086" lon="30.5489511788"><ele>49.16</ele><time>2026-08-20T13:43:12Z</time></trkpt><trkpt lat="60.1206882857" lon="30.5489291344"><ele>49.65</ele><time>2026-08-20T13:43:32Z</time></trkpt><trkpt lat="60.1206918061" lon="30.5489105266"><ele>49.65</ele><time>2026-08-20T13:43:33Z</time></trkpt><trkpt lat="60.1207108330" lon="30.5488622468"><ele>49.65</ele><time>2026-08-20T13:43:36Z</time></trkpt><trkpt lat="60.1207221486" lon="30.5488221813"><ele>49.65</ele><time>2026-08-20T13:43:38Z</time></trkpt><trkpt lat="60.1208071411" lon="30.5486590695"><ele>49.65</ele><time>2026-08-20T13:43:50Z</time></trkpt><trkpt lat="60.1208129246" lon="30.5486446526"><ele>49.65</ele><time>2026-08-20T13:43:51Z</time></trkpt><trkpt lat="60.1208763756" lon="30.5484356079"><ele>49.65</ele><time>2026-08-20T13:44:03Z</time></trkpt><trkpt lat="60.1208906248" lon="30.5483194347"><ele>50.61</ele><time>2026-08-20T13:44:12Z</time></trkpt><trkpt lat="60.1208933908" lon="30.5481898505"><ele>53.97</ele><time>2026-08-20T13:44:20Z</time></trkpt><trkpt lat="60.1209177822" lon="30.5480619427"><ele>56.37</ele><time>2026-08-20T13:44:27Z</time></trkpt><trkpt lat="60.1208910439" lon="30.5478410795"><ele>55.89</ele><time>2026-08-20T13:44:37Z</time></trkpt><trkpt lat="60.1208699215" lon="30.5477781314"><ele>55.89</ele><time>2026-08-20T13:44:40Z</time></trkpt><trkpt lat="60.1208164450" lon="30.5477037001"><ele>55.89</ele><time>2026-08-20T13:44:46Z</time></trkpt><trkpt lat="60.1207899582" lon="30.5476307776"><ele>56.37</ele><time>2026-08-20T13:44:53Z</time></trkpt><trkpt lat="60.1207363140" lon="30.5475529935"><ele>56.37</ele><time>2026-08-20T13:44:58Z</time></trkpt><trkpt lat="60.1205841824" lon="30.5473349802"><ele>56.37</ele><time>2026-08-20T13:45:13Z</time></trkpt><trkpt lat="60.1205509901" lon="30.5472767260"><ele>56.37</ele><time>2026-08-20T13:45:17Z</time></trkpt><trkpt lat="60.1204931550" lon="30.5470957607"><ele>55.41</ele><time>2026-08-20T13:45:26Z</time></trkpt><trkpt lat="60.1204856113" lon="30.5470522586"><ele>55.41</ele><time>2026-08-20T13:45:28Z</time></trkpt><trkpt lat="60.1204569452" lon="30.5469930824"><ele>55.41</ele><time>2026-08-20T13:45:31Z</time></trkpt><trkpt lat="60.1204043906" lon="30.5467489175"><ele>54.93</ele><time>2026-08-20T13:45:41Z</time></trkpt><trkpt lat="60.1203991938" lon="30.5467129592"><ele>54.93</ele><time>2026-08-20T13:45:42Z</time></trkpt><trkpt lat="60.1203826815" lon="30.5466303974"><ele>54.93</ele><time>2026-08-20T13:45:47Z</time></trkpt><trkpt lat="60.1203802507" lon="30.5466095265"><ele>54.93</ele><time>2026-08-20T13:45:48Z</time></trkpt><trkpt lat="60.1203957573" lon="30.5466529448"><ele>54.45</ele><time>2026-08-20T13:45:58Z</time></trkpt><trkpt lat="60.1204375830" lon="30.5466919206"><ele>54.45</ele><time>2026-08-20T13:46:09Z</time></trkpt><trkpt lat="60.1204544306" lon="30.5466544535"><ele>58.30</ele><time>2026-08-20T13:46:15Z</time></trkpt><trkpt lat="60.1204557717" lon="30.5465686228"><ele>59.74</ele><time>2026-08-20T13:46:29Z</time></trkpt><trkpt lat="60.1204705238" lon="30.5464851391"><ele>59.74</ele><time>2026-08-20T13:46:53Z</time></trkpt><trkpt lat="60.1204559393" lon="30.5463836342"><ele>59.74</ele><time>2026-08-20T13:47:08Z</time></trkpt><trkpt lat="60.1204048097" lon="30.5463252962"><ele>58.30</ele><time>2026-08-20T13:47:15Z</time></trkpt><trkpt lat="60.1203939132" lon="30.5463123042"><ele>58.30</ele><time>2026-08-20T13:47:16Z</time></trkpt><trkpt lat="60.1203338150" lon="30.5461978074"><ele>57.34</ele><time>2026-08-20T13:47:29Z</time></trkpt><trkpt lat="60.1202898938" lon="30.5462832190"><ele>55.89</ele><time>2026-08-20T13:47:38Z</time></trkpt><trkpt lat="60.1202718727" lon="30.5463185068"><ele>54.93</ele><time>2026-08-20T13:47:42Z</time></trkpt><trkpt lat="60.1202332322" lon="30.5463443231"><ele>51.09</ele><time>2026-08-20T13:47:47Z</time></trkpt><trkpt lat="60.1201994531" lon="30.5462217797"><ele>50.13</ele><time>2026-08-20T13:47:54Z</time></trkpt><trkpt lat="60.1200765744" lon="30.5459913611"><ele>50.13</ele><time>2026-08-20T13:48:07Z</time></trkpt><trkpt lat="60.1199976169" lon="30.5457844120"><ele>50.13</ele><time>2026-08-20T13:48:19Z</time></trkpt><trkpt lat="60.1200003829" lon="30.5457921233"><ele>50.13</ele><time>2026-08-20T13:48:20Z</time></trkpt><trkpt lat="60.1200231817" lon="30.5458640400"><ele>50.13</ele><time>2026-08-20T13:48:25Z</time></trkpt><trkpt lat="60.1200070046" lon="30.5458023492"><ele>49.65</ele><time>2026-08-20T13:48:28Z</time></trkpt><trkpt lat="60.1199514326" lon="30.5455642194"><ele>49.65</ele><time>2026-08-20T13:48:39Z</time></trkpt><trkpt lat="60.1199398655" lon="30.5455177836"><ele>49.65</ele><time>2026-08-20T13:48:41Z</time></trkpt><trkpt lat="60.1199217606" lon="30.5454329588"><ele>49.65</ele><time>2026-08-20T13:48:45Z</time></trkpt><trkpt lat="60.1198896579" lon="30.5452237464"><ele>49.65</ele><time>2026-08-20T13:48:55Z</time></trkpt><trkpt lat="60.1198836230" lon="30.5451580323"><ele>50.61</ele><time>2026-08-20T13:48:58Z</time></trkpt><trkpt lat="60.1199075114" lon="30.5449923221"><ele>53.01</ele><time>2026-08-20T13:49:06Z</time></trkpt><trkpt lat="60.1199503429" lon="30.5448779091"><ele>54.45</ele><time>2026-08-20T13:49:15Z</time></trkpt><trkpt lat="60.1199300587" lon="30.5446438864"><ele>54.45</ele><time>2026-08-20T13:49:27Z</time></trkpt><trkpt lat="60.1199227665" lon="30.5446070060"><ele>54.93</ele><time>2026-08-20T13:49:41Z</time></trkpt><trkpt lat="60.1199080981" lon="30.5445966125"><ele>55.41</ele><time>2026-08-20T13:49:50Z</time></trkpt><trkpt lat="60.1198762469" lon="30.5444594007"><ele>54.93</ele><time>2026-08-20T13:49:58Z</time></trkpt><trkpt lat="60.1198932622" lon="30.5443014856"><ele>54.93</ele><time>2026-08-20T13:50:06Z</time></trkpt><trkpt lat="60.1198955253" lon="30.5442577321"><ele>54.93</ele><time>2026-08-20T13:50:08Z</time></trkpt><trkpt lat="60.1198925916" lon="30.5442206841"><ele>54.93</ele><time>2026-08-20T13:50:10Z</time></trkpt><trkpt lat="60.1198897418" lon="30.5442008190"><ele>54.93</ele><time>2026-08-20T13:50:11Z</time></trkpt><trkpt lat="60.1198751573" lon="30.5441899225"><ele>54.93</ele><time>2026-08-20T13:50:12Z</time></trkpt><trkpt lat="60.1198608242" lon="30.5441776849"><ele>54.93</ele><time>2026-08-20T13:50:13Z</time></trkpt><trkpt lat="60.1198444795" lon="30.5441624299"><ele>54.93</ele><time>2026-08-20T13:50:14Z</time></trkpt><trkpt lat="60.1198330801" lon="30.5441412237"><ele>54.93</ele><time>2026-08-20T13:50:15Z</time></trkpt><trkpt lat="60.1197956130" lon="30.5439484399"><ele>54.93</ele><time>2026-08-20T13:50:28Z</time></trkpt><trkpt lat="60.1197361015" lon="30.5437562428"><ele>54.93</ele><time>2026-08-20T13:50:39Z</time></trkpt><trkpt lat="60.1197060104" lon="30.5436947197"><ele>54.93</ele><time>2026-08-20T13:50:42Z</time></trkpt><trkpt lat="60.1196949463" lon="30.5436806381"><ele>54.93</ele><time>2026-08-20T13:50:43Z</time></trkpt><trkpt lat="60.1196013205" lon="30.5435329489"><ele>54.45</ele><time>2026-08-20T13:50:53Z</time></trkpt><trkpt lat="60.1195128076" lon="30.5433375668"><ele>54.45</ele><time>2026-08-20T13:51:06Z</time></trkpt><trkpt lat="60.1194699761" lon="30.5432843417"><ele>54.45</ele><time>2026-08-20T13:51:14Z</time></trkpt><trkpt lat="60.1193144917" lon="30.5433114152"><ele>53.97</ele><time>2026-08-20T13:51:25Z</time></trkpt><trkpt lat="60.1191518828" lon="30.5434452742"><ele>53.97</ele><time>2026-08-20T13:51:37Z</time></trkpt><trkpt lat="60.1190860011" lon="30.5434833281"><ele>52.53</ele><time>2026-08-20T13:51:47Z</time></trkpt><trkpt lat="60.1190210413" lon="30.5434882734"><ele>52.53</ele><time>2026-08-20T13:52:07Z</time></trkpt><trkpt lat="60.1190065406" lon="30.5434876867"><ele>52.53</ele><time>2026-08-20T13:52:10Z</time></trkpt><trkpt lat="60.1189439278" lon="30.5433943123"><ele>52.53</ele><time>2026-08-20T13:52:22Z</time></trkpt><trkpt lat="60.1189265773" lon="30.5433088169"><ele>55.41</ele><time>2026-08-20T13:52:30Z</time></trkpt><trkpt lat="60.1189160161" lon="30.5432769656"><ele>56.86</ele><time>2026-08-20T13:52:33Z</time></trkpt><trkpt lat="60.1188753638" lon="30.5431933980"><ele>57.82</ele><time>2026-08-20T13:52:38Z</time></trkpt><trkpt lat="60.1188119967" lon="30.5429896340"><ele>57.82</ele><time>2026-08-20T13:52:50Z</time></trkpt><trkpt lat="60.1187408343" lon="30.5428054836"><ele>57.82</ele><time>2026-08-20T13:53:00Z</time></trkpt><trkpt lat="60.1186595298" lon="30.5424841214"><ele>57.82</ele><time>2026-08-20T13:53:14Z</time></trkpt><trkpt lat="60.1185654011" lon="30.5422682874"><ele>57.82</ele><time>2026-08-20T13:53:25Z</time></trkpt><trkpt lat="60.1184519101" lon="30.5420137290"><ele>57.82</ele><time>2026-08-20T13:53:40Z</time></trkpt><trkpt lat="60.1183787361" lon="30.5419197679"><ele>57.82</ele><time>2026-08-20T13:53:48Z</time></trkpt><trkpt lat="60.1183305401" lon="30.5419050995"><ele>57.82</ele><time>2026-08-20T13:53:55Z</time></trkpt><trkpt lat="60.1182625629" lon="30.5418797862"><ele>56.37</ele><time>2026-08-20T13:54:08Z</time></trkpt><trkpt lat="60.1182632335" lon="30.5418831389"><ele>56.37</ele><time>2026-08-20T13:54:16Z</time></trkpt><trkpt lat="60.1182688493" lon="30.5418555625"><ele>56.37</ele><time>2026-08-20T13:54:19Z</time></trkpt><trkpt lat="60.1182805840" lon="30.5417846516"><ele>56.37</ele><time>2026-08-20T13:54:24Z</time></trkpt><trkpt lat="60.1182830986" lon="30.5417424068"><ele>56.37</ele><time>2026-08-20T13:54:26Z</time></trkpt><trkpt lat="60.1182964258" lon="30.5416548159"><ele>56.37</ele><time>2026-08-20T13:54:31Z</time></trkpt><trkpt lat="60.1183090825" lon="30.5415939633"><ele>56.37</ele><time>2026-08-20T13:54:34Z</time></trkpt><trkpt lat="60.1183186378" lon="30.5415156763"><ele>57.34</ele><time>2026-08-20T13:54:38Z</time></trkpt><trkpt lat="60.1183214039" lon="30.5414369702"><ele>57.82</ele><time>2026-08-20T13:54:42Z</time></trkpt><trkpt lat="60.1183373295" lon="30.5413262453"><ele>57.82</ele><time>2026-08-20T13:54:49Z</time></trkpt><trkpt lat="60.1183411013" lon="30.5411969125"><ele>58.78</ele><time>2026-08-20T13:54:56Z</time></trkpt><trkpt lat="60.1183334738" lon="30.5411503930"><ele>58.78</ele><time>2026-08-20T13:54:58Z</time></trkpt><trkpt lat="60.1183448732" lon="30.5410876125"><ele>59.26</ele><time>2026-08-20T13:55:01Z</time></trkpt><trkpt lat="60.1183017902" lon="30.5407442898"><ele>61.66</ele><time>2026-08-20T13:55:16Z</time></trkpt><trkpt lat="60.1182557736" lon="30.5405396037"><ele>61.66</ele><time>2026-08-20T13:55:25Z</time></trkpt><trkpt lat="60.1181982737" lon="30.5403356720"><ele>61.66</ele><time>2026-08-20T13:55:37Z</time></trkpt><trkpt lat="60.1181996148" lon="30.5403260328"><ele>61.66</ele><time>2026-08-20T13:55:39Z</time></trkpt><trkpt lat="60.1182038896" lon="30.5402996298"><ele>61.66</ele><time>2026-08-20T13:55:40Z</time></trkpt><trkpt lat="60.1181955915" lon="30.5402388610"><ele>61.66</ele><time>2026-08-20T13:55:51Z</time></trkpt><trkpt lat="60.1181796659" lon="30.5401949398"><ele>61.66</ele><time>2026-08-20T13:56:04Z</time></trkpt><trkpt lat="60.1181701105" lon="30.5401827861"><ele>61.66</ele><time>2026-08-20T13:56:05Z</time></trkpt><trkpt lat="60.1181316376" lon="30.5401335843"><ele>61.66</ele><time>2026-08-20T13:56:09Z</time></trkpt><trkpt lat="60.1181177236" lon="30.5400762521"><ele>61.66</ele><time>2026-08-20T13:56:12Z</time></trkpt><trkpt lat="60.1181152090" lon="30.5400517769"><ele>61.66</ele><time>2026-08-20T13:56:13Z</time></trkpt><trkpt lat="60.1180937514" lon="30.5400167406"><ele>61.66</ele><time>2026-08-20T13:56:16Z</time></trkpt><trkpt lat="60.1180857886" lon="30.5399993900"><ele>61.66</ele><time>2026-08-20T13:56:17Z</time></trkpt><trkpt lat="60.1180173084" lon="30.5398726556"><ele>61.66</ele><time>2026-08-20T13:56:24Z</time></trkpt><trkpt lat="60.1179451402" lon="30.5397477653"><ele>61.66</ele><time>2026-08-20T13:56:32Z</time></trkpt><trkpt lat="60.1179028954" lon="30.5396746751"><ele>61.66</ele><time>2026-08-20T13:56:38Z</time></trkpt><trkpt lat="60.1178519335" lon="30.5395745952"><ele>61.66</ele><time>2026-08-20T13:56:44Z</time></trkpt><trkpt lat="60.1178407017" lon="30.5395588372"><ele>61.66</ele><time>2026-08-20T13:56:45Z</time></trkpt><trkpt lat="60.1178351697" lon="30.5395346135"><ele>61.66</ele><time>2026-08-20T13:56:46Z</time></trkpt><trkpt lat="60.1178288832" lon="30.5395096354"><ele>61.66</ele><time>2026-08-20T13:56:47Z</time></trkpt><trkpt lat="60.1178090181" lon="30.5394789577"><ele>60.70</ele><time>2026-08-20T13:56:49Z</time></trkpt><trkpt lat="60.1177926734" lon="30.5394432507"><ele>60.70</ele><time>2026-08-20T13:56:51Z</time></trkpt><trkpt lat="60.1177683659" lon="30.5393882655"><ele>60.22</ele><time>2026-08-20T13:56:54Z</time></trkpt><trkpt lat="60.1177583076" lon="30.5393720046"><ele>60.22</ele><time>2026-08-20T13:56:55Z</time></trkpt><trkpt lat="60.1177145541" lon="30.5392594356"><ele>60.22</ele><time>2026-08-20T13:57:00Z</time></trkpt><trkpt lat="60.1177055016" lon="30.5392382294"><ele>60.22</ele><time>2026-08-20T13:57:01Z</time></trkpt><trkpt lat="60.1176954433" lon="30.5392159335"><ele>60.22</ele><time>2026-08-20T13:57:02Z</time></trkpt><trkpt lat="60.1176853012" lon="30.5391940568"><ele>60.22</ele><time>2026-08-20T13:57:03Z</time></trkpt><trkpt lat="60.1176751591" lon="30.5391745269"><ele>59.74</ele><time>2026-08-20T13:57:04Z</time></trkpt><trkpt lat="60.1176650170" lon="30.5391602777"><ele>59.74</ele><time>2026-08-20T13:57:05Z</time></trkpt><trkpt lat="60.1176556293" lon="30.5391456094"><ele>59.74</ele><time>2026-08-20T13:57:06Z</time></trkpt><trkpt lat="60.1176450681" lon="30.5391306058"><ele>59.74</ele><time>2026-08-20T13:57:07Z</time></trkpt><trkpt lat="60.1176267955" lon="30.5390805658"><ele>59.74</ele><time>2026-08-20T13:57:10Z</time></trkpt><trkpt lat="60.1176193357" lon="30.5390579347"><ele>59.74</ele><time>2026-08-20T13:57:11Z</time></trkpt><trkpt lat="60.1176073495" lon="30.5390358903"><ele>59.74</ele><time>2026-08-20T13:57:19Z</time></trkpt><trkpt lat="60.1176204253" lon="30.5390022788"><ele>59.26</ele><time>2026-08-20T13:57:31Z</time></trkpt><trkpt lat="60.1176234428" lon="30.5390080623"><ele>59.26</ele><time>2026-08-20T13:58:01Z</time></trkpt><trkpt lat="60.1176241972" lon="30.5389957409"><ele>59.26</ele><time>2026-08-20T13:58:24Z</time></trkpt><trkpt lat="60.1176878158" lon="30.5388769694"><ele>59.26</ele><time>2026-08-20T13:58:35Z</time></trkpt><trkpt lat="60.1176914200" lon="30.5388568528"><ele>59.26</ele><time>2026-08-20T13:58:36Z</time></trkpt><trkpt lat="60.1177196670" lon="30.5387250893"><ele>58.78</ele><time>2026-08-20T13:58:41Z</time></trkpt><trkpt lat="60.1177991275" lon="30.5385736283"><ele>57.34</ele><time>2026-08-20T13:58:53Z</time></trkpt><trkpt lat="60.1178585552" lon="30.5385276955"><ele>56.37</ele><time>2026-08-20T13:58:59Z</time></trkpt><trkpt lat="60.1179052424" lon="30.5385102611"><ele>55.89</ele><time>2026-08-20T13:59:14Z</time></trkpt><trkpt lat="60.1179096848" lon="30.5385042261"><ele>54.93</ele><time>2026-08-20T13:59:37Z</time></trkpt><trkpt lat="60.1179152168" lon="30.5384897254"><ele>54.93</ele><time>2026-08-20T14:00:00Z</time></trkpt><trkpt lat="60.1179292984" lon="30.5384669267"><ele>54.93</ele><time>2026-08-20T14:00:22Z</time></trkpt><trkpt lat="60.1179282088" lon="30.5384686869"><ele>54.93</ele><time>2026-08-20T14:00:29Z</time></trkpt><trkpt lat="60.1178748161" lon="30.5385175534"><ele>54.93</ele><time>2026-08-20T14:00:39Z</time></trkpt><trkpt lat="60.1178130414" lon="30.5385874584"><ele>54.93</ele><time>2026-08-20T14:00:46Z</time></trkpt><trkpt lat="60.1177190803" lon="30.5387540068"><ele>56.37</ele><time>2026-08-20T14:00:57Z</time></trkpt><trkpt lat="60.1177104469" lon="30.5387975927"><ele>56.37</ele><time>2026-08-20T14:00:59Z</time></trkpt><trkpt lat="60.1176881511" lon="30.5388586968"><ele>56.37</ele><time>2026-08-20T14:01:02Z</time></trkpt><trkpt lat="60.1176779252" lon="30.5389000196"><ele>56.86</ele><time>2026-08-20T14:01:04Z</time></trkpt><trkpt lat="60.1176386978" lon="30.5389724392"><ele>57.34</ele><time>2026-08-20T14:01:08Z</time></trkpt><trkpt lat="60.1176002249" lon="30.5389922205"><ele>57.82</ele><time>2026-08-20T14:01:11Z</time></trkpt><trkpt lat="60.1174728200" lon="30.5388312042"><ele>58.30</ele><time>2026-08-20T14:01:22Z</time></trkpt><trkpt lat="60.1174252946" lon="30.5387849361"><ele>59.26</ele><time>2026-08-20T14:01:27Z</time></trkpt><trkpt lat="60.1173242088" lon="30.5386386719"><ele>59.26</ele><time>2026-08-20T14:01:36Z</time></trkpt><trkpt lat="60.1172392163" lon="30.5384443793"><ele>59.26</ele><time>2026-08-20T14:01:46Z</time></trkpt><trkpt lat="60.1171550620" lon="30.5382634979"><ele>59.26</ele><time>2026-08-20T14:01:58Z</time></trkpt><trkpt lat="60.1170938741" lon="30.5381220952"><ele>59.26</ele><time>2026-08-20T14:02:10Z</time></trkpt><trkpt lat="60.1170843188" lon="30.5381073430"><ele>59.26</ele><time>2026-08-20T14:02:11Z</time></trkpt><trkpt lat="60.1170140784" lon="30.5380322412"><ele>59.26</ele><time>2026-08-20T14:02:22Z</time></trkpt><trkpt lat="60.1169477776" lon="30.5381932575"><ele>57.82</ele><time>2026-08-20T14:02:36Z</time></trkpt><trkpt lat="60.1169580035" lon="30.5382172298"><ele>56.37</ele><time>2026-08-20T14:02:49Z</time></trkpt><trkpt lat="60.1169567462" lon="30.5381576344"><ele>56.37</ele><time>2026-08-20T14:02:52Z</time></trkpt><trkpt lat="60.1169859990" lon="30.5379394535"><ele>56.37</ele><time>2026-08-20T14:03:04Z</time></trkpt><trkpt lat="60.1169901062" lon="30.5378972925"><ele>57.82</ele><time>2026-08-20T14:03:06Z</time></trkpt><trkpt lat="60.1169651281" lon="30.5377705581"><ele>59.26</ele><time>2026-08-20T14:03:13Z</time></trkpt><trkpt lat="60.1168968994" lon="30.5375393014"><ele>59.26</ele><time>2026-08-20T14:03:24Z</time></trkpt><trkpt lat="60.1168626174" lon="30.5374648701"><ele>59.26</ele><time>2026-08-20T14:03:28Z</time></trkpt><trkpt lat="60.1168367174" lon="30.5373698194"><ele>59.26</ele><time>2026-08-20T14:03:32Z</time></trkpt><trkpt lat="60.1168286707" lon="30.5373438355"><ele>59.26</ele><time>2026-08-20T14:03:33Z</time></trkpt><trkpt lat="60.1168216299" lon="30.5373127386"><ele>59.26</ele><time>2026-08-20T14:03:34Z</time></trkpt><trkpt lat="60.1168143377" lon="30.5372890178"><ele>59.26</ele><time>2026-08-20T14:03:35Z</time></trkpt><trkpt lat="60.1168050338" lon="30.5372655485"><ele>59.26</ele><time>2026-08-20T14:03:36Z</time></trkpt><trkpt lat="60.1167946402" lon="30.5372414924"><ele>59.26</ele><time>2026-08-20T14:03:37Z</time></trkpt><trkpt lat="60.1167258248" lon="30.5370431766"><ele>59.26</ele><time>2026-08-20T14:03:47Z</time></trkpt><trkpt lat="60.1167189516" lon="30.5369967408"><ele>59.26</ele><time>2026-08-20T14:03:49Z</time></trkpt><trkpt lat="60.1166729350" lon="30.5368462857"><ele>59.26</ele><time>2026-08-20T14:03:56Z</time></trkpt><trkpt lat="60.1166615356" lon="30.5368258338"><ele>59.26</ele><time>2026-08-20T14:03:57Z</time></trkpt><trkpt lat="60.1166508067" lon="30.5367992632"><ele>59.26</ele><time>2026-08-20T14:03:58Z</time></trkpt><trkpt lat="60.1166447718" lon="30.5367742851"><ele>59.26</ele><time>2026-08-20T14:03:59Z</time></trkpt><trkpt lat="60.1166309416" lon="30.5367291905"><ele>59.26</ele><time>2026-08-20T14:04:01Z</time></trkpt><trkpt lat="60.1166209672" lon="30.5367099121"><ele>59.26</ele><time>2026-08-20T14:04:02Z</time></trkpt><trkpt lat="60.1165507268" lon="30.5365867820"><ele>59.26</ele><time>2026-08-20T14:04:10Z</time></trkpt><trkpt lat="60.1164507307" lon="30.5364258494"><ele>59.26</ele><time>2026-08-20T14:04:19Z</time></trkpt><trkpt lat="60.1163724437" lon="30.5363743845"><ele>59.26</ele><time>2026-08-20T14:04:26Z</time></trkpt><trkpt lat="60.1163568534" lon="30.5363613088"><ele>59.26</ele><time>2026-08-20T14:04:28Z</time></trkpt><trkpt lat="60.1163465437" lon="30.5363553576"><ele>59.26</ele><time>2026-08-20T14:04:29Z</time></trkpt><trkpt lat="60.1163348090" lon="30.5363478977"><ele>59.26</ele><time>2026-08-20T14:04:30Z</time></trkpt><trkpt lat="60.1163224038" lon="30.5363430362"><ele>59.26</ele><time>2026-08-20T14:04:31Z</time></trkpt><trkpt lat="60.1163112558" lon="30.5363407731"><ele>59.26</ele><time>2026-08-20T14:04:32Z</time></trkpt><trkpt lat="60.1161464676" lon="30.5363139510"><ele>57.82</ele><time>2026-08-20T14:04:48Z</time></trkpt><trkpt lat="60.1159857027" lon="30.5362843629"><ele>57.82</ele><time>2026-08-20T14:05:03Z</time></trkpt><trkpt lat="60.1158414502" lon="30.5362865422"><ele>57.82</ele><time>2026-08-20T14:05:16Z</time></trkpt><trkpt lat="60.1158301346" lon="30.5362780765"><ele>57.82</ele><time>2026-08-20T14:05:17Z</time></trkpt><trkpt lat="60.1157137938" lon="30.5362400226"><ele>56.86</ele><time>2026-08-20T14:05:27Z</time></trkpt><trkpt lat="60.1157024782" lon="30.5362435430"><ele>56.86</ele><time>2026-08-20T14:05:28Z</time></trkpt><trkpt lat="60.1156826131" lon="30.5362402741"><ele>56.86</ele><time>2026-08-20T14:05:30Z</time></trkpt><trkpt lat="60.1156102773" lon="30.5362191517"><ele>56.86</ele><time>2026-08-20T14:05:38Z</time></trkpt><trkpt lat="60.1155766658" lon="30.5362214148"><ele>56.86</ele><time>2026-08-20T14:05:41Z</time></trkpt><trkpt lat="60.1155407075" lon="30.5362446327"><ele>56.86</ele><time>2026-08-20T14:05:44Z</time></trkpt><trkpt lat="60.1154496800" lon="30.5363170523"><ele>56.86</ele><time>2026-08-20T14:05:53Z</time></trkpt><trkpt lat="60.1153730694" lon="30.5364163779"><ele>56.37</ele><time>2026-08-20T14:06:06Z</time></trkpt><trkpt lat="60.1152347680" lon="30.5366023723"><ele>56.37</ele><time>2026-08-20T14:06:22Z</time></trkpt><trkpt lat="60.1151558105" lon="30.5367454514"><ele>55.89</ele><time>2026-08-20T14:06:34Z</time></trkpt><trkpt lat="60.1150589995" lon="30.5368776340"><ele>55.41</ele><time>2026-08-20T14:06:48Z</time></trkpt><trkpt lat="60.1149524655" lon="30.5370412488"><ele>54.45</ele><time>2026-08-20T14:07:01Z</time></trkpt><trkpt lat="60.1148589235" lon="30.5372042768"><ele>53.97</ele><time>2026-08-20T14:07:13Z</time></trkpt><trkpt lat="60.1148196124" lon="30.5372652132"><ele>53.97</ele><time>2026-08-20T14:07:18Z</time></trkpt><trkpt lat="60.1147697400" lon="30.5372714996"><ele>53.97</ele><time>2026-08-20T14:07:27Z</time></trkpt><trkpt lat="60.1147688180" lon="30.5372685660"><ele>53.97</ele><time>2026-08-20T14:07:43Z</time></trkpt><trkpt lat="60.1147399005" lon="30.5373031832"><ele>53.97</ele><time>2026-08-20T14:07:46Z</time></trkpt><trkpt lat="60.1146423351" lon="30.5374216195"><ele>53.97</ele><time>2026-08-20T14:07:58Z</time></trkpt><trkpt lat="60.1145533193" lon="30.5375402234"><ele>55.41</ele><time>2026-08-20T14:08:10Z</time></trkpt><trkpt lat="60.1144380681" lon="30.5377055146"><ele>55.89</ele><time>2026-08-20T14:08:24Z</time></trkpt><trkpt lat="60.1143296901" lon="30.5378952809"><ele>56.37</ele><time>2026-08-20T14:08:38Z</time></trkpt><trkpt lat="60.1142195519" lon="30.5380534474"><ele>56.37</ele><time>2026-08-20T14:08:51Z</time></trkpt><trkpt lat="60.1140755508" lon="30.5382634979"><ele>56.37</ele><time>2026-08-20T14:09:07Z</time></trkpt><trkpt lat="60.1139622275" lon="30.5384362489"><ele>56.37</ele><time>2026-08-20T14:09:21Z</time></trkpt><trkpt lat="60.1138737984" lon="30.5385798309"><ele>56.37</ele><time>2026-08-20T14:09:32Z</time></trkpt><trkpt lat="60.1138185617" lon="30.5386009533"><ele>56.37</ele><time>2026-08-20T14:09:45Z</time></trkpt><trkpt lat="60.1137999538" lon="30.5385947507"><ele>56.37</ele><time>2026-08-20T14:10:08Z</time></trkpt><trkpt lat="60.1137879677" lon="30.5386527535"><ele>56.37</ele><time>2026-08-20T14:10:20Z</time></trkpt><trkpt lat="60.1137458067" lon="30.5387473851"><ele>56.37</ele><time>2026-08-20T14:10:26Z</time></trkpt><trkpt lat="60.1137401070" lon="30.5387694295"><ele>56.37</ele><time>2026-08-20T14:10:27Z</time></trkpt><trkpt lat="60.1137006283" lon="30.5388527457"><ele>56.37</ele><time>2026-08-20T14:10:33Z</time></trkpt><trkpt lat="60.1135794260" lon="30.5390187073"><ele>56.37</ele><time>2026-08-20T14:10:48Z</time></trkpt><trkpt lat="60.1134682819" lon="30.5391534884"><ele>56.37</ele><time>2026-08-20T14:11:00Z</time></trkpt><trkpt lat="60.1133521087" lon="30.5393339507"><ele>56.86</ele><time>2026-08-20T14:11:14Z</time></trkpt><trkpt lat="60.1132804435" lon="30.5394467711"><ele>56.86</ele><time>2026-08-20T14:11:26Z</time></trkpt><trkpt lat="60.1132234465" lon="30.5396493617"><ele>56.86</ele><time>2026-08-20T14:11:40Z</time></trkpt><trkpt lat="60.1132153161" lon="30.5396684725"><ele>56.86</ele><time>2026-08-20T14:11:41Z</time></trkpt><trkpt lat="60.1131537091" lon="30.5398823787"><ele>56.86</ele><time>2026-08-20T14:11:52Z</time></trkpt><trkpt lat="60.1131267194" lon="30.5399862304"><ele>56.86</ele><time>2026-08-20T14:12:05Z</time></trkpt><trkpt lat="60.1130809542" lon="30.5400640983"><ele>56.86</ele><time>2026-08-20T14:12:17Z</time></trkpt><trkpt lat="60.1130825467" lon="30.5400261283"><ele>56.86</ele><time>2026-08-20T14:12:24Z</time></trkpt><trkpt lat="60.1130905095" lon="30.5399857275"><ele>56.86</ele><time>2026-08-20T14:12:26Z</time></trkpt><trkpt lat="60.1130947005" lon="30.5399641022"><ele>56.86</ele><time>2026-08-20T14:12:27Z</time></trkpt><trkpt lat="60.1130931079" lon="30.5398783553"><ele>56.86</ele><time>2026-08-20T14:12:31Z</time></trkpt><trkpt lat="60.1130912639" lon="30.5398486834"><ele>56.86</ele><time>2026-08-20T14:12:32Z</time></trkpt><trkpt lat="60.1130894199" lon="30.5398216099"><ele>56.86</ele><time>2026-08-20T14:12:33Z</time></trkpt><trkpt lat="60.1130510308" lon="30.5397338513"><ele>56.86</ele><time>2026-08-20T14:12:39Z</time></trkpt><trkpt lat="60.1130237896" lon="30.5396461766"><ele>56.86</ele><time>2026-08-20T14:12:51Z</time></trkpt><trkpt lat="60.1130031701" lon="30.5396105535"><ele>55.89</ele><time>2026-08-20T14:12:53Z</time></trkpt><trkpt lat="60.1129862387" lon="30.5395767745"><ele>55.89</ele><time>2026-08-20T14:12:55Z</time></trkpt><trkpt lat="60.1129815448" lon="30.5395346973"><ele>55.89</ele><time>2026-08-20T14:12:57Z</time></trkpt><trkpt lat="60.1129701454" lon="30.5394927878"><ele>55.41</ele><time>2026-08-20T14:12:59Z</time></trkpt><trkpt lat="60.1129433233" lon="30.5394686479"><ele>55.41</ele><time>2026-08-20T14:13:02Z</time></trkpt><trkpt lat="60.1129324269" lon="30.5394703243"><ele>55.41</ele><time>2026-08-20T14:13:03Z</time></trkpt><trkpt lat="60.1128420699" lon="30.5394922849"><ele>55.41</ele><time>2026-08-20T14:13:12Z</time></trkpt><trkpt lat="60.1127679739" lon="30.5395459291"><ele>55.41</ele><time>2026-08-20T14:13:23Z</time></trkpt><trkpt lat="60.1126968116" lon="30.5395577475"><ele>55.41</ele><time>2026-08-20T14:13:29Z</time></trkpt><trkpt lat="60.1126220450" lon="30.5395300873"><ele>54.93</ele><time>2026-08-20T14:13:37Z</time></trkpt><trkpt lat="60.1124812290" lon="30.5394216254"><ele>54.45</ele><time>2026-08-20T14:13:48Z</time></trkpt><trkpt lat="60.1124145091" lon="30.5393784586"><ele>53.97</ele><time>2026-08-20T14:13:54Z</time></trkpt><trkpt lat="60.1123934705" lon="30.5393911991"><ele>53.97</ele><time>2026-08-20T14:13:56Z</time></trkpt><trkpt lat="60.1122583542" lon="30.5393526424"><ele>53.01</ele><time>2026-08-20T14:14:08Z</time></trkpt><trkpt lat="60.1122445241" lon="30.5393419974"><ele>53.01</ele><time>2026-08-20T14:14:09Z</time></trkpt><trkpt lat="60.1121435221" lon="30.5392621178"><ele>52.53</ele><time>2026-08-20T14:14:17Z</time></trkpt><trkpt lat="60.1120386645" lon="30.5391123332"><ele>51.57</ele><time>2026-08-20T14:14:25Z</time></trkpt><trkpt lat="60.1120307017" lon="30.5391395744"><ele>51.57</ele><time>2026-08-20T14:14:37Z</time></trkpt><trkpt lat="60.1120356470" lon="30.5391431786"><ele>51.57</ele><time>2026-08-20T14:15:05Z</time></trkpt><trkpt lat="60.1119544264" lon="30.5390456971"><ele>51.57</ele><time>2026-08-20T14:15:18Z</time></trkpt><trkpt lat="60.1118674222" lon="30.5389227346"><ele>51.57</ele><time>2026-08-20T14:15:29Z</time></trkpt><trkpt lat="60.1118047256" lon="30.5388457049"><ele>51.57</ele><time>2026-08-20T14:15:37Z</time></trkpt><trkpt lat="60.1117853634" lon="30.5388048012"><ele>51.57</ele><time>2026-08-20T14:15:40Z</time></trkpt><trkpt lat="60.1117547695" lon="30.5387490615"><ele>51.57</ele><time>2026-08-20T14:15:46Z</time></trkpt><trkpt lat="60.1116975211" lon="30.5386847723"><ele>51.57</ele><time>2026-08-20T14:15:52Z</time></trkpt><trkpt lat="60.1116362493" lon="30.5385095067"><ele>51.57</ele><time>2026-08-20T14:16:03Z</time></trkpt><trkpt lat="60.1115222555" lon="30.5383795034"><ele>51.09</ele><time>2026-08-20T14:16:15Z</time></trkpt><trkpt lat="60.1113940962" lon="30.5383310560"><ele>50.13</ele><time>2026-08-20T14:16:27Z</time></trkpt><trkpt lat="60.1113661844" lon="30.5383122806"><ele>49.65</ele><time>2026-08-20T14:16:30Z</time></trkpt><trkpt lat="60.1113231014" lon="30.5382981990"><ele>48.20</ele><time>2026-08-20T14:16:42Z</time></trkpt><trkpt lat="60.1113200840" lon="30.5382909905"><ele>47.72</ele><time>2026-08-20T14:17:02Z</time></trkpt><trkpt lat="60.1113193296" lon="30.5382939242"><ele>47.72</ele><time>2026-08-20T14:17:06Z</time></trkpt><trkpt lat="60.1113438886" lon="30.5385008734"><ele>47.24</ele><time>2026-08-20T14:17:19Z</time></trkpt><trkpt lat="60.1113365963" lon="30.5385621451"><ele>47.24</ele><time>2026-08-20T14:17:22Z</time></trkpt><trkpt lat="60.1112329960" lon="30.5386261828"><ele>47.24</ele><time>2026-08-20T14:17:32Z</time></trkpt><trkpt lat="60.1111832075" lon="30.5386439525"><ele>47.24</ele><time>2026-08-20T14:17:36Z</time></trkpt><trkpt lat="60.1110750809" lon="30.5386939086"><ele>47.72</ele><time>2026-08-20T14:17:47Z</time></trkpt><trkpt lat="60.1110663638" lon="30.5386982672"><ele>47.72</ele><time>2026-08-20T14:17:48Z</time></trkpt><trkpt lat="60.1110349316" lon="30.5386930704"><ele>47.72</ele><time>2026-08-20T14:17:51Z</time></trkpt><trkpt lat="60.1109216921" lon="30.5388553441"><ele>47.72</ele><time>2026-08-20T14:18:05Z</time></trkpt><trkpt lat="60.1108237077" lon="30.5390234850"><ele>47.72</ele><time>2026-08-20T14:18:17Z</time></trkpt><trkpt lat="60.1107838098" lon="30.5390833318"><ele>47.72</ele><time>2026-08-20T14:18:31Z</time></trkpt><trkpt lat="60.1107557304" lon="30.5391355511"><ele>47.72</ele><time>2026-08-20T14:18:42Z</time></trkpt><trkpt lat="60.1106453408" lon="30.5392483715"><ele>47.72</ele><time>2026-08-20T14:18:54Z</time></trkpt><trkpt lat="60.1105839014" lon="30.5391724315"><ele>47.24</ele><time>2026-08-20T14:19:09Z</time></trkpt><trkpt lat="60.1105671376" lon="30.5389836710"><ele>47.24</ele><time>2026-08-20T14:19:20Z</time></trkpt><trkpt lat="60.1105341129" lon="30.5388129316"><ele>46.76</ele><time>2026-08-20T14:19:34Z</time></trkpt><trkpt lat="60.1105253119" lon="30.5387950782"><ele>46.28</ele><time>2026-08-20T14:20:01Z</time></trkpt><trkpt lat="60.1105150022" lon="30.5387985986"><ele>46.28</ele><time>2026-08-20T14:20:21Z</time></trkpt><trkpt lat="60.1105107274" lon="30.5387165397"><ele>46.28</ele><time>2026-08-20T14:20:32Z</time></trkpt><trkpt lat="60.1104459353" lon="30.5385044776"><ele>45.32</ele><time>2026-08-20T14:20:45Z</time></trkpt><trkpt lat="60.1103631221" lon="30.5382667668"><ele>44.84</ele><time>2026-08-20T14:20:56Z</time></trkpt><trkpt lat="60.1103479508" lon="30.5382256955"><ele>44.84</ele><time>2026-08-20T14:20:58Z</time></trkpt><trkpt lat="60.1102548279" lon="30.5380179081"><ele>44.84</ele><time>2026-08-20T14:21:10Z</time></trkpt><trkpt lat="60.1101376489" lon="30.5378285609"><ele>44.36</ele><time>2026-08-20T14:21:22Z</time></trkpt><trkpt lat="60.1100498904" lon="30.5375439953"><ele>43.40</ele><time>2026-08-20T14:21:33Z</time></trkpt><trkpt lat="60.1100335456" lon="30.5374829751"><ele>43.40</ele><time>2026-08-20T14:21:36Z</time></trkpt><trkpt lat="60.1100061368" lon="30.5373497028"><ele>43.40</ele><time>2026-08-20T14:21:42Z</time></trkpt><trkpt lat="60.1099559292" lon="30.5371511355"><ele>42.92</ele><time>2026-08-20T14:21:54Z</time></trkpt><trkpt lat="60.1099420153" lon="30.5369537417"><ele>42.44</ele><time>2026-08-20T14:22:02Z</time></trkpt><trkpt lat="60.1098861080" lon="30.5367014464"><ele>41.95</ele><time>2026-08-20T14:22:15Z</time></trkpt><trkpt lat="60.1098737027" lon="30.5366549268"><ele>41.95</ele><time>2026-08-20T14:22:17Z</time></trkpt><trkpt lat="60.1098407619" lon="30.5365510751"><ele>41.95</ele><time>2026-08-20T14:22:22Z</time></trkpt><trkpt lat="60.1098262612" lon="30.5365554336"><ele>41.95</ele><time>2026-08-20T14:22:34Z</time></trkpt><trkpt lat="60.1097966731" lon="30.5365029629"><ele>41.95</ele><time>2026-08-20T14:22:55Z</time></trkpt><trkpt lat="60.1097973436" lon="30.5365265161"><ele>41.95</ele><time>2026-08-20T14:23:13Z</time></trkpt><trkpt lat="60.1098179631" lon="30.5365604628"><ele>41.95</ele><time>2026-08-20T14:23:37Z</time></trkpt><trkpt lat="60.1098143589" lon="30.5365689285"><ele>41.47</ele><time>2026-08-20T14:24:04Z</time></trkpt><trkpt lat="60.1098141912" lon="30.5365764722"><ele>41.47</ele><time>2026-08-20T14:24:19Z</time></trkpt><trkpt lat="60.1098254230" lon="30.5365900509"><ele>41.47</ele><time>2026-08-20T14:24:35Z</time></trkpt><trkpt lat="60.1098350622" lon="30.5366212316"><ele>41.47</ele><time>2026-08-20T14:24:48Z</time></trkpt><trkpt lat="60.1098384988" lon="30.5366214830"><ele>41.47</ele><time>2026-08-20T14:25:00Z</time></trkpt><trkpt lat="60.1098141074" lon="30.5365384184"><ele>40.99</ele><time>2026-08-20T14:25:15Z</time></trkpt><trkpt lat="60.1098060608" lon="30.5365047231"><ele>40.99</ele><time>2026-08-20T14:25:32Z</time></trkpt><trkpt lat="60.1097996067" lon="30.5364950001"><ele>40.99</ele><time>2026-08-20T14:25:49Z</time></trkpt><trkpt lat="60.1097995229" lon="30.5364944134"><ele>40.99</ele><time>2026-08-20T14:25:52Z</time></trkpt><trkpt lat="60.1097585354" lon="30.5364111811"><ele>40.99</ele><time>2026-08-20T14:25:58Z</time></trkpt><trkpt lat="60.1096390933" lon="30.5361615680"><ele>41.47</ele><time>2026-08-20T14:26:11Z</time></trkpt><trkpt lat="60.1095881313" lon="30.5360871367"><ele>41.47</ele><time>2026-08-20T14:26:23Z</time></trkpt><trkpt lat="60.1095923223" lon="30.5361122824"><ele>41.47</ele><time>2026-08-20T14:26:44Z</time></trkpt><trkpt lat="60.1095934957" lon="30.5361168087"><ele>41.47</ele><time>2026-08-20T14:26:48Z</time></trkpt><trkpt lat="60.1095577888" lon="30.5361732189"><ele>41.47</ele><time>2026-08-20T14:27:04Z</time></trkpt><trkpt lat="60.1094805915" lon="30.5362776574"><ele>41.47</ele><time>2026-08-20T14:27:18Z</time></trkpt><trkpt lat="60.1094288751" lon="30.5363084190"><ele>41.47</ele><time>2026-08-20T14:27:28Z</time></trkpt><trkpt lat="60.1093348302" lon="30.5364423618"><ele>41.47</ele><time>2026-08-20T14:27:42Z</time></trkpt><trkpt lat="60.1092253625" lon="30.5365306232"><ele>41.47</ele><time>2026-08-20T14:27:55Z</time></trkpt><trkpt lat="60.1090644300" lon="30.5366010312"><ele>41.47</ele><time>2026-08-20T14:28:11Z</time></trkpt><trkpt lat="60.1089323312" lon="30.5366773903"><ele>41.47</ele><time>2026-08-20T14:28:24Z</time></trkpt><trkpt lat="60.1087989751" lon="30.5367542524"><ele>40.99</ele><time>2026-08-20T14:28:38Z</time></trkpt><trkpt lat="60.1087321714" lon="30.5368084833"><ele>40.51</ele><time>2026-08-20T14:28:50Z</time></trkpt><trkpt lat="60.1087246276" lon="30.5368069746"><ele>40.03</ele><time>2026-08-20T14:29:13Z</time></trkpt><trkpt lat="60.1086869091" lon="30.5367819965"><ele>40.03</ele><time>2026-08-20T14:29:28Z</time></trkpt><trkpt lat="60.1086403895" lon="30.5366367381"><ele>39.55</ele><time>2026-08-20T14:29:39Z</time></trkpt><trkpt lat="60.1086388808" lon="30.5366314575"><ele>39.55</ele><time>2026-08-20T14:29:41Z</time></trkpt><trkpt lat="60.1086037606" lon="30.5365697667"><ele>39.55</ele><time>2026-08-20T14:29:47Z</time></trkpt><trkpt lat="60.1085754298" lon="30.5364344828"><ele>40.99</ele><time>2026-08-20T14:29:56Z</time></trkpt><trkpt lat="60.1085608453" lon="30.5363889690"><ele>42.92</ele><time>2026-08-20T14:30:23Z</time></trkpt><trkpt lat="60.1085220370" lon="30.5362664256"><ele>41.95</ele><time>2026-08-20T14:30:35Z</time></trkpt><trkpt lat="60.1084898505" lon="30.5361298844"><ele>41.95</ele><time>2026-08-20T14:30:45Z</time></trkpt><trkpt lat="60.1084913593" lon="30.5360890646"><ele>41.95</ele><time>2026-08-20T14:31:03Z</time></trkpt><trkpt lat="60.1084895991" lon="30.5360679422"><ele>41.95</ele><time>2026-08-20T14:31:28Z</time></trkpt><trkpt lat="60.1084756013" lon="30.5360497534"><ele>41.95</ele><time>2026-08-20T14:31:59Z</time></trkpt><trkpt lat="60.1085190196" lon="30.5361802597"><ele>41.95</ele><time>2026-08-20T14:32:12Z</time></trkpt><trkpt lat="60.1085761841" lon="30.5364581198"><ele>41.95</ele><time>2026-08-20T14:32:29Z</time></trkpt><trkpt lat="60.1085914392" lon="30.5365732033"><ele>41.95</ele><time>2026-08-20T14:32:35Z</time></trkpt><trkpt lat="60.1086451672" lon="30.5367731955"><ele>40.51</ele><time>2026-08-20T14:32:44Z</time></trkpt><trkpt lat="60.1087622624" lon="30.5368135124"><ele>40.03</ele><time>2026-08-20T14:32:57Z</time></trkpt><trkpt lat="60.1088933554" lon="30.5367231555"><ele>40.03</ele><time>2026-08-20T14:33:12Z</time></trkpt><trkpt lat="60.1090386976" lon="30.5366533343"><ele>40.03</ele><time>2026-08-20T14:33:27Z</time></trkpt><trkpt lat="60.1091835368" lon="30.5365667492"><ele>40.03</ele><time>2026-08-20T14:33:41Z</time></trkpt><trkpt lat="60.1092992909" lon="30.5364295375"><ele>40.99</ele><time>2026-08-20T14:33:54Z</time></trkpt><trkpt lat="60.1093075890" lon="30.5364193115"><ele>40.99</ele><time>2026-08-20T14:33:55Z</time></trkpt><trkpt lat="60.1093867142" lon="30.5363026354"><ele>40.99</ele><time>2026-08-20T14:34:07Z</time></trkpt><trkpt lat="60.1093931682" lon="30.5362941697"><ele>40.99</ele><time>2026-08-20T14:34:08Z</time></trkpt><trkpt lat="60.1094934158" lon="30.5361497495"><ele>40.99</ele><time>2026-08-20T14:34:19Z</time></trkpt><trkpt lat="60.1095602196" lon="30.5359030701"><ele>40.51</ele><time>2026-08-20T14:34:31Z</time></trkpt><trkpt lat="60.1095597167" lon="30.5358503480"><ele>40.51</ele><time>2026-08-20T14:34:33Z</time></trkpt><trkpt lat="60.1095485687" lon="30.5355614237"><ele>40.99</ele><time>2026-08-20T14:34:42Z</time></trkpt><trkpt lat="60.1095484011" lon="30.5353448354"><ele>40.99</ele><time>2026-08-20T14:34:54Z</time></trkpt><trkpt lat="60.1095571183" lon="30.5350984074"><ele>41.47</ele><time>2026-08-20T14:35:06Z</time></trkpt><trkpt lat="60.1095424499" lon="30.5347550847"><ele>41.95</ele><time>2026-08-20T14:35:22Z</time></trkpt><trkpt lat="60.1095098443" lon="30.5345198046"><ele>41.95</ele><time>2026-08-20T14:35:34Z</time></trkpt><trkpt lat="60.1094775740" lon="30.5343318824"><ele>41.95</ele><time>2026-08-20T14:35:44Z</time></trkpt><trkpt lat="60.1094525959" lon="30.5340838619"><ele>41.95</ele><time>2026-08-20T14:35:56Z</time></trkpt><trkpt lat="60.1094249357" lon="30.5338586401"><ele>41.95</ele><time>2026-08-20T14:36:09Z</time></trkpt><trkpt lat="60.1094147097" lon="30.5338044092"><ele>41.95</ele><time>2026-08-20T14:36:12Z</time></trkpt><trkpt lat="60.1093620714" lon="30.5334772635"><ele>41.95</ele><time>2026-08-20T14:36:25Z</time></trkpt><trkpt lat="60.1093162224" lon="30.5331818853"><ele>41.95</ele><time>2026-08-20T14:36:39Z</time></trkpt><trkpt lat="60.1092939265" lon="30.5329838209"><ele>41.95</ele><time>2026-08-20T14:36:47Z</time></trkpt><trkpt lat="60.1092700381" lon="30.5327589344"><ele>40.99</ele><time>2026-08-20T14:36:58Z</time></trkpt><trkpt lat="60.1092593931" lon="30.5325111654"><ele>40.99</ele><time>2026-08-20T14:37:10Z</time></trkpt><trkpt lat="60.1092303079" lon="30.5322507396"><ele>40.99</ele><time>2026-08-20T14:37:22Z</time></trkpt><trkpt lat="60.1092282962" lon="30.5321939941"><ele>40.99</ele><time>2026-08-20T14:37:25Z</time></trkpt><trkpt lat="60.1091921702" lon="30.5319523439"><ele>40.03</ele><time>2026-08-20T14:37:38Z</time></trkpt><trkpt lat="60.1091301441" lon="30.5316909123"><ele>39.55</ele><time>2026-08-20T14:37:51Z</time></trkpt><trkpt lat="60.1091209240" lon="30.5316299759"><ele>39.55</ele><time>2026-08-20T14:37:54Z</time></trkpt><trkpt lat="60.1091127936" lon="30.5315691233"><ele>39.55</ele><time>2026-08-20T14:37:57Z</time></trkpt><trkpt lat="60.1090267953" lon="30.5313591566"><ele>38.59</ele><time>2026-08-20T14:38:10Z</time></trkpt><trkpt lat="60.1089609973" lon="30.5312036723"><ele>37.63</ele><time>2026-08-20T14:38:23Z</time></trkpt><trkpt lat="60.1089087781" lon="30.5311303306"><ele>37.63</ele><time>2026-08-20T14:38:30Z</time></trkpt><trkpt lat="60.1088247914" lon="30.5310721602"><ele>36.67</ele><time>2026-08-20T14:38:39Z</time></trkpt><trkpt lat="60.1087516174" lon="30.5310443323"><ele>36.67</ele><time>2026-08-20T14:38:46Z</time></trkpt><trkpt lat="60.1086894237" lon="30.5309314281"><ele>36.19</ele><time>2026-08-20T14:38:56Z</time></trkpt><trkpt lat="60.1086877473" lon="30.5308067892"><ele>35.71</ele><time>2026-08-20T14:39:02Z</time></trkpt><trkpt lat="60.1086907648" lon="30.5305023585"><ele>35.23</ele><time>2026-08-20T14:39:14Z</time></trkpt><trkpt lat="60.1087091211" lon="30.5302975047"><ele>35.23</ele><time>2026-08-20T14:39:22Z</time></trkpt><trkpt lat="60.1087335125" lon="30.5301114265"><ele>35.23</ele><time>2026-08-20T14:39:32Z</time></trkpt><trkpt lat="60.1087413915" lon="30.5299996957"><ele>35.23</ele><time>2026-08-20T14:39:37Z</time></trkpt><trkpt lat="60.1087480970" lon="30.5299393460"><ele>35.23</ele><time>2026-08-20T14:39:40Z</time></trkpt><trkpt lat="60.1087339316" lon="30.5298361648"><ele>35.23</ele><time>2026-08-20T14:39:45Z</time></trkpt><trkpt lat="60.1087428164" lon="30.5297684390"><ele>35.23</ele><time>2026-08-20T14:39:48Z</time></trkpt><trkpt lat="60.1087647770" lon="30.5295707937"><ele>35.23</ele><time>2026-08-20T14:40:03Z</time></trkpt><trkpt lat="60.1087800320" lon="30.5293445662"><ele>35.23</ele><time>2026-08-20T14:40:15Z</time></trkpt><trkpt lat="60.1087840553" lon="30.5293088593"><ele>35.23</ele><time>2026-08-20T14:40:17Z</time></trkpt><trkpt lat="60.1087895036" lon="30.5291999783"><ele>35.23</ele><time>2026-08-20T14:40:24Z</time></trkpt><trkpt lat="60.1088206004" lon="30.5289720744"><ele>35.23</ele><time>2026-08-20T14:40:35Z</time></trkpt><trkpt lat="60.1088234503" lon="30.5289345235"><ele>35.23</ele><time>2026-08-20T14:40:37Z</time></trkpt><trkpt lat="60.1088246237" lon="30.5288284924"><ele>35.23</ele><time>2026-08-20T14:40:42Z</time></trkpt><trkpt lat="60.1088263001" lon="30.5286706612"><ele>35.23</ele><time>2026-08-20T14:40:49Z</time></trkpt><trkpt lat="60.1088375319" lon="30.5285909493"><ele>35.23</ele><time>2026-08-20T14:40:53Z</time></trkpt><trkpt lat="60.1088404655" lon="30.5284850858"><ele>35.23</ele><time>2026-08-20T14:40:58Z</time></trkpt><trkpt lat="60.1088468358" lon="30.5284446850"><ele>35.23</ele><time>2026-08-20T14:41:00Z</time></trkpt><trkpt lat="60.1088634320" lon="30.5282197148"><ele>35.23</ele><time>2026-08-20T14:41:09Z</time></trkpt><trkpt lat="60.1088818721" lon="30.5279757176"><ele>35.23</ele><time>2026-08-20T14:41:21Z</time></trkpt><trkpt lat="60.1088874042" lon="30.5279204808"><ele>35.23</ele><time>2026-08-20T14:41:33Z</time></trkpt><trkpt lat="60.1088926010" lon="30.5277191475"><ele>35.23</ele><time>2026-08-20T14:41:45Z</time></trkpt><trkpt lat="60.1089202613" lon="30.5274572968"><ele>35.23</ele><time>2026-08-20T14:41:57Z</time></trkpt><trkpt lat="60.1089444850" lon="30.5272953585"><ele>35.71</ele><time>2026-08-20T14:42:08Z</time></trkpt><trkpt lat="60.1089540403" lon="30.5270935223"><ele>35.23</ele><time>2026-08-20T14:42:18Z</time></trkpt><trkpt lat="60.1089789346" lon="30.5268905964"><ele>35.23</ele><time>2026-08-20T14:42:29Z</time></trkpt><trkpt lat="60.1090179943" lon="30.5266842339"><ele>35.23</ele><time>2026-08-20T14:42:42Z</time></trkpt><trkpt lat="60.1090322435" lon="30.5264610238"><ele>35.23</ele><time>2026-08-20T14:42:54Z</time></trkpt><trkpt lat="60.1090451516" lon="30.5263297632"><ele>35.23</ele><time>2026-08-20T14:43:01Z</time></trkpt><trkpt lat="60.1090672798" lon="30.5261096545"><ele>35.23</ele><time>2026-08-20T14:43:12Z</time></trkpt><trkpt lat="60.1090756617" lon="30.5259594508"><ele>35.23</ele><time>2026-08-20T14:43:20Z</time></trkpt><trkpt lat="60.1090700459" lon="30.5258279387"><ele>35.23</ele><time>2026-08-20T14:43:25Z</time></trkpt><trkpt lat="60.1090683695" lon="30.5255510844"><ele>35.23</ele><time>2026-08-20T14:43:37Z</time></trkpt><trkpt lat="60.1090997178" lon="30.5253462307"><ele>35.23</ele><time>2026-08-20T14:43:49Z</time></trkpt><trkpt lat="60.1091285516" lon="30.5251228530"><ele>35.23</ele><time>2026-08-20T14:44:02Z</time></trkpt><trkpt lat="60.1091509312" lon="30.5250367709"><ele>35.23</ele><time>2026-08-20T14:44:08Z</time></trkpt><trkpt lat="60.1091741491" lon="30.5249570590"><ele>35.71</ele><time>2026-08-20T14:44:20Z</time></trkpt><trkpt lat="60.1091825310" lon="30.5247756746"><ele>35.71</ele><time>2026-08-20T14:44:31Z</time></trkpt><trkpt lat="60.1092378516" lon="30.5245281570"><ele>35.71</ele><time>2026-08-20T14:44:42Z</time></trkpt><trkpt lat="60.1092336606" lon="30.5243616924"><ele>36.67</ele><time>2026-08-20T14:44:50Z</time></trkpt><trkpt lat="60.1092481613" lon="30.5242125783"><ele>36.67</ele><time>2026-08-20T14:44:58Z</time></trkpt><trkpt lat="60.1092790067" lon="30.5240393244"><ele>36.67</ele><time>2026-08-20T14:45:09Z</time></trkpt><trkpt lat="60.1092910767" lon="30.5240108259"><ele>36.67</ele><time>2026-08-20T14:45:11Z</time></trkpt><trkpt lat="60.1093039848" lon="30.5239726044"><ele>36.67</ele><time>2026-08-20T14:45:13Z</time></trkpt><trkpt lat="60.1093153004" lon="30.5239301920"><ele>36.67</ele><time>2026-08-20T14:45:16Z</time></trkpt><trkpt lat="60.1093528513" lon="30.5238605384"><ele>37.15</ele><time>2026-08-20T14:45:21Z</time></trkpt><trkpt lat="60.1093717944" lon="30.5237740371"><ele>37.15</ele><time>2026-08-20T14:45:26Z</time></trkpt><trkpt lat="60.1093992032" lon="30.5237345584"><ele>37.15</ele><time>2026-08-20T14:45:29Z</time></trkpt><trkpt lat="60.1094545238" lon="30.5236211512"><ele>37.15</ele><time>2026-08-20T14:45:41Z</time></trkpt><trkpt lat="60.1094876323" lon="30.5235633999"><ele>37.15</ele><time>2026-08-20T14:45:53Z</time></trkpt><trkpt lat="60.1094851177" lon="30.5235537607"><ele>37.15</ele><time>2026-08-20T14:46:14Z</time></trkpt><trkpt lat="60.1095229201" lon="30.5235069059"><ele>37.63</ele><time>2026-08-20T14:46:35Z</time></trkpt><trkpt lat="60.1095991116" lon="30.5233890563"><ele>37.63</ele><time>2026-08-20T14:46:46Z</time></trkpt><trkpt lat="60.1096953359" lon="30.5232721288"><ele>37.63</ele><time>2026-08-20T14:46:58Z</time></trkpt><trkpt lat="60.1097623911" lon="30.5231583025"><ele>37.63</ele><time>2026-08-20T14:47:07Z</time></trkpt><trkpt lat="60.1098767202" lon="30.5230585579"><ele>37.63</ele><time>2026-08-20T14:47:19Z</time></trkpt><trkpt lat="60.1100230683" lon="30.5229252856"><ele>38.11</ele><time>2026-08-20T14:47:32Z</time></trkpt><trkpt lat="60.1100383233" lon="30.5228963681"><ele>38.11</ele><time>2026-08-20T14:47:34Z</time></trkpt><trkpt lat="60.1101460308" lon="30.5228039995"><ele>38.11</ele><time>2026-08-20T14:47:47Z</time></trkpt><trkpt lat="60.1102381479" lon="30.5227359384"><ele>38.59</ele><time>2026-08-20T14:48:00Z</time></trkpt><trkpt lat="60.1102535706" lon="30.5227554683"><ele>38.59</ele><time>2026-08-20T14:48:17Z</time></trkpt><trkpt lat="60.1103868429" lon="30.5226607528"><ele>38.59</ele><time>2026-08-20T14:48:31Z</time></trkpt><trkpt lat="60.1105533075" lon="30.5225112196"><ele>39.07</ele><time>2026-08-20T14:48:47Z</time></trkpt><trkpt lat="60.1107032597" lon="30.5224078707"><ele>38.59</ele><time>2026-08-20T14:49:02Z</time></trkpt><trkpt lat="60.1107828878" lon="30.5223216210"><ele>38.59</ele><time>2026-08-20T14:49:15Z</time></trkpt><trkpt lat="60.1108735800" lon="30.5222007539"><ele>39.07</ele><time>2026-08-20T14:49:28Z</time></trkpt><trkpt lat="60.1109552197" lon="30.5221081339"><ele>39.07</ele><time>2026-08-20T14:49:39Z</time></trkpt><trkpt lat="60.1110711414" lon="30.5220262427"><ele>39.07</ele><time>2026-08-20T14:49:51Z</time></trkpt><trkpt lat="60.1111705508" lon="30.5219280906"><ele>39.07</ele><time>2026-08-20T14:50:04Z</time></trkpt><trkpt lat="60.1112418808" lon="30.5218259152"><ele>39.55</ele><time>2026-08-20T14:50:18Z</time></trkpt><trkpt lat="60.1113669388" lon="30.5217364803"><ele>39.07</ele><time>2026-08-20T14:50:30Z</time></trkpt><trkpt lat="60.1114567090" lon="30.5216778070"><ele>39.07</ele><time>2026-08-20T14:50:39Z</time></trkpt><trkpt lat="60.1116507500" lon="30.5215585325"><ele>39.07</ele><time>2026-08-20T14:50:53Z</time></trkpt><trkpt lat="60.1117913984" lon="30.5214557704"><ele>39.55</ele><time>2026-08-20T14:51:06Z</time></trkpt><trkpt lat="60.1119306218" lon="30.5213385914"><ele>39.55</ele><time>2026-08-20T14:51:18Z</time></trkpt><trkpt lat="60.1120859385" lon="30.5212457199"><ele>40.03</ele><time>2026-08-20T14:51:32Z</time></trkpt><trkpt lat="60.1122027822" lon="30.5211543571"><ele>40.03</ele><time>2026-08-20T14:51:46Z</time></trkpt><trkpt lat="60.1123332046" lon="30.5210528523"><ele>40.03</ele><time>2026-08-20T14:52:00Z</time></trkpt><trkpt lat="60.1124380622" lon="30.5209505931"><ele>40.03</ele><time>2026-08-20T14:52:12Z</time></trkpt><trkpt lat="60.1125549059" lon="30.5208689533"><ele>40.51</ele><time>2026-08-20T14:52:25Z</time></trkpt><trkpt lat="60.1126248948" lon="30.5208080169"><ele>40.51</ele><time>2026-08-20T14:52:34Z</time></trkpt><trkpt lat="60.1127578318" lon="30.5206662789"><ele>40.51</ele><time>2026-08-20T14:52:49Z</time></trkpt><trkpt lat="60.1128484402" lon="30.5205834657"><ele>40.51</ele><time>2026-08-20T14:53:03Z</time></trkpt><trkpt lat="60.1129942853" lon="30.5204844754"><ele>40.51</ele><time>2026-08-20T14:53:15Z</time></trkpt><trkpt lat="60.1131036691" lon="30.5204064399"><ele>40.51</ele><time>2026-08-20T14:53:25Z</time></trkpt><trkpt lat="60.1131315809" lon="30.5203767680"><ele>40.51</ele><time>2026-08-20T14:53:28Z</time></trkpt><trkpt lat="60.1132709719" lon="30.5202647019"><ele>40.51</ele><time>2026-08-20T14:53:42Z</time></trkpt><trkpt lat="60.1133933477" lon="30.5201815534"><ele>40.99</ele><time>2026-08-20T14:53:57Z</time></trkpt><trkpt lat="60.1134712156" lon="30.5201558210"><ele>40.99</ele><time>2026-08-20T14:54:11Z</time></trkpt><trkpt lat="60.1135416236" lon="30.5201131571"><ele>40.99</ele><time>2026-08-20T14:54:18Z</time></trkpt><trkpt lat="60.1136202458" lon="30.5200878438"><ele>40.99</ele><time>2026-08-20T14:54:26Z</time></trkpt><trkpt lat="60.1136340760" lon="30.5200571660"><ele>40.99</ele><time>2026-08-20T14:54:28Z</time></trkpt><trkpt lat="60.1136462297" lon="30.5198985804"><ele>40.99</ele><time>2026-08-20T14:54:36Z</time></trkpt><trkpt lat="60.1136667654" lon="30.5196487159"><ele>41.47</ele><time>2026-08-20T14:54:49Z</time></trkpt><trkpt lat="60.1136608981" lon="30.5196153559"><ele>41.47</ele><time>2026-08-20T14:54:51Z</time></trkpt><trkpt lat="60.1136698667" lon="30.5195390806"><ele>41.47</ele><time>2026-08-20T14:54:55Z</time></trkpt><trkpt lat="60.1136697829" lon="30.5193339754"><ele>41.47</ele><time>2026-08-20T14:55:04Z</time></trkpt><trkpt lat="60.1136510074" lon="30.5190503318"><ele>41.47</ele><time>2026-08-20T14:55:17Z</time></trkpt><trkpt lat="60.1136195753" lon="30.5187804345"><ele>40.51</ele><time>2026-08-20T14:55:28Z</time></trkpt><trkpt lat="60.1136106066" lon="30.5186348408"><ele>40.03</ele><time>2026-08-20T14:55:33Z</time></trkpt><trkpt lat="60.1135816891" lon="30.5183545500"><ele>40.03</ele><time>2026-08-20T14:55:45Z</time></trkpt><trkpt lat="60.1135773305" lon="30.5183352716"><ele>40.03</ele><time>2026-08-20T14:55:46Z</time></trkpt><trkpt lat="60.1135621592" lon="30.5181005783"><ele>40.03</ele><time>2026-08-20T14:55:57Z</time></trkpt><trkpt lat="60.1135466527" lon="30.5179004185"><ele>40.03</ele><time>2026-08-20T14:56:05Z</time></trkpt><trkpt lat="60.1135144662" lon="30.5175533239"><ele>40.03</ele><time>2026-08-20T14:56:17Z</time></trkpt><trkpt lat="60.1134731434" lon="30.5172818340"><ele>40.03</ele><time>2026-08-20T14:56:28Z</time></trkpt><trkpt lat="60.1134633366" lon="30.5170569476"><ele>40.51</ele><time>2026-08-20T14:56:39Z</time></trkpt><trkpt lat="60.1134334132" lon="30.5167880561"><ele>40.51</ele><time>2026-08-20T14:56:50Z</time></trkpt><trkpt lat="60.1134008076" lon="30.5164827034"><ele>40.51</ele><time>2026-08-20T14:57:03Z</time></trkpt><trkpt lat="60.1133961976" lon="30.5164502654"><ele>40.51</ele><time>2026-08-20T14:57:05Z</time></trkpt><trkpt lat="60.1133961137" lon="30.5162496027"><ele>40.51</ele><time>2026-08-20T14:57:16Z</time></trkpt><trkpt lat="60.1133819483" lon="30.5160156637"><ele>40.51</ele><time>2026-08-20T14:57:27Z</time></trkpt><trkpt lat="60.1133572217" lon="30.5157450121"><ele>40.51</ele><time>2026-08-20T14:57:39Z</time></trkpt><trkpt lat="60.1133263763" lon="30.5155206285"><ele>40.51</ele><time>2026-08-20T14:57:50Z</time></trkpt><trkpt lat="60.1133269630" lon="30.5153890327"><ele>40.51</ele><time>2026-08-20T14:57:57Z</time></trkpt><trkpt lat="60.1133104507" lon="30.5151291098"><ele>40.51</ele><time>2026-08-20T14:58:08Z</time></trkpt><trkpt lat="60.1133106183" lon="30.5151052214"><ele>40.51</ele><time>2026-08-20T14:58:09Z</time></trkpt><trkpt lat="60.1132936031" lon="30.5149710272"><ele>40.99</ele><time>2026-08-20T14:58:16Z</time></trkpt><trkpt lat="60.1132723130" lon="30.5148442928"><ele>40.99</ele><time>2026-08-20T14:58:22Z</time></trkpt><trkpt lat="60.1132737380" lon="30.5146539398"><ele>40.99</ele><time>2026-08-20T14:58:31Z</time></trkpt><trkpt lat="60.1132444851" lon="30.5145194102"><ele>40.99</ele><time>2026-08-20T14:58:37Z</time></trkpt><trkpt lat="60.1132415514" lon="30.5144731421"><ele>40.99</ele><time>2026-08-20T14:58:39Z</time></trkpt><trkpt lat="60.1132148132" lon="30.5143514369"><ele>40.99</ele><time>2026-08-20T14:58:46Z</time></trkpt><trkpt lat="60.1132025756" lon="30.5141454935"><ele>40.99</ele><time>2026-08-20T14:58:58Z</time></trkpt><trkpt lat="60.1131879073" lon="30.5140480958"><ele>40.99</ele><time>2026-08-20T14:59:04Z</time></trkpt><trkpt lat="60.1131672878" lon="30.5138200242"><ele>40.99</ele><time>2026-08-20T14:59:15Z</time></trkpt><trkpt lat="60.1131185889" lon="30.5135981552"><ele>40.99</ele><time>2026-08-20T14:59:28Z</time></trkpt><trkpt lat="60.1131099556" lon="30.5135261547"><ele>40.51</ele><time>2026-08-20T14:59:32Z</time></trkpt><trkpt lat="60.1131027471" lon="30.5132073071"><ele>40.51</ele><time>2026-08-20T14:59:46Z</time></trkpt><trkpt lat="60.1130920183" lon="30.5129434448"><ele>40.03</ele><time>2026-08-20T15:00:01Z</time></trkpt><trkpt lat="60.1130819600" lon="30.5128530879"><ele>40.03</ele><time>2026-08-20T15:00:15Z</time></trkpt><trkpt lat="60.1130563114" lon="30.5125896446"><ele>40.03</ele><time>2026-08-20T15:00:27Z</time></trkpt><trkpt lat="60.1130554732" lon="30.5125575420"><ele>40.03</ele><time>2026-08-20T15:00:29Z</time></trkpt><trkpt lat="60.1130565628" lon="30.5124943424"><ele>40.03</ele><time>2026-08-20T15:00:32Z</time></trkpt><trkpt lat="60.1130311657" lon="30.5121497624"><ele>39.07</ele><time>2026-08-20T15:00:47Z</time></trkpt><trkpt lat="60.1130154077" lon="30.5119066034"><ele>38.59</ele><time>2026-08-20T15:01:03Z</time></trkpt><trkpt lat="60.1130021643" lon="30.5117385462"><ele>38.11</ele><time>2026-08-20T15:01:20Z</time></trkpt><trkpt lat="60.1129948720" lon="30.5114872567"><ele>37.63</ele><time>2026-08-20T15:01:34Z</time></trkpt><trkpt lat="60.1129657868" lon="30.5112219695"><ele>37.63</ele><time>2026-08-20T15:01:48Z</time></trkpt><trkpt lat="60.1129356120" lon="30.5109203048"><ele>37.15</ele><time>2026-08-20T15:02:02Z</time></trkpt><trkpt lat="60.1129015815" lon="30.5106601305"><ele>36.67</ele><time>2026-08-20T15:02:13Z</time></trkpt><trkpt lat="60.1128979772" lon="30.5105452985"><ele>36.19</ele><time>2026-08-20T15:02:22Z</time></trkpt><trkpt lat="60.1128869131" lon="30.5102783348"><ele>36.19</ele><time>2026-08-20T15:02:35Z</time></trkpt><trkpt lat="60.1128839795" lon="30.5100718047"><ele>36.19</ele><time>2026-08-20T15:02:44Z</time></trkpt><trkpt lat="60.1128662936" lon="30.5098643526"><ele>36.19</ele><time>2026-08-20T15:02:54Z</time></trkpt><trkpt lat="60.1128656231" lon="30.5097346008"><ele>35.71</ele><time>2026-08-20T15:03:05Z</time></trkpt><trkpt lat="60.1128404774" lon="30.5096111353"><ele>35.71</ele><time>2026-08-20T15:03:17Z</time></trkpt><trkpt lat="60.1128043514" lon="30.5094025098"><ele>35.71</ele><time>2026-08-20T15:03:27Z</time></trkpt><trkpt lat="60.1128051896" lon="30.5093618575"><ele>35.71</ele><time>2026-08-20T15:03:29Z</time></trkpt><trkpt lat="60.1127990708" lon="30.5092029367"><ele>35.71</ele><time>2026-08-20T15:03:36Z</time></trkpt><trkpt lat="60.1127918623" lon="30.5090325326"><ele>35.71</ele><time>2026-08-20T15:03:43Z</time></trkpt><trkpt lat="60.1127890125" lon="30.5089822412"><ele>35.71</ele><time>2026-08-20T15:03:45Z</time></trkpt><trkpt lat="60.1127652079" lon="30.5088104121"><ele>35.71</ele><time>2026-08-20T15:03:52Z</time></trkpt><trkpt lat="60.1127477735" lon="30.5086466298"><ele>35.71</ele><time>2026-08-20T15:03:58Z</time></trkpt><trkpt lat="60.1127389725" lon="30.5085136089"><ele>35.71</ele><time>2026-08-20T15:04:04Z</time></trkpt><trkpt lat="60.1127402298" lon="30.5084696040"><ele>35.71</ele><time>2026-08-20T15:04:06Z</time></trkpt><trkpt lat="60.1127036009" lon="30.5081865471"><ele>36.67</ele><time>2026-08-20T15:04:19Z</time></trkpt><trkpt lat="60.1126963086" lon="30.5080553703"><ele>37.15</ele><time>2026-08-20T15:04:25Z</time></trkpt><trkpt lat="60.1126808021" lon="30.5079958588"><ele>37.15</ele><time>2026-08-20T15:04:28Z</time></trkpt><trkpt lat="60.1126746833" lon="30.5079116207"><ele>37.15</ele><time>2026-08-20T15:04:32Z</time></trkpt><trkpt lat="60.1126687322" lon="30.5077939387"><ele>37.15</ele><time>2026-08-20T15:04:37Z</time></trkpt><trkpt lat="60.1126497891" lon="30.5077193398"><ele>37.63</ele><time>2026-08-20T15:04:41Z</time></trkpt><trkpt lat="60.1126093883" lon="30.5074728280"><ele>37.63</ele><time>2026-08-20T15:04:53Z</time></trkpt><trkpt lat="60.1126065385" lon="30.5074014980"><ele>38.11</ele><time>2026-08-20T15:04:56Z</time></trkpt><trkpt lat="60.1125234738" lon="30.5071159266"><ele>38.11</ele><time>2026-08-20T15:05:09Z</time></trkpt><trkpt lat="60.1125203725" lon="30.5070254020"><ele>38.11</ele><time>2026-08-20T15:05:14Z</time></trkpt><trkpt lat="60.1124732662" lon="30.5067840032"><ele>38.11</ele><time>2026-08-20T15:05:25Z</time></trkpt><trkpt lat="60.1124545746" lon="30.5067219771"><ele>38.11</ele><time>2026-08-20T15:05:28Z</time></trkpt><trkpt lat="60.1124061272" lon="30.5065374915"><ele>38.59</ele><time>2026-08-20T15:05:40Z</time></trkpt><trkpt lat="60.1123953145" lon="30.5064658262"><ele>38.59</ele><time>2026-08-20T15:05:44Z</time></trkpt><trkpt lat="60.1123439334" lon="30.5062494054"><ele>38.59</ele><time>2026-08-20T15:05:55Z</time></trkpt><trkpt lat="60.1123010181" lon="30.5059950985"><ele>38.59</ele><time>2026-08-20T15:06:06Z</time></trkpt><trkpt lat="60.1122614555" lon="30.5057497602"><ele>38.59</ele><time>2026-08-20T15:06:18Z</time></trkpt><trkpt lat="60.1122592762" lon="30.5056750774"><ele>38.59</ele><time>2026-08-20T15:06:22Z</time></trkpt><trkpt lat="60.1121881139" lon="30.5054278113"><ele>38.59</ele><time>2026-08-20T15:06:34Z</time></trkpt><trkpt lat="60.1121881977" lon="30.5054112989"><ele>38.59</ele><time>2026-08-20T15:06:35Z</time></trkpt><trkpt lat="60.1121530775" lon="30.5050875060"><ele>38.59</ele><time>2026-08-20T15:06:49Z</time></trkpt><trkpt lat="60.1121435221" lon="30.5050267372"><ele>38.59</ele><time>2026-08-20T15:06:52Z</time></trkpt><trkpt lat="60.1120841783" lon="30.5047572590"><ele>38.59</ele><time>2026-08-20T15:07:04Z</time></trkpt><trkpt lat="60.1120221522" lon="30.5044341367"><ele>38.59</ele><time>2026-08-20T15:07:18Z</time></trkpt><trkpt lat="60.1120158657" lon="30.5043401755"><ele>38.59</ele><time>2026-08-20T15:07:22Z</time></trkpt><trkpt lat="60.1119468827" lon="30.5040375888"><ele>38.59</ele><time>2026-08-20T15:07:37Z</time></trkpt><trkpt lat="60.1119172946" lon="30.5038653407"><ele>38.59</ele><time>2026-08-20T15:07:47Z</time></trkpt><trkpt lat="60.1119120140" lon="30.5036179908"><ele>38.59</ele><time>2026-08-20T15:07:59Z</time></trkpt><trkpt lat="60.1118690986" lon="30.5033180024"><ele>38.59</ele><time>2026-08-20T15:08:13Z</time></trkpt><trkpt lat="60.1118571963" lon="30.5030263960"><ele>38.59</ele><time>2026-08-20T15:08:26Z</time></trkpt><trkpt lat="60.1118499041" lon="30.5029262323"><ele>38.59</ele><time>2026-08-20T15:08:39Z</time></trkpt><trkpt lat="60.1118497364" lon="30.5029326025"><ele>38.59</ele><time>2026-08-20T15:09:02Z</time></trkpt><trkpt lat="60.1118517481" lon="30.5029359553"><ele>38.59</ele><time>2026-08-20T15:09:23Z</time></trkpt><trkpt lat="60.1118488144" lon="30.5029295012"><ele>38.59</ele><time>2026-08-20T15:09:49Z</time></trkpt><trkpt lat="60.1118492335" lon="30.5029177666"><ele>38.59</ele><time>2026-08-20T15:10:17Z</time></trkpt><trkpt lat="60.1118481439" lon="30.5029117316"><ele>38.59</ele><time>2026-08-20T15:10:41Z</time></trkpt><trkpt lat="60.1118486468" lon="30.5029008351"><ele>38.59</ele><time>2026-08-20T15:11:05Z</time></trkpt><trkpt lat="60.1118541788" lon="30.5028374679"><ele>38.59</ele><time>2026-08-20T15:11:21Z</time></trkpt><trkpt lat="60.1118252613" lon="30.5028181896"><ele>38.59</ele><time>2026-08-20T15:11:24Z</time></trkpt><trkpt lat="60.1117978524" lon="30.5027405731"><ele>38.59</ele><time>2026-08-20T15:11:29Z</time></trkpt><trkpt lat="60.1117530093" lon="30.5025046226"><ele>38.59</ele><time>2026-08-20T15:11:42Z</time></trkpt><trkpt lat="60.1117616426" lon="30.5024855118"><ele>38.59</ele><time>2026-08-20T15:11:53Z</time></trkpt><trkpt lat="60.1117481478" lon="30.5024713464"><ele>38.59</ele><time>2026-08-20T15:12:06Z</time></trkpt><trkpt lat="60.1117379218" lon="30.5024897866"><ele>38.59</ele><time>2026-08-20T15:12:19Z</time></trkpt><trkpt lat="60.1117540989" lon="30.5025090650"><ele>38.59</ele><time>2026-08-20T15:12:32Z</time></trkpt><trkpt lat="60.1117608044" lon="30.5025231466"><ele>38.59</ele><time>2026-08-20T15:13:10Z</time></trkpt><trkpt lat="60.1117521711" lon="30.5025289301"><ele>38.11</ele><time>2026-08-20T15:13:39Z</time></trkpt><trkpt lat="60.1117537636" lon="30.5025367253"><ele>38.11</ele><time>2026-08-20T15:14:18Z</time></trkpt><trkpt lat="60.1117493212" lon="30.5025085621"><ele>38.11</ele><time>2026-08-20T15:14:50Z</time></trkpt><trkpt lat="60.1117477287" lon="30.5024886969"><ele>38.11</ele><time>2026-08-20T15:15:20Z</time></trkpt><trkpt lat="60.1117491536" lon="30.5024772137"><ele>38.11</ele><time>2026-08-20T15:15:54Z</time></trkpt></trkseg></trk></gpx>